[[{"header":{"parameterUnit":"m.s-1","parameterCategory":1,"la1":30.6,"la2":29.2853,"lo1":-89.7004,"lo2":-87.6739,"dy":0.0162,"dx":0.0183,"nx":112,"ny":82,"refTime":"2023-05-13T12:00:00:Z","depth":0,"parameterNumber":2,"parameterNumberName":"U-component_of_WINDS"},"data":[0.0,0.0,0.0,0.0,0.0,0.0,0.0,0.0,0.0,0.0,0.0,0.0,0.0,0.0,0.0,0.0,0.0,0.0,0.0,0.0,0.0,0.0,0.0,0.0,0.0,0.0,0.0,0.0,0.0,0.0,0.0,0.0,0.0,0.0,0.0,0.0,0.0,0.0,0.0,0.0,0.0,0.0,0.0,0.0,0.0,0.0,0.0,0.0,0.0,0.0,0.0,0.0,0.0,0.0,0.0,0.0,0.0,0.0,0.0,0.0,0.0,0.0,0.0,0.0,0.0,0.0,0.0,0.0,0.0,0.0,0.0,0.0,0.0,0.0,0.0,0.0,0.0,0.0,0.0,0.0,0.0,0.0,0.0,0.0,0.0,0.0,0.0,0.0,0.0,0.0,2.0904,2.2924,2.6539,2.8586,2.8044,2.8383,2.6622,2.1817,0.0,0.0,0.0,0.0,0.0,0.0,0.0,0.0,0.0,0.0,0.0,0.0,0.0,0.0,0.0,0.0,0.0,0.0,0.0,0.0,0.0,0.0,0.0,0.0,0.0,0.0,0.0,0.0,0.0,0.0,0.0,0.0,0.0,0.0,0.0,0.0,0.0,0.0,0.0,0.0,0.0,0.0,0.0,0.0,0.0,0.0,0.0,0.0,0.0,0.0,0.0,0.0,0.0,0.0,0.0,0.0,0.0,0.0,0.0,0.0,0.0,0.0,0.0,0.0,0.0,0.0,0.0,0.0,0.0,0.0,0.0,0.0,0.0,0.0,0.0,0.0,0.0,0.0,0.0,0.0,0.0,0.0,0.0,0.0,0.0,0.0,0.0,0.0,0.0,0.0,0.0,0.0,0.0,0.0,0.0,0.0,0.0,0.0,0.0,0.0,0.0,0.0,0.0,0.0,2.2375,2.6522,2.7588,2.8213,2.8755,2.7723,2.5513,2.1906,0.0,0.0,0.0,0.0,0.0,0.0,0.0,0.0,0.0,0.0,0.0,0.0,0.0,0.0,0.0,0.0,0.0,0.0,0.0,0.0,0.0,0.0,0.0,0.0,0.0,0.0,0.0,0.0,0.0,0.0,0.0,0.0,0.0,0.0,0.0,0.0,0.0,0.0,0.0,0.0,0.0,0.0,0.0,0.0,0.0,0.0,0.0,0.0,0.0,0.0,0.0,0.0,0.0,0.0,0.0,0.0,0.0,0.0,0.0,0.0,0.0,0.0,0.0,0.0,0.0,0.0,0.0,0.0,0.0,0.0,0.0,0.0,0.0,0.0,0.0,0.0,0.0,0.0,0.0,0.0,0.0,0.0,0.0,0.0,0.0,0.0,0.0,0.0,0.0,0.0,0.0,0.0,0.0,0.0,0.0,0.0,0.0,0.0,0.0,0.0,0.0,0.0,0.0,2.0958,2.295,2.6235,2.7299,2.7807,2.774,2.7097,2.5346,2.2166,2.1438,0.0,0.0,0.0,0.0,0.0,0.0,0.0,0.0,0.0,0.0,0.0,0.0,0.0,0.0,0.0,0.0,0.0,0.0,0.0,0.0,0.0,0.0,0.0,0.0,0.0,0.0,0.0,0.0,0.0,0.0,0.0,0.0,0.0,0.0,0.0,0.0,0.0,0.0,0.0,0.0,0.0,0.0,0.0,0.0,0.0,0.0,0.0,0.0,0.0,0.0,0.0,0.0,0.0,0.0,0.0,0.0,0.0,0.0,0.0,0.0,0.0,0.0,0.0,0.0,0.0,0.0,0.0,0.0,0.0,0.0,0.0,0.0,0.0,0.0,0.0,0.0,0.0,0.0,0.0,0.0,0.0,0.0,0.0,0.0,0.0,0.0,0.0,0.0,0.0,0.0,0.0,0.0,0.0,0.0,0.0,0.0,0.0,0.0,0.0,0.0,0.0,0.0,2.2215,2.368,2.5896,2.6979,2.7385,2.6996,2.6793,2.5414,2.2458,2.1892,0.0,0.0,0.0,0.0,0.0,0.0,0.0,0.0,0.0,0.0,0.0,0.0,0.0,0.0,0.0,0.0,0.0,0.0,0.0,0.0,0.0,0.0,0.0,0.0,0.0,0.0,0.0,0.0,0.0,0.0,0.0,0.0,0.0,0.0,0.0,0.0,0.0,0.0,0.0,0.0,0.0,0.0,0.0,0.0,0.0,0.0,0.0,0.0,0.0,0.0,0.0,0.0,0.0,0.0,0.0,0.0,0.0,0.0,0.0,0.0,0.0,0.0,0.0,0.0,0.0,0.0,0.0,0.0,0.0,0.0,0.0,0.0,0.0,0.0,0.0,0.0,0.0,0.0,0.0,0.0,0.0,0.0,0.0,0.0,0.0,0.0,0.0,0.0,0.0,0.0,0.0,0.0,0.0,0.0,0.0,0.0,0.0,0.0,0.0,0.0,0.0,0.0,2.3354,2.5186,2.7401,2.7131,2.7029,2.7654,2.7097,2.5497,2.2671,2.3012,0.0,0.0,0.0,0.0,0.0,0.0,0.0,0.0,0.0,0.0,0.0,0.0,0.0,0.0,0.0,0.0,0.0,0.0,0.0,0.0,0.0,0.0,0.0,0.0,0.0,0.0,0.0,0.0,0.0,0.0,0.0,0.0,0.0,0.0,0.0,0.0,0.0,0.0,0.0,0.0,0.0,0.0,0.0,0.0,0.0,0.0,0.0,0.0,0.0,0.0,0.0,0.0,0.0,0.0,0.0,0.0,0.0,0.0,0.0,0.0,0.0,0.0,0.0,0.0,0.0,0.0,0.0,0.0,0.0,0.0,0.0,0.0,0.0,0.0,0.0,0.0,0.0,0.0,0.0,0.0,0.0,0.0,0.0,0.0,0.0,0.0,0.0,0.0,0.0,0.0,0.0,0.0,0.0,0.0,0.0,0.0,0.0,0.0,0.0,0.0,0.0,0.0,2.3472,2.5152,2.6928,2.686,2.681,2.7097,2.686,2.5614,2.3106,0.0,0.0,0.0,0.0,0.0,0.0,0.0,0.0,0.0,0.0,0.0,0.0,0.0,0.0,0.0,0.0,0.0,0.0,0.0,0.0,0.0,0.0,0.0,0.0,0.0,0.0,0.0,0.0,0.0,0.0,0.0,0.0,0.0,0.0,0.0,0.0,0.0,0.0,0.0,0.0,0.0,0.0,0.0,0.0,0.0,0.0,0.0,0.0,0.0,0.0,0.0,0.0,0.0,0.0,0.0,0.0,0.0,0.0,0.0,0.0,0.0,0.0,0.0,0.0,0.0,0.0,0.0,0.0,0.0,0.0,0.0,0.0,0.0,0.0,0.0,0.0,0.0,0.0,0.0,0.0,0.0,0.0,0.0,0.0,0.0,0.0,0.0,0.0,0.0,0.0,0.0,0.0,0.0,0.0,0.0,0.0,0.0,0.0,0.0,0.0,0.0,0.0,2.1736,2.3614,2.5304,2.6556,2.6691,2.6691,2.6691,2.6691,2.5681,2.3342,0.0,0.0,0.0,0.0,0.0,0.0,0.0,0.0,0.0,0.0,0.0,0.0,0.0,0.0,0.0,0.0,0.0,0.0,0.0,0.0,0.0,0.0,0.0,0.0,0.0,0.0,0.0,0.0,0.0,0.0,0.0,0.0,0.0,0.0,0.0,0.0,0.0,0.0,0.0,0.0,0.0,0.0,0.0,0.0,0.0,0.0,0.0,0.0,0.0,0.0,0.0,0.0,0.0,0.0,0.0,0.0,0.0,0.0,0.0,0.0,0.0,0.0,0.0,0.0,0.0,0.0,0.0,0.0,0.0,0.0,0.0,0.0,0.0,0.0,0.0,0.0,0.0,0.0,0.0,0.0,0.0,0.0,0.0,0.0,0.0,0.0,0.0,0.0,0.0,0.0,0.0,0.0,0.0,0.0,0.0,0.0,0.0,0.0,0.0,0.0,0.0,0.0,2.1595,2.3974,2.5896,2.6623,2.6691,2.6691,2.6691,2.6691,2.5681,0.0,0.0,0.0,0.0,0.0,0.0,0.0,0.0,0.0,0.0,0.0,0.0,0.0,0.0,0.0,0.0,0.0,0.0,0.0,0.0,0.0,0.0,0.0,0.0,0.0,0.0,0.0,0.0,0.0,0.0,0.0,0.0,0.0,0.0,0.0,0.0,0.0,0.0,0.0,0.0,0.0,0.0,0.0,0.0,0.0,0.0,0.0,0.0,0.0,0.0,0.0,0.0,0.0,0.0,0.0,0.0,0.0,0.0,0.0,0.0,0.0,0.0,0.0,0.0,0.0,0.0,0.0,0.0,0.0,0.0,0.0,0.0,0.0,0.0,0.0,0.0,0.0,0.0,0.0,0.0,0.0,0.0,0.0,0.0,0.0,0.0,0.0,0.0,0.0,0.0,0.0,0.0,0.0,0.0,0.0,0.0,0.0,0.0,0.0,0.0,0.0,0.0,0.0,2.1661,2.4441,2.6454,2.6674,2.6691,2.6691,2.6691,2.6691,2.5681,2.3342,0.0,0.0,0.0,0.0,0.0,0.0,0.0,0.0,0.0,0.0,0.0,0.0,0.0,0.0,0.0,0.0,0.0,0.0,0.0,0.0,0.0,0.0,0.0,0.0,0.0,0.0,0.0,0.0,0.0,0.0,0.0,0.0,0.0,0.0,0.0,0.0,0.0,0.0,0.0,0.0,0.0,0.0,0.0,0.0,0.0,0.0,0.0,0.0,0.0,0.0,0.0,0.0,0.0,0.0,0.0,0.0,0.0,0.0,0.0,0.0,0.0,0.0,0.0,0.0,0.0,0.0,0.0,0.0,0.0,0.0,0.0,0.0,0.0,0.0,0.0,0.0,0.0,0.0,0.0,0.0,0.0,0.0,0.0,0.0,0.0,0.0,0.0,0.0,0.0,0.0,0.0,0.0,0.0,0.0,0.0,0.0,0.0,0.0,0.0,0.0,0.0,0.0,2.1694,2.4642,2.6691,2.6691,2.6691,2.6691,2.6691,2.6691,2.5882,2.4058,0.0,0.0,0.0,0.0,0.0,0.0,0.0,0.0,0.0,0.0,0.0,0.0,0.0,0.0,0.0,0.0,0.0,0.0,0.0,0.0,0.0,0.0,0.0,0.0,0.0,0.0,0.0,0.0,0.0,0.0,0.0,0.0,0.0,0.0,0.0,0.0,0.0,0.0,0.0,0.0,0.0,0.0,0.0,0.0,0.0,0.0,0.0,0.0,0.0,0.0,0.0,0.0,0.0,0.0,0.0,0.0,0.0,0.0,0.0,0.0,0.0,0.0,0.0,0.0,0.0,0.0,0.0,0.0,0.0,0.0,0.0,0.0,0.0,0.0,0.0,0.0,0.0,0.0,0.0,0.0,0.0,0.0,0.0,0.0,0.0,0.0,0.0,0.0,0.0,0.0,0.0,0.0,0.0,0.0,0.0,0.0,0.0,0.0,0.0,0.0,0.0,0.0,2.1777,2.4659,2.6691,2.6691,2.6691,2.6691,2.6691,2.6691,2.6202,2.5008,0.0,0.0,0.0,0.0,0.0,0.0,0.0,0.0,0.0,0.0,0.0,0.0,0.0,0.0,0.0,0.0,0.0,0.0,0.0,0.0,0.0,0.0,0.0,0.0,0.0,0.0,0.0,0.0,0.0,0.0,0.0,0.0,0.0,0.0,0.0,0.0,0.0,0.0,0.0,0.0,0.0,0.0,0.0,0.0,0.0,0.0,0.0,0.0,0.0,0.0,0.0,0.0,0.0,0.0,0.0,0.0,0.0,0.0,0.0,0.0,2.4511,2.379,0.0,0.0,0.0,0.0,0.0,0.0,0.0,0.0,0.0,0.0,0.0,0.0,0.0,0.0,0.0,0.0,0.0,0.0,0.0,0.0,0.0,0.0,0.0,0.0,0.0,0.0,0.0,0.0,0.0,0.0,0.0,0.0,0.0,0.0,0.0,0.0,0.0,0.0,0.0,0.0,2.2485,2.4928,2.6691,2.6691,2.6691,2.6691,2.6691,2.6691,2.6032,2.4482,2.4517,0.0,0.0,0.0,0.0,0.0,0.0,0.0,0.0,0.0,0.0,0.0,0.0,0.0,0.0,0.0,0.0,0.0,0.0,0.0,0.0,0.0,0.0,0.0,0.0,0.0,0.0,0.0,0.0,0.0,0.0,0.0,0.0,0.0,0.0,0.0,0.0,0.0,0.0,0.0,0.0,0.0,0.0,0.0,0.0,0.0,0.0,0.0,0.0,0.0,0.0,0.0,0.0,0.0,0.0,0.0,0.0,0.0,0.0,0.0,2.6284,2.5759,0.0,0.0,0.0,0.0,0.0,0.0,0.0,0.0,0.0,0.0,0.0,0.0,0.0,0.0,0.0,0.0,0.0,0.0,0.0,0.0,0.0,0.0,0.0,0.0,0.0,0.0,0.0,0.0,0.0,0.0,0.0,0.0,0.0,0.0,0.0,0.0,0.0,0.0,0.0,0.0,2.2605,2.5012,2.6624,2.6401,2.659,2.6624,2.6367,2.659,2.6337,2.5471,2.4914,0.0,0.0,0.0,0.0,0.0,0.0,0.0,0.0,0.0,0.0,0.0,0.0,0.0,0.0,0.0,0.0,0.0,0.0,0.0,0.0,0.0,0.0,0.0,0.0,0.0,0.0,0.0,0.0,0.0,0.0,0.0,0.0,0.0,0.0,0.0,0.0,0.0,0.0,0.0,0.0,0.0,0.0,0.0,0.0,0.0,0.0,0.0,0.0,0.0,0.0,0.0,0.0,0.0,2.7001,2.7051,2.6382,2.7531,2.8516,2.927,2.8893,2.832,2.7587,2.6538,0.0,0.0,0.0,0.0,0.0,0.0,0.0,0.0,0.0,0.0,0.0,0.0,0.0,0.0,0.0,0.0,0.0,0.0,0.0,0.0,0.0,0.0,2.3846,2.4092,2.5309,2.6328,2.6168,0.0,0.0,0.0,0.0,0.0,0.0,0.0,0.0,0.0,0.0,0.0,2.29,2.5146,2.6539,2.6139,2.647,2.6556,2.6156,2.6401,2.6556,2.6419,2.5226,2.4527,0.0,0.0,0.0,0.0,0.0,0.0,0.0,0.0,0.0,0.0,0.0,0.0,0.0,0.0,0.0,0.0,0.0,0.0,0.0,0.0,0.0,0.0,0.0,0.0,0.0,0.0,0.0,0.0,0.0,0.0,0.0,0.0,2.7051,2.7923,0.0,0.0,0.0,0.0,0.0,0.0,0.0,0.0,0.0,0.0,0.0,0.0,0.0,2.5527,2.648,2.7911,2.8948,2.9665,3.2,3.307,3.296,3.3604,3.3976,3.4071,3.3714,0.0,2.9042,2.8166,0.0,0.0,0.0,0.0,0.0,0.0,0.0,0.0,0.0,0.0,0.0,0.0,0.0,0.0,0.0,0.0,0.0,0.0,0.0,0.0,0.0,0.0,2.7592,2.7301,2.7927,2.874,2.9343,2.7083,2.5106,2.5546,2.5133,2.4109,0.0,0.0,0.0,0.0,0.0,0.0,2.4713,2.5967,2.6691,2.6607,2.6657,2.6657,2.6624,2.6297,2.5872,2.5449,2.5644,2.4933,2.3077,2.4178,0.0,0.0,0.0,0.0,0.0,0.0,0.0,0.0,0.0,0.0,0.0,0.0,0.0,0.0,0.0,0.0,0.0,0.0,0.0,0.0,0.0,0.0,0.0,0.0,0.0,0.0,0.0,0.0,0.0,2.4732,2.5926,2.7265,2.6708,2.5829,0.0,0.0,0.0,0.0,0.0,0.0,0.0,0.0,0.0,2.739,2.7884,2.8998,3.0809,3.1407,3.2114,3.2955,3.4262,3.4641,3.4225,3.5252,3.545,3.5002,3.4835,3.3932,3.2391,3.0352,2.8727,2.7512,0.0,0.0,0.0,0.0,2.6695,2.6259,2.7502,2.7684,2.7341,2.7235,0.0,0.0,0.0,0.0,0.0,0.0,0.0,2.4582,2.6012,2.6893,2.7623,2.83,2.8738,2.9194,2.9939,2.8912,2.7771,2.7524,2.654,2.4974,2.2519,2.2599,0.0,0.0,0.0,2.4974,2.6225,2.6907,2.7382,2.7517,2.7431,2.7382,2.7517,2.7621,2.7401,2.6697,2.6367,2.5841,2.5092,2.4879,2.4318,0.0,0.0,0.0,0.0,0.0,0.0,0.0,0.0,0.0,0.0,0.0,0.0,0.0,0.0,0.0,0.0,0.0,0.0,0.0,0.0,0.0,0.0,0.0,0.0,0.0,0.0,0.0,0.0,2.489,2.5696,2.6702,2.7201,2.6675,0.0,0.0,0.0,0.0,0.0,0.0,2.7198,2.7659,2.8775,3.0679,3.1271,3.2588,3.4712,3.4613,3.487,3.5533,3.6381,3.6354,3.5613,3.6795,3.6961,3.6353,3.6074,3.5844,3.5422,3.2606,3.1172,3.0644,2.9101,2.887,2.9375,2.9268,2.9388,2.9678,3.0571,3.0932,3.0914,3.0555,3.0043,2.9377,2.8443,0.0,0.0,0.0,0.0,2.5761,2.7638,2.7977,2.8078,2.9042,2.955,2.9922,3.0311,3.0091,2.9715,2.9341,2.823,2.6495,2.3893,2.4319,0.0,2.3003,2.4535,2.6196,2.7098,2.7479,2.7715,2.7896,2.7755,2.7732,2.7912,2.8174,2.8075,2.7458,2.687,2.6631,2.6775,2.5916,2.5483,2.5443,0.0,0.0,0.0,0.0,0.0,0.0,0.0,0.0,0.0,0.0,0.0,0.0,0.0,0.0,0.0,0.0,0.0,0.0,0.0,0.0,0.0,0.0,0.0,0.0,0.0,0.0,0.0,0.0,0.0,2.6981,2.8307,0.0,0.0,0.0,0.0,2.764,2.7755,2.9159,3.2352,3.1833,3.2602,3.5103,3.4917,3.5223,3.6193,3.6625,3.6889,3.7027,3.9392,4.007,3.9242,3.984,4.0067,3.9965,3.8951,3.8083,3.7165,3.4679,3.3164,3.2394,3.1549,3.1237,3.1256,3.1274,3.1744,3.2515,3.3303,3.3623,3.3468,3.2716,3.0939,2.903,2.8554,2.7585,0.0,0.0,2.7706,2.7858,2.8704,2.9939,3.0818,3.0192,3.1106,3.1935,3.1275,3.0023,2.9448,3.0818,3.0425,2.9319,2.7378,0.0,2.5878,2.5244,2.5249,2.5773,2.7045,2.7221,2.7237,2.7227,2.7237,2.7237,2.7227,2.68,2.6494,2.6463,2.6952,2.7021,2.6548,2.7537,2.7268,2.5528,2.6712,0.0,0.0,0.0,0.0,0.0,0.0,0.0,0.0,0.0,0.0,0.0,0.0,0.0,0.0,0.0,0.0,0.0,0.0,0.0,0.0,0.0,0.0,0.0,0.0,0.0,0.0,0.0,0.0,2.9331,3.0714,0.0,2.8824,2.9852,3.0564,3.0352,3.1872,3.3314,3.4507,3.4795,3.5244,3.5987,3.64,3.692,3.7575,3.7582,3.7866,3.8396,3.911,3.9295,3.8998,3.9734,4.0043,4.0025,3.9632,3.9313,3.8964,3.8125,3.6673,3.4908,3.4064,3.4064,3.4541,3.4541,3.4724,3.5018,3.5312,3.5404,3.5349,3.5073,3.4182,3.3203,3.3027,3.1915,3.0898,3.1671,3.127,3.0869,3.163,3.2222,3.256,3.229,3.2256,3.2246,3.1952,3.0834,2.9985,3.0517,2.9962,2.8841,2.7027,2.7498,2.7529,2.5717,2.6475,2.7566,2.8499,2.8211,2.8115,2.8578,2.8211,2.8115,2.8578,2.8434,2.811,2.7652,2.7488,2.7488,2.7664,2.7724,2.7654,2.7457,2.7891,2.6949,0.0,0.0,0.0,0.0,0.0,0.0,0.0,0.0,0.0,0.0,0.0,0.0,0.0,0.0,0.0,0.0,0.0,0.0,0.0,0.0,0.0,0.0,0.0,0.0,0.0,2.9361,3.1114,3.0989,3.2964,3.3659,3.1872,3.3199,3.4199,3.4257,3.5834,3.6863,3.7037,3.7808,3.8112,3.783,3.8525,3.8901,3.8976,3.9249,3.9378,3.9369,4.0038,4.0207,3.995,4.0565,4.0804,4.0785,4.0509,4.0399,4.0381,4.013,3.9245,3.7934,3.704,3.7195,3.7881,3.7606,3.7679,3.7881,3.7606,3.704,3.6413,3.6303,3.5699,3.5029,3.4871,3.4067,3.3252,3.3711,3.3264,3.278,3.3271,3.3592,3.3711,3.3457,3.3034,3.2662,3.2662,3.1425,3.0359,3.0606,2.9823,2.8751,2.7623,2.8459,2.8479,2.617,2.7287,2.8302,2.8121,2.8075,2.8247,2.8763,2.8357,2.8263,2.8732,2.8387,2.8121,2.8075,2.7501,2.7545,2.8331,2.7576,2.7379,2.7814,2.7814,2.7072,2.5576,0.0,0.0,0.0,0.0,0.0,0.0,0.0,0.0,0.0,0.0,0.0,0.0,0.0,0.0,0.0,0.0,0.0,0.0,0.0,0.0,0.0,0.0,0.0,2.9694,3.1156,3.224,3.2017,3.5051,3.6435,3.4603,3.5911,3.7565,3.9238,3.9392,3.9643,4.0158,4.092,4.1193,4.0834,4.1333,4.1194,4.0356,4.1617,4.1479,3.9987,4.2386,4.3118,4.2364,4.2516,4.2617,4.258,4.1767,4.1416,4.1342,4.048,4.0628,4.1292,4.0382,4.0473,4.102,4.0212,4.0432,4.095,4.0194,3.8532,3.671,3.6381,3.5304,3.4133,3.3806,3.3575,3.3474,3.3474,3.3474,3.3474,3.3474,3.3998,3.4336,3.3643,3.3457,3.344,3.344,3.1783,3.0573,3.1248,3.0324,2.9409,2.9377,2.9361,2.8719,2.6832,2.7643,0.0,2.5918,2.6782,2.761,2.7595,2.7595,2.7595,2.7625,2.6408,2.6228,2.7565,2.6964,2.7132,2.8465,2.7209,2.6541,2.6541,2.6525,2.6836,2.7457,0.0,0.0,0.0,0.0,0.0,0.0,0.0,0.0,0.0,0.0,0.0,0.0,0.0,0.0,0.0,0.0,0.0,0.0,0.0,0.0,0.0,3.0533,3.276,3.3173,3.5688,3.7668,3.8239,3.9592,4.0281,3.9758,4.0142,4.0604,4.1085,4.17,4.1984,4.1855,4.2142,4.2044,4.1461,4.1651,4.152,4.1089,4.1459,4.1433,4.099,4.1686,4.1889,4.1686,4.2308,4.2617,4.2562,4.168,4.1329,4.1311,4.1169,4.1206,4.1237,4.0394,4.0597,4.1285,4.1064,4.0891,4.07,4.0482,3.9372,3.8078,3.7968,3.702,3.5891,3.581,3.5411,3.5013,3.5013,3.5013,3.5013,3.5013,3.5165,3.5267,3.5064,3.459,3.4201,3.4201,3.259,3.1239,3.1433,3.0441,2.9403,2.8825,2.8732,2.8419,2.7443,2.7618,2.7674,2.713,2.735,2.738,2.6916,2.6856,2.7051,2.758,2.7245,2.7395,2.8263,2.8117,2.8179,2.8479,2.7725,2.73,2.73,2.6816,2.6665,0.0,0.0,0.0,0.0,0.0,0.0,0.0,0.0,0.0,0.0,0.0,0.0,0.0,0.0,0.0,0.0,0.0,0.0,0.0,0.0,0.0,0.0,3.3755,3.6542,3.8208,3.9413,4.0531,4.1628,4.2131,4.2508,4.2816,4.2871,4.3025,4.3374,4.3784,4.3714,4.2965,4.3217,4.2963,4.2114,4.243,4.2396,4.1915,4.2234,4.2234,4.1915,4.2279,4.2445,4.2464,4.2958,4.3193,4.3175,4.2656,4.2434,4.2415,4.2149,4.2205,4.2366,0.0,0.0,0.0,0.0,4.1325,4.0762,4.0762,3.9884,3.8797,3.8837,3.8152,3.7241,3.6895,3.6524,3.609,3.5707,3.5622,3.5622,3.5622,3.5622,3.5622,3.5622,3.5047,3.4573,3.4895,3.3359,3.19,3.1967,3.0916,0.0,2.9083,2.8717,2.8145,2.692,2.747,2.7799,2.723,2.7904,2.8263,2.7889,2.7844,2.7993,2.8382,2.794,0.0,0.0,0.0,2.8182,2.8107,2.781,0.0,0.0,0.0,2.741,2.8233,2.7844,0.0,0.0,2.7171,2.6632,0.0,0.0,0.0,0.0,0.0,0.0,0.0,0.0,0.0,0.0,0.0,0.0,0.0,0.0,0.0,0.0,3.7739,4.0854,4.3342,4.2443,4.2002,4.3258,4.3451,4.3739,4.4391,4.4501,4.4845,4.5545,4.5419,4.4815,4.3763,4.4097,0.0,0.0,0.0,4.3486,4.2746,4.3467,4.3467,4.2778,4.3532,4.3897,4.3897,4.3974,4.4005,4.3986,4.3893,4.3856,4.3819,4.3095,4.3231,4.3892,4.3846,4.3477,4.2903,4.24,4.1752,4.1065,4.1065,0.0,0.0,3.9231,3.8824,3.8191,3.7445,3.716,3.6837,3.5989,3.569,3.5622,3.5622,3.5622,3.5622,3.5622,3.5115,3.4793,3.547,3.408,3.2725,3.274,3.171,3.0587,2.9847,2.9146,2.8113,2.6333,2.7575,2.8278,2.7081,2.8487,2.9549,2.949,2.9475,0.0,2.9564,2.8487,2.8338,2.9609,2.8502,2.785,2.785,2.785,2.785,2.785,2.791,2.8757,3.0507,3.0582,3.0941,3.1392,2.7919,2.6901,0.0,0.0,0.0,0.0,0.0,0.0,0.0,0.0,0.0,0.0,0.0,0.0,0.0,0.0,0.0,3.6164,3.9451,4.2283,4.4061,4.4636,4.4966,4.5257,4.5235,4.5269,4.5423,4.5436,4.551,4.5665,4.5438,4.5167,4.4895,4.4562,4.4271,4.4064,4.3986,4.3868,4.3751,4.3868,4.3868,4.3751,4.3899,0.0,4.3974,4.4005,4.4005,4.3968,4.3318,4.302,4.302,4.2853,4.3005,4.3334,4.3334,4.3014,4.2562,4.2483,4.2073,4.1548,4.1548,4.071,3.9548,3.961,3.906,3.8362,3.8208,3.7627,0.0,3.6842,3.6321,3.5773,3.5773,3.5667,3.5622,3.5622,3.5504,3.5453,3.5588,3.4881,3.407,3.351,3.2777,3.1797,3.0513,2.9804,2.9265,2.8861,2.9146,2.9295,2.9026,2.934,2.937,2.8846,2.8786,2.9011,2.9535,2.934,2.952,3.0283,2.9609,2.919,2.919,2.919,2.919,2.919,2.9684,3.0118,3.0507,3.1061,3.1347,3.1452,3.0746,3.0522,0.0,0.0,0.0,0.0,0.0,0.0,0.0,0.0,0.0,0.0,0.0,3.1478,3.2433,0.0,3.7163,3.9818,4.1964,4.3759,4.5028,4.551,4.5745,4.5748,4.5726,4.5687,4.5687,4.5735,4.5684,4.551,4.54,4.5204,4.4815,4.458,4.4374,4.4192,4.4079,4.4005,4.4005,4.4005,4.4005,4.4005,4.4005,4.4005,4.4005,4.4005,4.4005,4.3986,4.3658,4.3441,4.3392,4.3167,4.3073,4.2959,4.2698,4.2386,4.2056,4.1803,4.1534,4.13,4.1363,4.092,4.0284,4.0395,4.0043,3.9554,3.9129,3.8723,3.8254,3.7803,3.7337,3.6956,3.6956,3.6847,3.6772,3.6772,3.6424,3.6052,3.5733,3.5087,3.4307,3.3314,3.2841,3.2275,3.1189,3.0761,3.0328,2.9684,2.9849,3.0043,3.0043,3.0342,3.0432,3.0103,3.0073,3.0208,3.0537,3.0552,3.0687,3.1001,3.0731,3.0552,3.0552,3.0552,3.0552,3.0552,3.0795,3.0902,3.0902,3.1187,3.1307,3.1307,3.1307,3.1366,0.0,0.0,0.0,0.0,0.0,0.0,0.0,0.0,2.9371,3.1679,3.3442,3.5224,3.7353,3.9081,4.0927,4.3237,4.4273,4.5032,4.577,4.5789,4.5715,4.5715,4.5715,4.5715,4.5715,4.5781,4.57,4.5419,4.5343,4.5104,4.4612,4.4465,4.4318,4.4091,4.4017,4.4005,4.4005,4.4005,4.4005,4.4005,4.4005,4.4005,4.4005,4.4036,4.4036,4.4036,4.4055,4.4005,4.3873,4.344,4.3014,4.26,4.218,4.1821,4.1534,4.1134,4.0965,4.0965,4.1076,4.1029,4.0935,4.1076,4.1029,4.0767,4.0117,3.976,3.9473,3.8797,3.8367,3.8108,3.8108,3.7984,3.7905,3.7905,3.7385,3.677,3.6241,3.5524,3.467,3.345,3.3084,3.2767,3.2015,3.1913,3.1465,3.0163,3.0387,3.0702,3.0702,3.1195,3.1482,3.1482,3.1482,3.1482,3.1482,3.1482,3.1482,3.1482,3.1482,3.1482,3.1467,3.1467,3.1467,3.1394,3.1336,3.1292,3.1249,3.1146,3.1102,3.1087,3.1205,3.1249,2.3139,2.3437,2.4937,2.7824,2.8602,2.9852,0.0,0.0,3.5901,3.7035,3.8646,3.9956,4.0307,4.1793,4.3269,4.4214,4.5156,4.575,4.58,4.58,4.5781,4.5781,4.5781,4.5781,4.5781,4.5791,4.5786,4.5737,4.5247,4.5044,4.5285,4.4508,4.4181,4.4438,4.4151,4.4005,4.4005,4.4005,4.4005,4.4005,4.4005,4.4005,4.4005,4.4135,4.4184,4.4153,4.3758,4.3572,4.3505,4.3051,4.2562,4.2098,4.2015,4.1692,4.1237,4.1209,4.1163,4.1163,4.1163,4.1152,4.1093,4.118,4.1041,4.0918,4.0943,4.0377,3.9681,3.9566,3.8912,3.8167,3.8167,3.8061,3.7905,3.7905,3.7841,3.7776,3.7691,3.7037,3.6241,3.5486,3.4792,3.4063,3.3381,3.3275,3.2826,3.1509,3.1317,3.1362,3.1362,3.1422,3.1482,3.1482,3.1482,3.1482,3.1482,3.1482,3.1482,3.1482,3.1482,3.1467,3.1351,3.1351,3.1278,3.1175,3.1102,3.1102,3.1102,3.1117,3.1087,3.1087,3.1501,3.1486,2.6524,2.7467,2.8967,0.0,3.2429,3.4218,3.6906,3.7906,3.8825,4.0786,4.2107,4.3081,4.3626,4.4239,4.479,4.5134,4.5533,4.5777,4.58,4.5765,4.5572,4.5104,4.5046,4.524,4.5742,4.5795,4.5727,4.5574,4.5323,4.5084,4.4905,4.4501,4.4279,4.4221,4.4158,4.4104,4.4104,4.4165,4.4177,4.4177,4.4177,4.4177,4.4177,4.4226,4.4116,4.3892,4.3623,4.3385,4.3211,4.2678,4.2324,4.2162,4.1881,4.1393,4.0858,4.1098,4.1209,4.1209,4.1272,4.1226,4.1198,4.1272,4.1198,4.1047,4.1093,4.0758,4.0388,4.0388,4.0023,3.9641,3.9576,3.9401,3.9272,3.9223,3.8824,3.8249,3.7456,3.6631,3.571,3.462,3.4147,3.3819,3.3546,3.3499,3.3305,3.2766,3.2347,3.2108,3.2108,3.1764,3.1482,3.1482,3.1482,3.1482,3.1482,3.1482,3.1482,3.1482,3.1482,3.1467,3.1409,3.1351,3.1263,3.1203,3.1442,3.1515,3.1545,3.1775,3.1938,3.1946,3.2136,3.2097,2.9044,3.0564,0.0,3.3872,3.6219,3.8354,3.9273,4.0312,4.1659,4.3609,4.4416,4.4991,4.5624,4.568,4.564,4.5693,4.569,4.5722,4.5765,4.5538,4.5156,4.4549,4.4279,4.4394,4.5027,4.5312,4.5349,4.5071,4.5189,4.5061,4.4546,4.4457,4.4308,4.4097,4.4165,4.4214,4.4214,4.4274,4.4285,4.4285,4.4285,4.4285,4.4285,4.4314,4.4128,4.3758,4.3505,4.3246,4.2941,4.2087,4.1795,4.1818,4.147,4.0858,4.0253,4.0796,4.0892,4.0707,4.1024,4.1049,4.0993,4.1356,4.1307,4.1123,4.1123,4.1029,4.0935,4.0935,4.0793,4.0648,4.032,4.0288,4.0188,3.9731,3.9437,3.8884,3.7526,3.6737,3.5895,3.4699,3.4224,3.4053,3.4053,3.41,3.4085,3.4085,3.3592,3.3111,3.2811,3.2362,3.1959,3.181,3.197,3.203,3.2063,3.2035,3.2065,3.2058,3.2047,3.2048,3.1973,3.19,3.1796,3.1735,3.196,3.2058,3.2012,3.2318,3.2489,3.2479,3.27,3.2757,2.9437,3.1025,3.2699,3.6815,3.9758,4.1873,4.2758,4.422,4.5432,4.5509,4.5547,4.5566,4.5586,4.5676,4.5693,4.5693,4.5703,4.57,4.57,4.5025,4.4504,4.4407,4.3713,4.3245,4.3274,4.4109,4.4495,4.4168,4.4628,4.4815,4.4617,4.4364,4.4226,4.4285,4.4285,4.4285,4.4285,4.4285,4.4285,4.4285,4.4285,4.4285,4.4314,4.4373,4.4248,4.3955,4.3456,4.3032,4.26,4.1227,4.0651,4.0634,4.0651,4.0092,3.9445,4.0285,4.0092,3.9498,4.0253,4.0429,4.0464,4.1314,4.1408,4.1209,4.1209,4.1152,4.1047,4.0935,4.0793,4.0534,3.9817,3.9952,3.9969,3.8668,3.9348,3.9901,3.8525,3.8101,3.7684,3.6948,3.6087,3.5444,3.5444,3.5529,3.5627,3.5627,3.5211,3.456,3.3606,3.344,3.3169,3.2571,3.3076,3.3421,3.3456,3.3431,3.3425,3.3459,3.3457,3.3396,3.3276,3.3261,3.3096,3.2751,3.2766,3.2658,3.2514,3.2475,3.2491,3.2522,3.32,3.3453,3.0641,3.3949,3.7488,4.0604,4.2854,4.4547,4.5432,4.6067,4.6297,4.572,4.4259,4.3085,4.3085,4.2621,4.2444,4.3006,4.4042,4.4999,4.561,4.5475,4.4877,4.3751,4.3361,4.2753,4.1647,4.2825,4.379,4.4091,4.4111,4.4223,4.4527,4.4335,4.4214,4.4244,4.4314,4.4373,4.4373,4.443,4.443,4.443,4.443,4.443,4.4411,4.3687,4.3386,4.3419,4.2468,4.2129,4.2187,4.1729,4.1556,4.1556,4.1556,4.07,3.9529,3.9835,3.9111,3.8153,3.9294,4.0024,4.0541,4.0762,4.1095,4.1318,4.1318,4.1198,4.1093,4.1047,4.0935,4.0745,4.0419,4.0436,4.032,3.9262,3.9385,3.9332,3.7806,3.7456,3.716,3.643,3.6037,3.5797,3.5797,3.5846,3.5894,3.5894,3.5412,3.4744,3.394,3.3743,3.3622,3.3381,3.3472,3.3487,3.3484,3.3478,3.3493,3.3501,3.3469,3.3453,3.3436,3.3193,3.303,3.2944,3.3122,3.3245,3.3129,3.3561,3.3509,3.2976,3.3224,3.3325,3.4257,3.77,4.095,4.4105,4.5932,4.6951,4.6913,4.7124,4.6836,4.5066,4.2912,4.1143,4.0546,3.9988,3.9681,3.995,4.1393,4.2929,4.4155,4.4039,4.3786,4.3655,4.338,4.2792,4.1738,4.2607,4.3316,4.3465,4.3895,4.4213,4.443,4.4325,4.4274,4.4304,4.4401,4.444,4.4468,4.4487,4.4515,4.4515,4.4524,4.4542,4.4505,4.3359,4.2847,4.2823,4.196,4.1435,4.1262,4.1239,4.102,4.079,4.079,3.9975,3.8819,3.9142,3.8415,3.7474,3.8566,3.9476,4.0264,4.0436,4.0946,4.1471,4.1426,4.1307,4.1215,4.1169,4.1059,4.0901,4.0566,4.0631,4.0451,3.9156,3.9209,3.9049,3.731,3.7131,3.7011,3.6211,3.6037,3.6037,3.6037,3.6163,3.6178,3.6178,3.5797,3.5217,3.4486,3.4424,3.4423,3.4258,3.4224,3.4328,3.431,3.4265,3.4295,3.4207,3.4215,3.42,3.4207,3.3928,3.3746,3.3695,3.3527,3.3448,3.3384,3.3753,3.3546,3.2794,3.3054,3.3042,3.9835,4.197,4.3104,4.7163,4.8759,4.8913,4.7317,4.7451,4.6971,4.3643,4.147,3.9662,0.0,3.7738,3.7565,3.6834,3.8277,4.0085,4.1758,4.1277,4.1671,4.4122,4.3732,4.3294,4.3291,4.3343,4.3111,4.2514,4.3938,4.4675,4.4296,4.4285,4.4344,4.4487,4.4487,4.4542,4.4578,4.4542,4.4515,4.4515,4.4578,4.4605,4.4568,4.3343,4.2637,4.2271,4.1776,4.0941,3.9914,3.9815,3.9349,3.8673,3.8673,3.8155,3.7494,3.8297,3.8105,3.7498,3.8068,3.8765,3.9541,4.025,4.0937,4.1534,4.1401,4.1373,4.1311,4.115,4.1122,4.0938,4.0101,4.0349,4.0268,3.8205,3.8696,3.9106,3.7115,3.7131,3.731,3.6383,3.6085,3.6085,3.6165,3.6383,3.6492,3.6492,3.6492,3.6183,3.517,3.5437,3.5589,3.5093,3.5422,3.5703,3.5739,3.5733,3.5672,3.5504,3.5504,3.5504,3.5504,3.5317,3.5104,3.4868,3.3995,3.3449,3.3252,3.3164,3.2794,3.2033,3.2701,3.2673,4.1085,4.4105,4.6913,4.8644,4.8759,4.8317,4.7894,4.649,4.4489,4.172,3.8266,3.522,3.3609,3.4293,3.5451,3.6531,3.9758,4.272,4.4393,4.4479,4.4392,4.4392,0.0,4.3993,4.3363,4.3885,4.4017,4.3412,4.3767,4.402,4.406,4.4165,4.4255,4.4344,4.4401,4.4458,4.4524,4.457,4.4578,4.4597,4.4632,4.4685,4.4602,4.2552,4.1883,4.2216,4.0348,3.9669,3.9914,3.9875,3.9807,3.9703,3.959,3.9203,3.867,3.8719,3.8272,3.7631,3.7623,3.817,3.8929,3.9564,4.0239,4.083,4.0762,4.0674,4.0464,3.9809,3.9921,3.9963,3.8832,3.901,3.8989,3.6945,3.7096,3.7374,3.6232,3.6473,3.6815,3.6476,3.6476,3.6369,3.5921,3.626,3.6662,3.6662,3.6662,3.6538,3.6183,3.6104,3.6009,3.5904,3.5915,3.591,3.594,3.591,3.5831,3.5638,3.5623,3.5638,3.5504,3.5314,3.5118,3.4861,3.4441,3.4089,3.3871,3.3197,3.2466,3.1786,3.1258,3.1039,4.497,4.7432,4.9433,5.0298,4.9856,4.8663,4.6413,4.4509,4.2047,3.7988,3.4639,3.193,3.0285,3.1636,3.3325,3.4293,3.807,4.1585,4.3643,4.3962,4.4241,0.0,4.5051,0.0,4.4446,4.5181,4.5285,4.4287,4.4224,4.4191,4.4079,4.4153,4.4244,4.4344,4.4383,4.444,4.4524,4.4267,4.4275,4.4613,4.3807,4.3683,4.4134,4.1563,4.0754,4.128,3.9571,3.8901,3.9045,3.9385,3.9387,3.9119,3.9065,3.8833,3.8582,3.8438,3.8133,3.7667,3.7559,3.7825,3.8267,3.8815,3.9529,4.0123,4.0081,3.9972,3.9851,3.9746,3.9695,3.9556,3.8877,3.8709,3.8261,3.6571,3.667,3.691,3.6115,3.638,3.6707,3.6336,3.6131,3.6017,3.5879,3.6206,3.6565,3.6815,3.6537,3.6335,3.6274,3.6276,3.6229,3.5984,3.583,3.5827,3.607,3.5676,3.54,3.5455,3.5288,3.5223,3.5374,3.5266,3.5123,3.4898,3.4661,3.4025,3.3016,3.2542,3.173,3.0689,3.0234,2.9969,4.949,5.0779,5.0991,5.1587,5.0952,4.8913,4.4047,4.1989,3.9488,3.3743,3.1168,2.943,2.775,2.9525,3.1437,3.2006,0.0,3.9127,4.1912,4.2316,4.3156,4.543,4.5715,4.5746,4.58,4.6593,4.6555,4.523,4.5201,4.4972,4.4382,4.424,4.4311,4.4551,4.4468,4.4468,4.4605,4.3894,4.3806,4.4353,4.2618,4.2363,4.3284,4.0683,3.9722,4.0078,3.917,3.8438,3.7953,3.8654,3.8528,3.7899,3.7899,3.7899,3.7934,3.7899,3.7846,3.7739,3.7739,3.7685,3.7702,3.8259,3.8868,3.937,3.937,3.9359,3.941,3.9926,3.9799,3.941,3.9174,3.8631,3.7877,3.6602,3.6845,3.7145,3.6603,3.6762,3.682,3.6084,3.565,3.5543,3.5797,3.6064,3.6319,3.6716,3.6188,3.5751,3.5716,3.6104,3.6214,3.5639,3.5504,3.563,3.6014,3.5226,3.4868,3.5125,3.4759,3.4744,3.5148,3.5094,3.4927,3.4733,3.443,3.3416,3.165,3.156,3.0812,2.9394,2.9412,2.92,5.0452,5.1183,5.1568,5.1029,4.9221,4.6586,4.2874,3.9719,0.0,0.0,2.936,2.7625,2.5891,2.765,3.0562,3.416,3.7126,4.0383,4.4374,4.4985,4.5189,0.0,4.575,4.5795,4.58,4.6593,4.6908,4.6417,4.6743,4.6403,4.5164,4.4526,4.4573,4.5375,4.4853,4.4578,4.4605,4.3926,4.3296,4.271,4.2408,4.2284,4.2246,4.0727,3.9958,3.9703,3.8592,3.7989,3.7917,3.8061,3.8042,3.7967,3.7916,3.8003,3.8124,3.7969,3.7916,3.7949,3.7881,3.781,3.7774,3.8374,3.8652,3.8738,3.8602,3.9,3.9241,3.8157,3.8589,3.8898,3.6911,3.6901,3.7199,3.6156,3.6622,3.7402,3.7845,3.7508,3.6973,3.6265,3.6151,3.59,3.4786,3.5477,3.6032,3.566,3.5373,3.509,3.4652,3.5346,3.5608,3.5101,3.5521,3.5618,3.5167,3.5263,3.5241,3.5049,3.514,3.514,3.5027,3.4463,3.3979,3.3726,3.281,3.2024,3.1511,3.0542,2.9827,2.9273,2.8571,2.8007,5.176,5.2279,5.2375,5.1529,4.9086,4.5547,4.0335,0.0,0.0,0.0,2.696,2.6097,2.5258,2.7178,2.9723,3.222,3.5584,3.9026,4.242,4.372,4.4675,4.5591,4.5735,4.5746,4.5791,4.6984,4.7484,4.6761,4.7551,4.7365,4.5706,4.4774,4.4718,4.5621,4.4983,4.4425,4.4089,4.3309,4.2716,4.2347,4.1278,4.1084,4.1523,3.9946,3.9252,3.9294,3.8365,3.7985,3.8056,3.8056,3.8072,3.8088,3.8072,3.814,3.8241,3.814,3.8122,3.8138,3.8036,3.7898,3.7864,3.8151,3.811,3.7942,3.7904,3.8111,3.828,3.7948,3.809,3.8068,3.7032,3.706,3.7188,3.6451,3.6863,3.7466,3.7636,3.7034,3.6345,3.595,3.5448,3.501,3.4707,3.5109,3.5443,3.557,3.5197,3.4793,3.4638,3.4905,3.4908,3.4538,3.4845,3.5049,3.5039,3.4809,3.4701,3.4833,3.4482,3.4418,3.4802,3.39,3.3412,3.3423,3.2886,3.2023,3.0839,3.0179,2.9543,2.8984,2.8057,2.768,5.2414,5.2933,5.2722,5.1856,4.8971,4.4605,3.7969,3.4468,0.0,2.622,2.5149,2.5111,2.5095,2.6719,2.8517,0.0,3.3149,3.6635,3.9964,4.1956,4.372,4.5481,4.6015,0.0,4.6074,4.7612,4.826,4.7393,4.8015,4.7669,4.5884,4.5247,4.5142,4.5679,4.502,4.429,4.3623,4.2759,4.2177,4.1886,4.0231,3.9943,4.0829,3.9277,3.8733,3.9008,3.8423,3.8219,3.8289,3.8241,3.8225,3.8207,3.8241,3.8274,3.8322,3.8322,3.8322,3.8289,3.8186,3.807,3.7916,3.7934,3.7685,3.7466,3.7449,3.7516,3.7671,3.8135,3.7978,3.7689,3.7778,3.7655,3.7426,3.7144,3.7519,3.7844,3.7557,3.6731,3.5957,3.5762,3.487,3.432,3.4755,3.4775,3.4878,3.5401,3.4931,3.4579,3.4719,3.4579,3.4314,3.4115,3.4295,3.4548,3.4794,3.4258,3.4016,3.4426,3.3632,3.3486,3.4174,3.3163,3.2598,3.2646,3.2529,3.1559,2.9861,2.9802,2.9296,2.8516,2.7763,2.7448,5.1376,5.2029,5.1818,5.101,4.7644,4.297,3.6988,0.0,3.0552,2.6105,2.5149,2.5111,2.5095,2.524,2.6426,2.9664,0.0,3.3884,3.9669,4.194,4.3686,4.55,0.0,0.0,4.6973,4.84,4.9382,4.9338,4.8316,4.703,4.5536,4.6177,4.6304,4.5716,4.51,4.4392,4.3623,4.2872,4.1721,4.0224,4.003,3.9908,3.983,3.9594,3.9389,3.9152,3.8781,3.864,3.8658,3.8401,3.8307,3.8307,3.8368,3.8401,3.8382,3.8382,3.8382,3.8401,3.8322,3.8204,3.8068,3.8018,3.7828,3.7577,3.7631,3.8076,3.8391,3.7881,3.8167,3.8516,3.8156,3.7821,3.7696,3.8135,3.879,3.9228,3.8834,3.7682,3.6671,3.6248,3.553,3.4826,3.426,3.4578,3.4752,3.4477,3.418,3.4046,3.4298,3.4248,3.4147,3.4097,3.4575,3.4563,3.3898,3.3844,3.3722,3.3549,3.3208,3.2937,3.2711,3.1935,3.1108,3.0233,2.9847,2.9229,2.8396,2.8737,2.859,2.8,2.7655,2.6935,5.0356,5.1529,5.1587,5.024,4.5932,4.0873,3.6507,0.0,2.861,2.5779,2.5171,2.5145,2.5107,2.5076,2.5494,2.6852,0.0,0.0,3.3834,3.7141,4.0242,4.3006,4.5329,4.6752,4.6923,4.8053,4.8728,4.8585,4.7984,4.7251,4.6477,4.5781,4.5547,4.5875,4.4751,4.3729,4.2896,4.2139,4.1176,3.9996,4.0036,4.0036,3.9933,3.9743,3.959,3.947,3.9186,3.8943,3.8759,3.867,3.8554,3.8368,3.8382,3.8415,3.8478,3.8478,3.8528,3.8578,3.8465,3.8336,3.8204,3.8219,3.8052,3.7863,3.7828,3.799,3.8241,3.8474,3.867,3.8881,3.921,3.9498,3.975,3.9895,4.007,3.9975,3.9256,3.7878,3.6688,3.6454,3.5481,3.4626,3.4398,3.4528,3.4626,3.4448,3.4349,3.4349,3.4643,3.4448,3.4399,3.4546,3.461,3.4331,3.3452,3.3712,3.3667,3.3086,3.2276,3.2029,3.2608,3.1046,3.0129,2.994,2.958,2.9043,2.831,2.8279,2.8046,2.7688,2.7379,2.6909,4.7929,4.9798,5.0491,4.9317,4.4528,3.9335,0.0,0.0,2.7379,2.5608,2.5203,2.519,2.5137,2.5107,2.507,0.0,0.0,2.8051,3.0311,3.3662,3.7098,4.0315,4.2733,4.4578,4.5676,4.732,4.8077,4.753,4.7618,4.7391,4.6749,4.562,4.5254,4.593,4.448,4.3284,4.2412,4.1667,4.0874,4.0036,4.0077,4.0117,4.0157,3.9939,3.9857,3.9854,3.9584,3.9346,3.9117,3.898,3.8799,3.8566,3.851,3.8674,3.887,3.8664,3.8786,3.905,3.8682,3.8515,3.8437,3.8401,3.8285,3.8119,3.8054,3.8182,3.8419,3.8978,3.9336,3.9656,4.0052,4.0677,4.1096,4.0864,4.0633,4.0159,3.9083,3.7793,3.6712,3.6139,3.5214,3.4546,3.4546,3.4546,3.4594,3.4643,3.4643,3.4657,3.4695,3.4521,3.4343,3.4363,3.419,3.387,3.3337,3.3406,3.3205,3.2573,3.1458,3.1208,3.2126,3.0401,2.942,2.9411,2.9293,2.8761,2.7857,2.77,2.7541,2.7353,2.6995,2.6627,4.3547,4.6256,4.8144,4.8125,4.3682,3.8642,0.0,0.0,2.7409,2.5649,2.5243,2.5192,2.5192,2.513,2.5107,2.5103,2.5716,0.0,3.1078,3.3006,3.5032,0.0,3.9527,4.1219,4.297,4.6268,4.7794,4.6606,4.7376,4.7289,4.5881,4.5994,4.6013,4.581,4.4436,4.3284,4.2412,4.1684,4.0891,4.0117,4.0117,4.0157,4.031,4.0215,4.0233,4.027,4.0002,3.988,3.9838,3.9231,3.9008,3.8952,3.8773,3.9184,3.9822,3.9056,3.9307,3.9847,3.9013,3.8707,3.8658,3.8465,3.8382,3.8382,3.8382,3.8813,3.9278,3.9211,4.0145,4.1035,4.0452,4.0809,4.1166,4.0545,4.0254,3.9738,3.8377,3.7652,3.6734,3.5205,3.4804,3.4691,3.4691,3.4691,3.4804,3.5041,3.4994,3.4775,3.4359,3.4125,3.3751,3.3088,3.3151,3.3261,3.3397,3.2744,3.2218,3.1934,3.0972,3.0535,3.081,2.9964,2.9017,2.8037,2.8416,2.7949,2.6598,2.6899,2.6976,2.6911,2.6333,2.5925,3.8511,4.0251,4.1112,4.053,3.7228,3.3737,3.2333,2.8967,2.5967,2.5399,2.5274,2.5253,2.5222,2.5145,2.529,2.5886,2.6174,0.0,0.0,0.0,0.0,3.8584,4.2912,4.5699,4.5697,4.6208,4.6375,4.605,4.6714,4.6952,4.6512,4.6383,4.6139,4.5726,4.4316,4.3434,4.3139,4.1863,4.1095,4.0846,4.0383,4.0157,4.0157,4.0234,4.0252,4.0234,4.0234,4.0001,3.9609,3.9427,3.9163,3.8873,3.8773,3.9258,3.9884,3.9146,3.9307,3.9834,3.9068,3.878,3.8689,3.8713,3.8713,3.8683,3.8683,3.8647,3.8821,3.977,4.1159,4.2296,4.206,4.2262,4.2464,4.2175,4.1895,4.1493,4.0907,3.9557,3.8226,3.7313,3.66,3.5925,3.5258,3.5391,3.5368,3.4678,3.4521,3.4326,3.3829,3.3556,3.3403,3.3296,3.2866,3.2496,3.2343,3.1976,3.1421,3.0718,2.9468,2.9153,2.9949,2.914,2.851,2.8118,2.8528,2.8101,2.6807,2.6622,2.6349,2.6061,2.5715,2.5448,0.0,3.6072,3.7025,3.6479,3.3781,0.0,0.0,2.7766,2.5303,2.5303,2.5303,2.5293,2.5243,2.5182,2.531,2.5865,2.5929,2.656,0.0,0.0,0.0,3.843,4.3181,4.5874,4.5062,4.5433,4.5746,4.5805,4.651,4.6908,4.6769,4.6646,4.623,4.5421,4.3901,4.3099,4.3113,4.1544,4.0775,4.0813,4.0404,4.0196,4.0177,4.0289,4.0326,4.0309,4.0396,4.0233,0.0,3.9664,3.9402,3.9119,3.8921,3.9349,3.9958,3.9206,3.9379,3.9909,3.9187,3.8881,3.884,3.891,3.8892,3.8822,3.878,3.8985,3.9449,4.038,4.1778,4.2921,4.2613,4.285,4.3123,4.3105,4.2862,4.2523,4.193,4.0793,3.9493,3.8225,3.748,3.6589,3.5211,3.5209,3.5052,3.4201,3.404,3.3838,3.3362,3.3073,3.2865,3.2717,3.1981,3.154,3.1483,3.1252,3.0853,3.0163,2.8881,2.849,2.9282,2.8489,2.7974,2.7848,2.7964,2.7537,2.6466,2.6031,2.5631,2.5296,2.5404,2.5404,0.0,3.3131,3.4886,3.4886,3.2488,0.0,0.0,2.7643,0.0,2.5313,2.5313,2.5322,2.538,2.5282,2.5231,2.5376,2.534,2.6508,0.0,3.1642,3.3953,3.7911,4.1431,4.3104,4.2008,4.4295,4.5858,4.58,4.6654,4.7047,4.6656,4.6815,4.6315,4.5004,4.3373,4.2492,4.2481,4.0889,4.0133,4.0253,4.0215,4.0234,4.0307,4.0362,4.0432,4.0502,4.0492,4.0473,4.0422,3.9924,3.9709,3.9641,3.9137,3.942,4.0059,3.9275,3.9526,4.01,3.9285,3.9007,3.9007,3.9007,3.8968,3.8881,3.875,3.9676,4.0769,4.0954,4.1935,4.2832,4.2245,4.2629,4.3178,4.3376,4.3251,4.2831,4.1831,4.1353,4.0463,3.8168,3.754,3.6774,3.489,3.4411,3.415,3.3731,3.3554,3.3328,3.3017,3.2647,3.2195,3.161,3.082,3.0534,3.0988,3.0622,3.0292,3.0122,2.8973,2.8441,2.8781,2.8031,2.7481,2.7203,2.6866,2.6346,2.5681,2.5233,2.4886,2.4645,2.5321,2.5532,2.6398,0.0,2.7865,2.7865,2.7279,2.6685,0.0,0.0,0.0,0.0,0.0,2.5495,2.6178,2.5695,2.5644,2.7042,2.7209,2.8368,3.1808,3.7493,4.1453,4.1854,4.5451,4.6567,4.3124,4.517,4.6464,4.5838,4.6679,4.6861,4.6131,4.6656,4.6526,4.5541,4.4229,4.3175,4.2342,4.1393,4.0927,4.0967,4.0461,4.0215,4.0234,4.0289,4.0325,4.0342,4.0413,4.0306,4.012,3.9983,3.9859,3.9664,3.9383,3.9776,4.0364,3.9426,3.9536,4.01,3.9342,3.9101,3.9156,3.9156,3.9064,3.8979,3.9007,3.9522,4.0111,4.0107,4.084,4.1739,4.2142,4.2433,4.2745,4.3265,4.3359,4.3214,4.2869,4.1903,4.0726,3.953,3.8131,3.672,3.5255,3.4703,3.4164,3.3283,3.3085,3.2965,3.2702,3.2477,3.2248,3.2039,3.1359,3.0993,3.1189,2.9831,2.9076,2.9323,2.8066,2.7487,2.7816,2.749,2.7031,2.6388,2.5704,2.5389,2.5486,2.531,2.5116,2.4886,2.4889,2.4828,2.5135,2.557,2.5557,2.5557,2.5531,2.5503,2.5503,0.0,0.0,0.0,0.0,2.5648,2.6486,2.6862,2.7227,2.7856,2.9171,3.1181,3.4218,3.8917,4.2437,4.3508,4.5697,4.6506,4.4985,4.5819,4.6268,4.5829,4.6306,4.6416,4.5968,4.6319,4.6112,4.5186,4.455,4.3847,4.3038,4.1816,4.1206,4.119,4.0497,4.0176,4.0196,4.0234,4.027,4.0307,4.0362,4.0344,4.0214,4.0101,4.0002,3.9901,3.966,3.9795,4.0026,3.9474,3.9444,3.9639,3.9277,3.9229,3.9328,3.9175,3.9129,3.9129,3.9101,3.9303,3.9557,3.9549,4.0615,4.1807,4.1862,4.24,4.2981,4.3406,4.3222,4.2913,4.2894,4.1728,4.0364,3.9318,3.8077,3.6681,3.5066,3.4535,3.4056,3.3341,3.2633,3.2247,3.2309,3.189,3.1586,3.1602,3.1069,3.0812,3.1091,2.9562,2.875,2.9124,2.7827,2.7079,2.7108,2.6972,2.6666,2.6046,2.5669,2.5455,2.547,2.5371,2.5217,2.5005,2.4532,2.4389,2.5154,2.5795,2.5931,2.5679,2.5564,2.5525,2.5525,0.0,0.0,0.0,0.0,0.0,2.7105,2.8241,0.0,0.0,0.0,3.4635,3.7296,3.9441,4.1668,4.4198,4.4903,4.5536,4.6408,4.6198,4.5931,4.5805,4.5854,4.5905,4.5991,4.5994,4.5603,4.4783,4.4633,4.4385,4.3982,4.2176,4.1193,4.1022,4.0399,4.0137,4.0215,4.0215,4.0233,4.0325,4.0379,4.0449,4.0466,4.0251,4.0195,4.0233,3.9922,3.9705,3.9556,3.9458,3.9324,3.9156,3.9256,3.9305,3.9264,3.8989,3.8923,3.8925,3.8838,3.8838,3.8864,3.8891,4.0494,4.2038,4.1267,4.211,4.3232,4.3247,4.2765,4.2267,4.2327,4.1132,3.976,3.8734,3.7686,3.6472,3.483,3.423,3.3864,3.3579,3.2469,3.1839,3.2309,3.1657,3.115,3.1234,3.0667,3.0451,3.0869,2.9547,2.8846,2.9212,2.7971,2.7021,2.6623,2.6353,2.6165,2.601,2.587,2.5678,2.5454,2.5347,2.5093,2.4712,2.4125,2.402,2.5329,2.6681,2.7445,2.5976,2.5595,2.5576,2.5576,0.0,0.0,0.0,0.0,0.0,0.0,2.9021,2.911,0.0,0.0,3.8444,4.1643,4.4795,4.6431,4.5509,4.737,4.7659,4.4968,4.6031,4.6577,4.5789,4.5786,4.5835,4.5917,4.5972,4.5956,4.5852,4.4928,4.4395,4.4322,4.2475,4.1113,4.0267,4.0134,4.0138,4.0196,4.0196,4.0271,4.0379,4.0449,4.0502,4.0502,4.046,4.0438,4.0406,3.9964,3.9816,3.9772,3.9331,3.9283,3.9469,3.9577,3.9083,3.8415,3.8464,3.7989,3.736,3.7413,3.7413,3.7427,3.7497,3.9107,4.0597,3.9686,4.0677,4.186,4.1773,4.1693,4.1649,4.157,4.0457,3.9472,3.9546,3.7432,3.565,3.5729,3.4459,3.3476,3.3632,3.3277,3.324,3.3876,3.324,3.2732,3.2678,3.1433,3.0707,3.0869,2.9546,2.8891,2.9333,2.8322,2.7344,2.664,2.5279,2.503,2.5994,2.4893,2.4495,2.4837,2.4697,2.4281,2.3542,2.3283,2.3211,2.5368,2.619,2.6837,2.6973,2.7698,2.841,0.0,0.0,0.0,0.0,0.0,0.0,0.0,0.0,3.3064,3.7841,3.8331,3.9122,4.1986,4.2996,4.3782,4.4776,4.5599,4.6018,4.577,4.6124,4.619,4.5795,4.5786,4.5827,4.5899,4.5522,4.5528,4.6037,4.5122,4.4361,4.3819,4.2879,4.1884,4.0807,4.0347,4.0138,4.0215,4.0196,4.0252,4.0362,4.0415,4.0485,4.0502,4.0515,4.0492,4.0489,4.0302,4.0157,4.0022,3.966,3.9196,3.8777,3.8936,3.8413,3.7718,3.815,3.8056,3.7756,3.7784,3.7784,3.7633,3.6779,3.8158,3.9647,3.8827,3.9806,4.0989,4.0942,4.0617,4.0486,4.0896,3.9813,3.8801,3.8979,3.758,3.6466,3.6708,3.5609,3.4641,3.447,3.3711,3.3141,3.3173,3.2865,3.2693,3.2721,3.1796,3.1352,3.1773,3.0369,2.9018,2.7942,2.7642,2.7043,2.6,2.5295,2.5113,2.5504,2.4663,2.4215,2.421,2.4125,2.3895,2.362,2.3553,2.3486,2.5438,2.5912,2.6545,2.7898,2.8915,0.0,0.0,0.0,0.0,0.0,0.0,0.0,0.0,3.3592,0.0,4.1261,4.0482,4.0249,4.2925,4.2063,4.2247,4.5175,4.4688,4.487,4.6802,4.6236,4.5742,4.5805,4.58,4.5827,4.5906,4.5316,4.5207,4.5706,4.4928,4.4044,4.3082,4.2737,4.2101,4.113,4.0444,4.0137,4.0196,4.0215,4.0233,4.0325,4.0379,4.0449,4.0502,4.0499,4.0495,4.0489,4.0508,4.0358,4.0101,3.9774,3.9223,3.8559,3.8329,3.7839,3.7376,3.789,3.783,3.7608,3.7796,3.7743,3.737,3.6316,3.7257,3.8428,3.781,3.8833,3.9967,3.9762,3.9458,3.9377,3.9989,3.9032,3.8183,3.8583,3.781,3.7084,3.7146,3.6476,3.5644,3.4704,3.3753,3.3047,3.2674,3.249,3.2525,3.2815,3.2075,3.1685,3.1978,3.0772,2.912,2.7076,2.7303,2.7021,2.5811,2.5685,2.5678,2.5713,2.4794,2.4326,2.4441,2.4098,2.403,2.4202,2.4245,2.4166,2.5683,2.6876,2.8132,2.8268,2.7115,0.0,3.2108,3.2002,0.0,3.4729,0.0,0.0,0.0,3.5846,3.7331,3.8315,4.099,4.4056,4.7289,4.6945,4.7058,4.8904,4.7761,4.687,4.6992,4.6263,4.5786,4.5795,4.5805,4.5841,4.5905,4.5847,4.5537,4.4898,4.4042,4.3202,4.2383,4.1507,4.0822,4.0377,4.0196,4.0138,4.0196,4.0196,4.0271,4.0398,4.0449,4.0502,4.0502,4.0492,4.0489,4.0473,4.0304,4.0081,3.9827,3.9204,3.9432,3.9832,3.8369,3.7708,3.7565,3.7642,3.6502,3.5283,3.6039,3.5739,3.5287,3.5929,3.625,3.6381,3.6139,3.7303,3.8361,3.7608,3.8052,3.8644,3.8644,3.8026,3.7896,3.9384,3.7944,3.6443,3.6387,3.6255,3.5457,3.3287,3.3358,3.3709,3.3853,3.3222,3.3059,3.3807,3.246,3.115,3.0251,2.9903,2.9233,2.8071,2.8142,2.7816,2.6933,2.6175,2.6357,2.7589,2.5185,2.4711,2.6286,2.5178,2.4775,2.5115,2.5115,2.5143,2.5643,2.6915,2.8242,2.824,2.7716,0.0,0.0,3.4939,3.4889,3.5064,3.6817,0.0,0.0,0.0,4.1066,4.0703,4.3039,4.5362,4.6597,4.6455,4.646,4.7113,4.6641,4.6252,4.6252,4.5989,4.5791,4.5805,4.58,4.5827,4.5899,4.5433,4.5265,4.5541,4.4256,4.3413,4.3116,4.2138,4.1324,4.0667,4.0446,4.0353,4.0386,4.0394,4.0379,4.0396,4.0479,4.0495,4.0502,4.0492,4.0492,4.0479,4.0413,4.0304,4.0135,4.0002,3.9375,3.8508,3.7983,3.7001,3.6043,3.6463,3.6116,3.5579,3.5983,3.5889,3.5627,3.5457,3.5458,3.559,3.5985,3.6572,3.6971,3.6649,3.688,3.7298,3.7769,3.7658,3.766,3.8307,3.7738,3.7013,3.6566,3.6366,3.5489,3.321,3.3455,3.3563,3.2679,3.3067,3.3545,3.3847,3.3156,3.1974,3.0255,3.0364,2.9732,2.7903,2.8339,2.8167,2.7058,2.6702,2.6718,2.711,2.5755,2.5305,2.5888,2.5337,2.5269,2.5654,2.6185,2.6201,2.6461,2.731,2.8359,2.8906,0.0,0.0,3.5563,3.686,3.7156,3.8107,3.9094,3.9515,3.8604,0.0,0.0,4.2218,4.4328,4.604,4.6313,4.6065,4.5979,4.6241,4.5995,4.5808,4.5854,4.5819,4.5791,4.58,4.5814,4.5847,4.586,4.513,4.4963,4.5578,4.4277,4.3455,4.3179,4.2516,4.1624,4.0544,4.0599,4.0597,4.0557,4.0519,4.0476,4.0457,4.0476,4.0479,4.0502,4.0479,4.0479,4.0502,4.0515,4.0473,4.0389,4.0293,3.9397,3.8204,3.8022,3.7098,3.6116,3.6822,3.6635,3.6217,3.6539,3.6292,3.5817,3.5511,3.5299,3.53,3.6065,3.6065,3.5893,3.5893,3.6156,3.6478,3.6784,3.6822,3.6896,3.7217,3.7083,3.6757,3.6297,3.6298,3.5592,3.3282,3.3338,3.3273,3.2243,3.29,3.3446,3.3396,3.3186,3.2279,3.0362,3.05,2.9921,2.812,2.8743,2.8537,2.7086,2.7278,2.7434,2.7518,2.6531,2.6266,2.673,2.6276,2.6386,2.6981,2.73,2.7154,2.8268,2.8312,2.8739,0.0,0.0,0.0,3.7235,3.7266,3.7962,4.4851,4.2825,4.0078,4.0957,4.0421,0.0,4.1956,4.4393,4.6386,4.7188,4.6548,4.6326,4.7195,4.6536,4.5998,4.5998,4.5866,4.5814,4.5794,4.586,4.586,4.5794,4.5073,4.4696,4.4691,4.3898,4.3092,4.2303,4.2284,4.1441,3.9805,4.0529,4.081,4.069,4.0557,4.0535,4.059,4.0457,4.0432,4.0482,4.0432,4.0432,4.0518,4.0577,4.0598,4.0505,3.9777,3.9553,3.9489,3.8598,3.8257,3.8334,3.9039,3.8103,3.6829,3.7565,3.6671,3.5537,3.6208,3.5815,3.5365,3.6171,3.5787,3.519,3.519,3.5905,3.6351,3.5552,3.5321,3.5518,3.6396,3.5916,3.5393,3.5393,3.5997,3.5691,3.335,3.2872,3.2846,3.2979,3.282,3.2638,3.2514,3.2372,3.1745,3.0327,3.0079,2.9688,2.8943,2.9475,2.8997,2.7189,2.7884,2.8614,2.9295,2.7599,2.7601,2.9412,2.827,2.8242,2.9265,2.8394,2.7982,2.6403,2.8194,0.0,2.994,0.0,0.0,0.0,3.8135,0.0,0.0,4.2467,4.0976,4.1854,4.2812,4.3201,4.2451,4.4529,4.6312,4.6557,4.6326,4.6237,4.6493,4.6255,4.6073,4.6073,4.5998,4.5684,4.5073,4.4989,4.4724,4.4136,4.3892,4.3812,4.3839,4.3025,4.2461,4.2224,4.1069,4.0208,3.9728,3.9377,3.9451,3.9947,4.0463,4.0699,4.0667,4.0667,4.0617,4.0492,4.0375,4.0394,4.0492,4.0463,4.0558,4.0648,4.0424,4.0022,3.9536,3.9139,3.8595,3.797,3.7488,3.6983,3.6492,3.6147,3.5739,3.5445,3.5694,3.5147,3.4537,3.4782,3.4211,3.3722,3.428,3.4227,3.3993,3.3757,3.3705,3.3756,3.4026,3.384,3.3667,3.3697,3.4318,3.4208,3.2493,3.2582,3.2872,3.2859,3.2774,3.2675,3.2594,3.2409,3.1745,3.0387,3.0142,2.9751,2.9021,2.954,2.9347,2.8135,2.831,2.8764,2.9434,2.8409,2.839,2.9412,2.8394,2.8073,2.8376,2.7542,2.7152,2.8326,2.9737,0.0,3.2294,3.4569,3.7262,4.016,0.0,0.0,0.0,4.3629,4.2912,4.3789,4.4523,4.478,4.405,4.5272,4.63,4.63,4.6261,4.6248,4.6248,4.6184,4.6144,4.6144,4.6086,4.5679,4.4803,4.4705,4.4307,4.3451,4.3131,4.3131,4.3451,4.2636,4.2218,4.2235,4.1244,4.0402,3.9734,3.9604,3.9585,3.9696,4.0131,4.0489,4.0791,4.0791,4.0703,4.0506,4.0466,4.0438,4.0425,4.0463,4.0543,4.0588,4.0301,3.9676,3.8977,3.8909,3.8305,3.7571,3.7289,3.6999,3.6648,3.6151,3.5805,3.5553,3.5588,3.5168,3.4673,3.4334,3.3592,3.3059,3.3551,3.3338,3.2941,3.2632,3.2568,3.255,3.2559,3.2819,3.3032,3.3053,3.391,3.4116,3.26,3.2454,3.2466,3.2334,3.2282,3.2237,3.2163,3.1998,3.1483,3.0419,3.0221,2.9683,2.8591,2.9441,2.9425,2.8134,2.8374,2.8837,2.957,2.8874,2.8668,2.9007,2.8426,2.7958,2.7583,2.6786,2.6395,3.2077,3.2052,3.2147,3.6267,3.7581,0.0,4.2015,4.4524,4.6163,4.6085,0.0,4.5362,4.6143,4.5655,4.538,4.6167,4.63,4.63,4.63,4.63,4.63,4.63,4.6247,4.621,4.621,4.6072,4.5631,4.4768,4.4616,4.4167,4.321,4.2539,4.2478,4.316,4.2461,4.2088,4.2066,4.2062,4.1259,3.9682,4.0487,4.0487,3.9799,3.9754,4.0166,4.0898,4.0839,4.0703,4.0545,4.0655,4.0574,4.0358,4.0446,4.0496,4.0408,3.9598,3.8827,3.8228,3.8199,3.7721,3.724,3.7948,3.7697,3.7079,3.7021,3.645,3.5794,3.5741,3.5609,3.5311,3.4536,3.3624,3.2931,3.3015,3.2938,3.2667,3.1951,3.1792,3.1809,3.1889,3.2471,3.3005,3.3093,3.4272,3.4706,3.3296,3.2355,3.1747,3.1626,3.1614,3.1557,3.1418,3.1355,3.1006,3.0257,3.0151,2.9443,2.7915,2.9104,2.916,2.7575,2.8092,2.8774,2.9588,2.8858,2.8423,2.8292,2.8217,2.7734,2.6897,2.6075,2.5702,2.9116,3.1546,0.0,3.6713,3.9828,4.2877,4.4972,4.5363,4.509,4.4403,4.521,4.6072,4.6267,4.615,4.6069,4.6261,4.63,4.63,4.63,4.63,4.63,4.63,4.629,4.6273,4.6273,4.5605,4.4801,4.3923,4.3186,4.237,4.1488,4.1293,4.1296,4.1506,4.1292,4.0882,4.0276,4.0256,3.9765,3.8773,3.8961,3.9318,3.9825,4.0487,4.0883,4.1058,4.0926,4.0885,4.0887,4.0751,4.0692,4.061,3.987,4.0034,4.0466,3.8934,3.8691,3.9032,3.8419,3.8083,3.7881,3.7489,3.7214,3.6903,3.6326,3.6039,3.5891,3.586,3.531,3.4706,3.4562,3.3375,3.2382,3.308,3.2156,3.1097,3.0971,3.096,3.1165,3.1853,3.1588,3.1674,3.3014,3.3393,3.3412,3.3072,3.1891,3.1195,3.1618,3.1692,3.1388,3.0643,3.1092,3.0648,2.8676,2.9074,2.8979,2.795,2.8044,2.7981,2.7578,2.7661,2.807,2.8812,2.7517,2.7043,2.7533,2.6857,2.6411,2.6191,2.5335,2.4947,3.0,0.0,0.0,3.8166,0.0,4.3414,4.4758,4.5031,4.4875,4.4422,4.5382,4.6163,4.5753,4.5675,4.5539,4.5129,4.5402,4.5675,4.5675,4.6046,4.63,4.63,4.5925,4.5691,4.5691,4.4865,4.3952,4.3091,4.2574,4.1894,4.0996,4.0955,4.0951,4.101,4.0968,4.0746,4.032,4.033,4.0131,3.9741,3.9739,3.998,4.0448,4.0883,4.1103,4.1103,4.1025,4.0981,4.0957,4.0874,4.081,4.0706,4.0211,4.0319,4.059,3.9306,3.9112,3.9321,3.807,3.7649,3.7537,3.6687,3.6445,3.6404,3.597,3.5582,3.5284,3.5287,3.4627,3.3844,3.3493,3.2711,3.2008,3.205,3.1356,3.0925,3.1768,3.1641,3.1499,3.1957,3.1991,3.198,3.2084,3.1996,3.2009,3.2367,3.1472,3.0847,3.11,3.1128,3.0936,3.0443,3.0733,3.0336,2.8754,2.9004,2.8698,2.7401,2.798,2.7967,2.7116,2.7478,2.7809,2.8026,2.6915,2.6477,2.676,2.631,2.585,2.5377,2.4945,2.4726,3.1336,0.0,3.4273,3.9724,4.1616,0.0,4.3466,4.4036,4.4406,4.4719,4.546,4.5851,4.5129,4.4875,4.4543,4.3821,4.4309,4.4777,4.4774,4.5398,4.5847,4.5847,4.5219,4.4786,4.4786,4.3992,4.3183,4.2461,4.2261,4.185,4.1058,4.1021,4.1011,4.1015,4.1152,4.1094,4.08,4.1087,4.1101,4.0882,4.1037,4.1167,4.1304,4.1153,4.1109,4.1097,4.1096,4.1037,4.0945,4.0994,4.0921,4.0754,4.0645,4.0694,4.071,3.9733,3.9471,3.9353,3.7618,3.7035,3.6914,3.6018,3.5784,3.5839,3.5638,3.512,3.4574,3.4426,3.3866,3.3151,3.2475,3.2153,3.1864,3.1276,3.0953,3.1159,3.2556,3.2452,3.2124,3.2287,3.296,3.308,3.1685,3.1154,3.1187,3.1934,3.1274,3.0661,3.0521,3.0524,3.0401,3.0107,3.0308,2.9948,2.8749,2.892,2.8345,2.6587,2.7906,2.807,2.6594,2.7285,2.756,2.7285,2.6555,2.6206,2.6223,2.6223,2.5849,2.5186,2.5246,2.5156,2.8693,0.0,3.7175,0.0,4.1096,4.1634,0.0,0.0,4.2045,0.0,4.4563,4.5148,4.5012,4.4387,4.384,4.3723,4.3801,4.3876,4.3868,4.3966,4.4044,4.4044,4.3942,4.3864,4.3864,4.3095,4.2534,4.2407,4.1707,4.1214,4.1089,4.1089,4.1096,4.1097,4.1763,4.1439,3.9961,4.1405,4.1405,3.998,4.0745,4.1475,4.2119,4.1427,4.1095,4.1095,4.1111,4.1096,4.1061,4.1078,4.1074,4.0964,4.0168,4.0305,4.0774,3.9083,3.8956,3.9363,3.7677,3.7027,3.6805,3.6037,3.5765,3.559,3.4886,3.4636,3.4433,3.3691,3.3387,3.3278,3.318,3.2569,3.2169,3.2791,3.1807,3.0771,3.1007,3.1562,3.2245,3.2988,3.3847,3.4335,3.4056,3.279,3.2109,3.2892,3.1697,3.0663,3.0602,3.0591,3.0009,2.8493,2.9732,2.9396,2.6266,2.7398,2.7499,2.5699,2.6431,2.6865,2.6676,2.6791,2.6834,2.6781,2.5842,2.5669,2.6284,2.6284,2.6579,2.7142,2.7142,2.6715,2.9627,3.2938,3.6306,0.0,3.9481,3.982,4.111,4.1163,4.1279,4.2493,4.3136,4.35,4.3544,4.3235,4.2806,4.2318,4.265,4.2962,4.2975,4.3384,4.3697,4.3697,4.3263,4.2967,4.2967,4.2173,4.1666,4.166,4.1311,4.111,4.111,4.111,4.1103,4.1091,4.1891,4.1954,4.1214,4.1936,4.1694,4.0527,4.0876,4.1227,4.1561,4.1205,4.1057,4.1103,4.1096,4.1105,4.1105,4.1101,4.1108,4.1069,4.0645,4.073,4.0891,3.9655,3.9394,3.9412,3.7737,3.7079,3.6842,3.6057,3.5454,3.4955,3.4608,3.3861,3.3065,3.2712,3.2257,3.1846,3.189,3.1584,3.1365,3.1748,3.1255,3.0684,3.0656,3.1734,3.2994,3.3856,3.3547,3.328,3.3697,3.2383,3.1538,3.2341,3.1424,3.0658,3.0655,3.0614,3.0126,2.8859,2.9906,2.9472,2.6432,2.7362,2.7327,2.552,2.6685,2.7011,2.6069,2.6999,2.7287,2.6708,2.6227,2.6131,2.6469,2.6931,2.7279,2.7552,2.7139,2.666,0.0,0.0,3.3897,3.6632,3.7486,3.7973,0.0,0.0,4.0714,4.1538,4.1807,4.1935,4.1958,4.2026,4.1869,4.1205,4.1654,4.2064,4.2061,4.2627,4.3037,4.3037,4.2467,4.2069,4.2069,4.1486,4.11,4.1095,4.1097,4.111,4.111,4.111,4.111,4.111,4.1877,4.2208,4.2007,4.2003,4.1917,4.173,4.1246,4.1129,4.1322,4.1093,4.1035,4.1085,4.109,4.1105,4.11,4.1101,4.1108,4.1104,4.1108,4.0971,4.072,4.0086,3.9804,3.9541,3.8034,3.744,3.7171,3.611,3.5185,3.4393,3.3942,3.2947,3.1936,3.1799,3.1258,3.0734,3.0778,3.0748,3.0704,3.0704,3.0683,3.0777,3.1169,3.215,3.3268,3.4382,3.3363,3.2522,3.3144,3.2001,3.1201,3.1811,3.1139,3.0595,3.0694,3.066,3.0206,2.9101,3.0023,2.9549,2.6601,2.7621,2.7542,2.5522,2.7304,2.7651,2.5932,2.7359,2.7869,2.7128,2.7016,2.7051,2.7258,2.7646,2.7888,2.7953,2.7209,2.6644,0.0,2.8919,0.0,3.3763,3.5215,3.6502,0.0,0.0,3.9893,4.0713,4.0859,4.0859,4.08,4.1007,4.1147,4.1108,4.1147,4.1163,4.1175,4.1211,4.123,4.123,4.1191,4.1172,4.1172,4.112,4.1106,4.1095,4.1097,4.111,4.111,4.111,4.111,4.111,4.1883,4.1922,4.1169,4.1149,4.1935,4.3455,4.1783,4.1429,4.2206,4.1387,4.1008,4.1013,4.1069,4.11,4.1094,4.1104,4.1104,4.1094,4.1104,4.062,3.9942,3.9764,3.9785,3.9743,3.8694,3.8335,3.8045,3.6289,3.5115,3.4099,3.2432,3.1926,3.1753,3.0987,3.0773,3.0789,3.0717,3.0697,3.069,3.0707,3.0651,3.106,3.2722,3.2489,3.2497,3.4264,3.3848,3.3278,3.3361,3.2532,3.1845,3.1896,3.1106,3.0549,3.0668,3.0704,3.0036,2.8342,2.9741,2.9327,2.5678,2.7752,2.8136,2.5564,2.7874,2.8589,2.6905,2.7714,2.8205,2.8223,2.8025,2.8294,2.906,2.8268,2.8274,2.9007,2.8196,2.7346,0.0,0.0,0.0,3.1325,3.2935,3.4353,3.5804,3.7405,3.8799,3.9623,4.025,4.0648,4.0572,4.0722,4.0843,4.0843,4.0843,4.0867,4.0961,4.0967,4.1003,4.1081,4.1104,4.1104,4.1104,4.1105,4.1096,4.11,4.1089,4.1097,4.1103,4.1097,4.111,4.111,4.189,4.2163,4.187,4.2428,4.2149,4.1098,4.1033,4.0877,4.0643,4.0896,4.0992,4.1003,4.1032,4.1033,4.1038,4.1078,4.109,4.1094,4.1097,4.0552,3.9785,3.9802,3.9414,3.8751,3.7981,3.7214,3.6413,3.5281,3.389,3.255,3.1934,3.1365,3.0874,3.0595,3.0518,3.0546,3.0519,3.0574,3.0645,3.0637,3.0621,3.0914,3.2055,3.2094,3.2266,3.346,3.3006,3.2606,3.3232,3.2039,3.1215,3.1814,3.1052,3.0501,3.0673,3.0664,2.9965,2.8214,2.9691,2.9537,2.6409,2.8076,2.8418,2.635,2.8197,2.8592,2.6961,2.7746,2.8491,2.9117,2.8473,2.8515,2.9335,2.9588,2.9802,2.9977,2.9176,2.829,2.696,0.0,0.0,0.0,3.0923,3.2239,3.4193,3.6142,3.7877,3.893,3.9892,4.0511,4.0466,4.0521,4.0597,4.0688,4.071,4.0722,4.0827,4.0835,4.0867,4.0967,4.0972,4.0983,4.1022,4.1022,4.1042,4.109,4.1106,4.1109,4.1095,4.1103,4.1097,4.1097,4.187,4.2318,4.2325,4.2604,4.1877,4.0175,4.0142,3.9984,3.9715,4.0299,4.0714,4.096,4.0983,4.1006,4.0996,4.105,4.108,4.1074,4.0736,4.0253,3.9726,3.9453,3.8943,3.8283,3.7487,3.6536,3.548,3.4341,3.2921,3.1623,3.1316,3.082,3.0342,3.0362,3.0372,3.0402,3.037,3.0402,3.0433,3.0423,3.0644,3.0981,3.1518,3.1535,3.1727,3.2596,3.2064,3.1665,3.229,3.134,3.0714,3.1347,3.0829,3.043,3.0618,3.0599,2.9904,2.8144,2.9648,2.9622,2.6771,2.8493,2.8857,2.6795,2.8628,2.8897,2.6951,2.771,2.8626,2.9557,2.8651,2.873,2.9863,3.0152,3.0257,3.015,2.9022,2.7988,0.0,0.0,0.0,0.0,0.0,0.0,3.4334,3.5974,3.7113,3.8668,3.9744,4.0381,4.0329,4.031,4.0377,4.0653,4.0699,4.0699,4.0679,4.0679,4.071,4.071,4.071,4.0742,4.0875,4.0887,4.0954,4.1085,4.11,4.1106,4.1095,4.1095,4.1095,4.1095,4.1877,4.2305,4.2323,4.1455,4.1,4.0948,3.9225,3.8832,3.9673,3.9688,4.0138,4.0917,4.0974,4.0992,4.0996,4.1003,4.1023,4.0957,4.0008,3.9735,3.9722,3.8717,3.8428,3.8409,3.7336,3.6409,3.5406,3.3481,3.2263,3.1403,3.0547,3.0248,3.0209,3.0275,3.0351,3.037,3.0309,3.0196,3.0092,3.0089,3.0676,3.1253,3.1259,3.0895,3.0838,3.1709,3.1196,3.0613,3.0595,3.0549,3.05,3.0511,3.0378,3.0344,3.0482,3.0501,2.9834,2.8086,2.9562,2.9501,2.6642,2.8946,2.9446,2.6804,2.9182,2.955,2.6981,2.7725,2.8604,2.9476,2.8559,2.8934,3.0719,2.9893,2.9503,2.9452,2.7706,2.6408,2.5522,0.0,0.0,0.0,0.0,0.0,2.967,3.2987,3.594,3.6343,3.8569,4.0468,4.0452,4.0417,4.0396,4.0473,4.0441,4.0438,4.0549,4.0563,4.0597,4.0699,4.071,4.0701,4.0742,4.0761,4.081,4.0948,4.0967,4.1,4.1081,4.1096,4.11,4.1097,4.1933,4.1777,4.0532,4.0889,4.0136,3.8273,3.8403,3.8564,3.8774,3.9404,4.0163,4.098,4.0984,4.0972,4.0921,4.0933,4.0545,3.9972,4.0374,3.9761,3.8721,3.9199,3.8549,3.7315,3.6445,3.5074,3.351,3.2343,3.1302,3.0466,3.0166,3.006,3.0045,3.003,3.003,3.0045,3.0085,3.0018,2.9969,3.0013,3.0185,3.0357,3.0361,3.0214,3.042,3.1546,3.1099,3.053,3.0577,3.046,3.0394,3.049,3.034,3.0285,3.0482,3.0501,2.9825,2.8086,2.9016,2.8822,2.6524,2.8343,2.8965,2.7505,2.9438,3.0025,2.8669,2.8301,2.8557,2.9487,2.7957,2.7725,2.8855,2.9288,2.9496,2.9453,2.7663,2.6663,0.0,0.0,0.0,0.0,0.0,0.0,2.907,3.1712,3.437,3.6089,3.8316,4.006,4.0392,4.0432,4.0398,4.0398,4.0363,4.0381,4.0457,4.0438,4.045,4.0511,4.053,4.0563,4.0604,4.063,4.0672,4.0818,4.082,4.0874,4.1011,4.1019,4.1039,4.1109,4.1588,4.1373,4.0343,4.0123,3.9253,3.7741,3.7514,3.7578,3.7879,3.8797,3.9653,4.0474,4.0843,4.0945,4.0869,4.0896,4.0583,4.007,3.9754,3.9526,3.9349,3.9064,3.8279,3.7183,3.5782,3.4338,3.2902,3.1694,3.0902,3.0376,3.0086,2.9991,2.9943,2.9912,2.9861,2.9844,2.9869,2.9765,2.966,2.9765,3.0011,3.0222,3.033,3.0328,3.0449,3.0877,3.0535,3.0216,3.0297,3.0144,3.0042,3.0157,2.9789,2.9555,2.9737,2.9522,2.8839,2.746,2.8225,2.8104,2.6363,2.7677,2.8198,2.7179,2.8598,2.9104,2.8257,2.7782,2.8003,2.8934,2.7478,2.6982,2.7489,2.8443,2.8718,2.832,2.7258,2.6517,0.0,0.0,0.0,0.0,2.7201,0.0,3.0331,3.1245,3.2472,3.6151,3.782,3.8837,3.9572,3.9766,3.9823,3.9823,3.9976,4.0204,4.036,4.0325,4.0307,4.0307,4.0309,4.0363,4.0485,4.0481,4.0535,4.0688,4.069,4.0762,4.0874,4.0885,4.0937,4.1045,4.1064,4.0986,4.0785,3.9267,3.8462,3.8338,3.669,3.6391,3.7279,3.8118,3.8941,3.9757,4.061,4.0926,4.0818,4.074,4.0723,4.0552,3.8878,3.9228,4.0413,3.8509,3.7702,3.7259,3.5159,3.3919,3.2989,3.1485,3.0979,3.0885,3.033,3.0082,2.9956,2.9897,2.9774,2.9683,2.9663,2.9474,2.9332,2.9453,2.993,3.0426,3.0596,3.0677,3.0546,2.9948,2.9777,2.9742,2.9861,2.971,2.9604,2.9672,2.9051,2.8626,2.8784,2.8326,2.7658,2.6768,2.7499,2.7535,2.625,2.7179,2.7458,2.6545,2.7424,2.7692,2.7055,2.6865,2.7237,2.8236,2.7147,2.6516,2.6448,2.7443,2.745,2.6532,2.6525,2.6043,0.0,0.0,0.0,0.0,2.7523,0.0,2.7344,2.8962,3.0499,3.0629,3.2985,3.5059,3.5216,3.579,3.6195,3.6195,3.7447,3.886,4.0224,4.0325,4.0325,4.0379,4.0346,4.0328,4.0413,4.0362,4.0427,4.0617,4.071,4.0771,4.0749,4.0791,4.078,4.0703,4.0858,4.0232,3.879,3.8597,3.8156,3.7443,3.6391,3.6722,3.8234,3.8416,3.8942,3.9746,4.0555,4.0888,4.0801,3.9959,3.9612,3.9649,4.0075,3.953,3.8429,3.7924,3.6753,3.5234,3.3932,3.2881,3.2057,3.1669,3.1539,3.1499,3.1266,3.091,3.0433,2.9889,2.9626,2.9531,2.9454,2.939,2.9304,2.9326,2.9394,2.9465,2.9556,2.9553,2.9516,2.9434,2.9607,2.978,2.9826,2.9641,2.9551,2.9604,2.9289,2.9158,2.9406,2.9276,2.881,2.7893,2.8154,2.7865,2.6523,2.7472,2.7973,2.7606,2.8192,2.8681,2.9034,2.7492,2.7258,2.8579,2.707,2.5998,2.5484,2.6437,2.6409,2.5484,2.5503,2.5332,0.0,0.0,2.8188,2.8188,2.8188,0.0,0.0,2.8893,3.0257,3.071,3.2512,3.4114,3.4531,3.4917,3.5203,3.5203,3.6719,3.7881,3.7833,3.9306,4.0396,4.0449,4.0381,4.0363,4.0398,4.0363,4.0379,4.0485,4.0535,4.0571,4.061,4.0591,4.0623,4.0655,4.0269,3.9835,3.9395,3.8597,3.8258,3.8341,3.7455,3.7323,3.7871,3.8299,3.8675,3.9035,3.9457,3.9859,4.0167,3.9666,3.9154,3.8743,3.9108,3.8987,3.8452,3.7257,3.6122,3.5096,3.39,3.3128,3.2587,3.2238,3.209,3.2022,3.1616,3.1069,3.046,2.9794,2.9492,2.9394,2.937,2.9283,2.9218,2.924,2.9152,2.9112,2.9246,2.9243,2.9222,2.9291,2.9454,2.9532,2.9514,2.9338,2.9212,2.9214,2.8716,2.8439,2.867,2.8372,2.7811,2.6897,2.7405,2.7076,2.526,2.6578,2.7194,2.6505,2.7303,2.7916,2.8178,2.6883,2.645,2.704,2.6748,2.6371,2.594,2.6422,2.6135,2.5145,2.5145,2.5075,2.8984,2.8955,2.9007,2.9007,2.9007,2.8969,0.0,0.0,0.0,3.1435,3.2386,3.3188,3.3837,3.4066,3.4124,3.3971,3.5599,3.632,3.4671,3.7351,3.9471,3.9471,4.003,4.0281,3.9955,3.9917,4.0051,4.0396,4.0055,4.0027,4.0453,4.0427,4.0457,4.0604,3.983,3.972,4.0298,3.8877,3.8582,3.9456,3.8556,3.7851,3.7347,3.8054,3.8236,3.7996,3.8219,3.8665,3.9262,3.9478,3.9088,3.8363,3.8123,3.8304,3.8493,3.6616,3.5684,3.525,3.4168,3.3671,3.3439,3.2885,3.2582,3.2334,3.1667,3.0951,3.0224,2.9535,2.9272,2.9185,2.92,2.9112,2.9044,2.9112,2.9021,2.8897,2.8972,2.9067,2.9144,2.9026,2.9175,2.9262,2.9178,2.898,2.8815,2.8761,2.8106,2.7724,2.7919,2.7458,2.676,2.587,2.6749,2.6487,2.4226,2.5902,2.6521,2.5222,2.6294,2.6953,2.6896,2.647,2.5968,2.5317,2.647,2.6934,2.6648,2.6648,2.6208,2.5375,2.5375,2.521,2.9361,2.9238,2.9772,2.9772,2.9772,2.9583,2.8878,0.0,2.8707,2.8207,0.0,2.933,2.9425,0.0,0.0,2.9558,3.1572,3.2874,3.1886,3.4082,3.5809,3.5809,3.8523,3.9821,3.8339,3.8185,3.8802,4.03,3.9032,3.8786,4.0247,4.0377,4.0362,4.0272,4.026,3.9941,3.9272,3.9129,3.9154,3.9309,3.8382,3.7887,3.7823,3.7919,3.7527,3.6845,3.7681,3.8124,3.833,3.9162,3.9433,3.934,3.9232,3.8161,3.6587,3.6082,3.5259,3.4309,3.3852,3.3698,3.3652,3.3524,3.2902,3.2119,3.1514,3.0648,2.9733,2.9009,2.8785,2.8791,2.8839,2.8791,2.8785,2.8887,2.8929,2.8704,2.7954,2.8484,2.8887,2.8132,2.8679,2.9259,2.9112,2.8905,2.8669,2.8543,2.8308,2.8183,2.8399,2.8301,2.7871,2.6925,2.7846,2.7634,2.5385,2.7004,2.7412,2.5743,2.6711,2.7292,2.7152,2.787,2.7227,2.499,2.6559,2.7041,2.642,2.642,2.6395,2.6355,2.6355,2.5831,2.9861,3.0411,3.1219,3.0151,3.0693,3.0991,2.9109,2.9055,2.9169,2.837,0.0,0.0,0.0,0.0,0.0,0.0,3.12,3.2105,3.069,3.3214,3.5203,3.5203,3.6498,3.7526,3.7878,3.8812,3.9692,4.0422,3.9778,3.9648,4.0323,4.0308,4.0253,4.0196,4.0234,4.0062,3.968,3.9715,3.9783,3.9873,3.9477,3.8781,3.7844,3.7891,3.7387,3.6477,3.6449,3.6666,3.7126,3.7986,3.7977,3.7477,3.8063,3.7833,3.702,3.578,3.4975,3.4461,3.4284,3.4117,3.3986,3.3921,3.3595,3.3146,3.2515,3.1968,3.1409,3.0725,3.0475,3.0393,3.0375,2.9978,2.9558,2.9582,2.931,2.8938,2.8539,2.8898,2.9175,2.8845,2.9128,2.937,2.9203,2.8489,2.7894,2.7695,2.7059,2.6828,2.7538,2.7557,2.7192,2.6338,2.7659,2.7269,2.405,2.6012,2.6632,2.4777,2.6144,2.6762,2.6109,2.7212,2.6727,2.4307,2.5743,2.6314,2.5875,2.5875,2.5839,2.5743,2.5717,2.5129,3.1013,3.1597,3.2162,3.0338,3.0883,3.1369,2.9466,2.9472,2.9718,2.915,2.9491,0.0,0.0,0.0,0.0,0.0,0.0,3.1265,2.9723,3.1889,3.3644,3.3729,3.4181,3.5184,3.6987,3.8105,3.9019,3.9742,3.9525,3.9668,4.036,4.0309,4.0253,4.0234,4.0157,4.0137,4.0157,4.0098,4.0138,4.025,3.9965,3.9199,3.8022,3.7827,3.7206,3.6266,3.6004,3.5878,3.5987,3.728,3.7205,3.6362,3.7394,3.7833,3.7696,3.5647,3.4831,3.4711,3.4588,3.4398,3.4189,3.413,3.3901,3.358,3.3099,3.2674,3.2207,3.1492,3.1175,3.1017,3.0754,3.0204,2.9691,2.9691,2.9289,2.8824,2.8571,2.8883,2.9151,2.8931,2.9184,2.9351,2.9101,2.8379,2.7761,2.7533,2.6721,2.6428,2.7254,2.7273,2.6837,2.5764,2.7298,2.6836,2.2917,2.51,2.6008,2.4396,2.5374,2.5711,2.497,2.6134,2.5843,2.376,2.5024,2.5579,2.5355,2.5355,2.515,2.4767,2.4991,2.4572,3.3217,3.2575,3.2162,3.0338,2.9943,2.9962,2.9869,2.9869,2.9888,2.9869,2.9869,2.9888,2.9888,0.0,0.0,0.0,0.0,0.0,0.0,2.9195,2.9777,3.0042,3.1616,3.3369,3.5127,3.463,3.527,3.7801,3.7206,3.7805,4.0281,4.0398,4.0363,4.031,4.0234,4.0234,4.0291,4.0098,4.0036,4.0098,3.9117,3.8637,3.8542,3.7705,3.6831,3.6056,3.6956,3.6387,3.5039,3.7604,3.806,3.7251,3.8126,3.8385,3.8014,3.574,3.4869,3.4768,3.4495,3.4316,3.4197,3.4124,3.3537,3.2816,3.2596,3.1942,3.1034,3.0051,2.9701,2.9512,2.8858,2.8582,2.8495,2.8623,2.8528,2.8164,2.7245,2.7933,2.8458,2.7556,2.8379,2.9093,2.8767,2.8845,2.885,2.8507,2.8201,2.8083,2.8237,2.8128,2.7422,2.5693,2.7147,2.6657,2.2826,2.4912,2.6068,2.5302,2.4531,2.405,2.3952,2.5042,2.497,2.3533,2.4642,2.5153,2.5029,2.5029,2.4546,2.3682,2.4715,2.4573,3.456,3.5203,3.5411,3.2425,3.2556,3.2784,3.0449,2.9888,2.9888,2.9888,2.9888,2.9888,2.9888,0.0,0.0,0.0,0.0,0.0,0.0,2.9401,2.9531,2.9608,3.1402,3.2806,3.3308,3.4617,3.5866,3.6829,3.7617,3.8492,3.9495,4.0089,4.0345,4.0253,4.0253,4.0253,4.0215,4.0176,3.9831,3.9239,3.9425,3.8864,3.7675,3.7454,3.6828,3.5873,3.5652,3.5114,3.4562,3.656,3.7075,3.6705,3.7717,3.806,3.7766,3.6051,3.5421,3.5302,3.4714,3.4483,3.4416,3.4539,3.433,3.402,3.3883,3.3584,3.3234,3.281,3.261,3.2324,3.1536,3.0805,3.0173,2.9646,2.9132,2.8615,2.8281,2.853,2.874,2.8419,2.856,2.8742,2.8761,2.8664,2.8146,2.6782,2.5852,2.5575,2.6231,2.6247,2.5971,2.5362,2.6433,2.5883,2.2654,2.3068,2.3676,2.416,2.3947,2.3725,2.3574,2.4374,2.405,2.2471,2.3206,2.347,2.321,2.321,2.2971,2.2541,2.2909,2.2892,3.6323,3.7022,3.7194,3.4257,3.4369,3.4429,3.1455,3.0798,3.0798,3.0798,3.0237,3.0163,3.1523,0.0,0.0,0.0,0.0,0.0,0.0,2.9414,2.9394,2.9394,3.064,3.1692,3.2166,3.3488,3.4832,3.6065,3.7166,3.808,3.8766,3.9624,4.004,3.9935,4.008,4.0138,4.0057,4.0137,3.9851,3.9258,3.9445,3.8925,3.7759,3.7516,3.6828,3.5829,3.5878,3.5418,3.481,3.676,3.723,3.6895,3.7877,3.8201,3.7933,3.6272,3.5446,3.5063,3.4562,3.433,3.4302,3.4386,3.445,3.4473,3.4293,3.4293,3.4269,3.4005,3.3725,3.3269,3.2235,3.137,3.056,2.9708,2.9082,2.8658,2.8594,2.8565,2.8578,2.8554,2.8688,2.8719,2.8394,2.8694,2.8433,2.6854,2.5685,2.518,2.5762,2.5495,2.5077,2.4715,2.56,2.5244,2.2875,2.2182,2.2228,2.3084,2.3175,2.3164,2.3068,2.3632,2.3284,2.1869,2.2381,2.248,2.2123,2.2123,2.2032,2.1869,2.1869,2.1764]},{"header":{"parameterUnit":"m.s-1","parameterCategory":1,"la1":30.6,"la2":29.2853,"lo1":-89.7004,"lo2":-87.6739,"dy":0.0162,"dx":0.0183,"nx":112,"ny":82,"refTime":"2023-05-13T12:00:00:Z","depth":0,"parameterNumber":3,"parameterNumberName":"V-component_of_WINDS"},"data":[0.0,0.0,0.0,0.0,0.0,0.0,0.0,0.0,0.0,0.0,0.0,0.0,0.0,0.0,0.0,0.0,0.0,0.0,0.0,0.0,0.0,0.0,0.0,0.0,0.0,0.0,0.0,0.0,0.0,0.0,0.0,0.0,0.0,0.0,0.0,0.0,0.0,0.0,0.0,0.0,0.0,0.0,0.0,0.0,0.0,0.0,0.0,0.0,0.0,0.0,0.0,0.0,0.0,0.0,0.0,0.0,0.0,0.0,0.0,0.0,0.0,0.0,0.0,0.0,0.0,0.0,0.0,0.0,0.0,0.0,0.0,0.0,0.0,0.0,0.0,0.0,0.0,0.0,0.0,0.0,0.0,0.0,0.0,0.0,0.0,0.0,0.0,0.0,0.0,0.0,1.2191,1.3302,1.5322,1.6504,1.6191,1.6387,1.576,1.41,0.0,0.0,0.0,0.0,0.0,0.0,0.0,0.0,0.0,0.0,0.0,0.0,0.0,0.0,0.0,0.0,0.0,0.0,0.0,0.0,0.0,0.0,0.0,0.0,0.0,0.0,0.0,0.0,0.0,0.0,0.0,0.0,0.0,0.0,0.0,0.0,0.0,0.0,0.0,0.0,0.0,0.0,0.0,0.0,0.0,0.0,0.0,0.0,0.0,0.0,0.0,0.0,0.0,0.0,0.0,0.0,0.0,0.0,0.0,0.0,0.0,0.0,0.0,0.0,0.0,0.0,0.0,0.0,0.0,0.0,0.0,0.0,0.0,0.0,0.0,0.0,0.0,0.0,0.0,0.0,0.0,0.0,0.0,0.0,0.0,0.0,0.0,0.0,0.0,0.0,0.0,0.0,0.0,0.0,0.0,0.0,0.0,0.0,0.0,0.0,0.0,0.0,0.0,0.0,1.3312,1.539,1.5928,1.6289,1.6602,1.6006,1.5103,1.3888,0.0,0.0,0.0,0.0,0.0,0.0,0.0,0.0,0.0,0.0,0.0,0.0,0.0,0.0,0.0,0.0,0.0,0.0,0.0,0.0,0.0,0.0,0.0,0.0,0.0,0.0,0.0,0.0,0.0,0.0,0.0,0.0,0.0,0.0,0.0,0.0,0.0,0.0,0.0,0.0,0.0,0.0,0.0,0.0,0.0,0.0,0.0,0.0,0.0,0.0,0.0,0.0,0.0,0.0,0.0,0.0,0.0,0.0,0.0,0.0,0.0,0.0,0.0,0.0,0.0,0.0,0.0,0.0,0.0,0.0,0.0,0.0,0.0,0.0,0.0,0.0,0.0,0.0,0.0,0.0,0.0,0.0,0.0,0.0,0.0,0.0,0.0,0.0,0.0,0.0,0.0,0.0,0.0,0.0,0.0,0.0,0.0,0.0,0.0,0.0,0.0,0.0,0.0,1.2407,1.3451,1.5223,1.5841,1.6055,1.6016,1.5644,1.5154,1.4602,1.446,0.0,0.0,0.0,0.0,0.0,0.0,0.0,0.0,0.0,0.0,0.0,0.0,0.0,0.0,0.0,0.0,0.0,0.0,0.0,0.0,0.0,0.0,0.0,0.0,0.0,0.0,0.0,0.0,0.0,0.0,0.0,0.0,0.0,0.0,0.0,0.0,0.0,0.0,0.0,0.0,0.0,0.0,0.0,0.0,0.0,0.0,0.0,0.0,0.0,0.0,0.0,0.0,0.0,0.0,0.0,0.0,0.0,0.0,0.0,0.0,0.0,0.0,0.0,0.0,0.0,0.0,0.0,0.0,0.0,0.0,0.0,0.0,0.0,0.0,0.0,0.0,0.0,0.0,0.0,0.0,0.0,0.0,0.0,0.0,0.0,0.0,0.0,0.0,0.0,0.0,0.0,0.0,0.0,0.0,0.0,0.0,0.0,0.0,0.0,0.0,0.0,0.0,1.289,1.3672,1.4951,1.5576,1.5811,1.5586,1.5469,1.5346,1.5148,1.4906,0.0,0.0,0.0,0.0,0.0,0.0,0.0,0.0,0.0,0.0,0.0,0.0,0.0,0.0,0.0,0.0,0.0,0.0,0.0,0.0,0.0,0.0,0.0,0.0,0.0,0.0,0.0,0.0,0.0,0.0,0.0,0.0,0.0,0.0,0.0,0.0,0.0,0.0,0.0,0.0,0.0,0.0,0.0,0.0,0.0,0.0,0.0,0.0,0.0,0.0,0.0,0.0,0.0,0.0,0.0,0.0,0.0,0.0,0.0,0.0,0.0,0.0,0.0,0.0,0.0,0.0,0.0,0.0,0.0,0.0,0.0,0.0,0.0,0.0,0.0,0.0,0.0,0.0,0.0,0.0,0.0,0.0,0.0,0.0,0.0,0.0,0.0,0.0,0.0,0.0,0.0,0.0,0.0,0.0,0.0,0.0,0.0,0.0,0.0,0.0,0.0,0.0,1.3688,1.4541,1.59,1.5664,1.5605,1.6047,1.5644,1.5245,1.4935,1.5304,0.0,0.0,0.0,0.0,0.0,0.0,0.0,0.0,0.0,0.0,0.0,0.0,0.0,0.0,0.0,0.0,0.0,0.0,0.0,0.0,0.0,0.0,0.0,0.0,0.0,0.0,0.0,0.0,0.0,0.0,0.0,0.0,0.0,0.0,0.0,0.0,0.0,0.0,0.0,0.0,0.0,0.0,0.0,0.0,0.0,0.0,0.0,0.0,0.0,0.0,0.0,0.0,0.0,0.0,0.0,0.0,0.0,0.0,0.0,0.0,0.0,0.0,0.0,0.0,0.0,0.0,0.0,0.0,0.0,0.0,0.0,0.0,0.0,0.0,0.0,0.0,0.0,0.0,0.0,0.0,0.0,0.0,0.0,0.0,0.0,0.0,0.0,0.0,0.0,0.0,0.0,0.0,0.0,0.0,0.0,0.0,0.0,0.0,0.0,0.0,0.0,0.0,1.3757,1.4521,1.5547,1.5508,1.5478,1.5644,1.5508,1.5467,1.5585,0.0,0.0,0.0,0.0,0.0,0.0,0.0,0.0,0.0,0.0,0.0,0.0,0.0,0.0,0.0,0.0,0.0,0.0,0.0,0.0,0.0,0.0,0.0,0.0,0.0,0.0,0.0,0.0,0.0,0.0,0.0,0.0,0.0,0.0,0.0,0.0,0.0,0.0,0.0,0.0,0.0,0.0,0.0,0.0,0.0,0.0,0.0,0.0,0.0,0.0,0.0,0.0,0.0,0.0,0.0,0.0,0.0,0.0,0.0,0.0,0.0,0.0,0.0,0.0,0.0,0.0,0.0,0.0,0.0,0.0,0.0,0.0,0.0,0.0,0.0,0.0,0.0,0.0,0.0,0.0,0.0,0.0,0.0,0.0,0.0,0.0,0.0,0.0,0.0,0.0,0.0,0.0,0.0,0.0,0.0,0.0,0.0,0.0,0.0,0.0,0.0,0.0,1.3385,1.3979,1.4609,1.5332,1.541,1.541,1.541,1.541,1.5583,1.5968,0.0,0.0,0.0,0.0,0.0,0.0,0.0,0.0,0.0,0.0,0.0,0.0,0.0,0.0,0.0,0.0,0.0,0.0,0.0,0.0,0.0,0.0,0.0,0.0,0.0,0.0,0.0,0.0,0.0,0.0,0.0,0.0,0.0,0.0,0.0,0.0,0.0,0.0,0.0,0.0,0.0,0.0,0.0,0.0,0.0,0.0,0.0,0.0,0.0,0.0,0.0,0.0,0.0,0.0,0.0,0.0,0.0,0.0,0.0,0.0,0.0,0.0,0.0,0.0,0.0,0.0,0.0,0.0,0.0,0.0,0.0,0.0,0.0,0.0,0.0,0.0,0.0,0.0,0.0,0.0,0.0,0.0,0.0,0.0,0.0,0.0,0.0,0.0,0.0,0.0,0.0,0.0,0.0,0.0,0.0,0.0,0.0,0.0,0.0,0.0,0.0,0.0,1.3758,1.4405,1.4951,1.5371,1.541,1.541,1.541,1.541,1.5583,0.0,0.0,0.0,0.0,0.0,0.0,0.0,0.0,0.0,0.0,0.0,0.0,0.0,0.0,0.0,0.0,0.0,0.0,0.0,0.0,0.0,0.0,0.0,0.0,0.0,0.0,0.0,0.0,0.0,0.0,0.0,0.0,0.0,0.0,0.0,0.0,0.0,0.0,0.0,0.0,0.0,0.0,0.0,0.0,0.0,0.0,0.0,0.0,0.0,0.0,0.0,0.0,0.0,0.0,0.0,0.0,0.0,0.0,0.0,0.0,0.0,0.0,0.0,0.0,0.0,0.0,0.0,0.0,0.0,0.0,0.0,0.0,0.0,0.0,0.0,0.0,0.0,0.0,0.0,0.0,0.0,0.0,0.0,0.0,0.0,0.0,0.0,0.0,0.0,0.0,0.0,0.0,0.0,0.0,0.0,0.0,0.0,0.0,0.0,0.0,0.0,0.0,0.0,1.38,1.4613,1.5273,1.54,1.541,1.541,1.541,1.541,1.5583,1.5968,0.0,0.0,0.0,0.0,0.0,0.0,0.0,0.0,0.0,0.0,0.0,0.0,0.0,0.0,0.0,0.0,0.0,0.0,0.0,0.0,0.0,0.0,0.0,0.0,0.0,0.0,0.0,0.0,0.0,0.0,0.0,0.0,0.0,0.0,0.0,0.0,0.0,0.0,0.0,0.0,0.0,0.0,0.0,0.0,0.0,0.0,0.0,0.0,0.0,0.0,0.0,0.0,0.0,0.0,0.0,0.0,0.0,0.0,0.0,0.0,0.0,0.0,0.0,0.0,0.0,0.0,0.0,0.0,0.0,0.0,0.0,0.0,0.0,0.0,0.0,0.0,0.0,0.0,0.0,0.0,0.0,0.0,0.0,0.0,0.0,0.0,0.0,0.0,0.0,0.0,0.0,0.0,0.0,0.0,0.0,0.0,0.0,0.0,0.0,0.0,0.0,0.0,1.3821,1.4733,1.541,1.541,1.541,1.541,1.541,1.541,1.5552,1.5848,0.0,0.0,0.0,0.0,0.0,0.0,0.0,0.0,0.0,0.0,0.0,0.0,0.0,0.0,0.0,0.0,0.0,0.0,0.0,0.0,0.0,0.0,0.0,0.0,0.0,0.0,0.0,0.0,0.0,0.0,0.0,0.0,0.0,0.0,0.0,0.0,0.0,0.0,0.0,0.0,0.0,0.0,0.0,0.0,0.0,0.0,0.0,0.0,0.0,0.0,0.0,0.0,0.0,0.0,0.0,0.0,0.0,0.0,0.0,0.0,0.0,0.0,0.0,0.0,0.0,0.0,0.0,0.0,0.0,0.0,0.0,0.0,0.0,0.0,0.0,0.0,0.0,0.0,0.0,0.0,0.0,0.0,0.0,0.0,0.0,0.0,0.0,0.0,0.0,0.0,0.0,0.0,0.0,0.0,0.0,0.0,0.0,0.0,0.0,0.0,0.0,0.0,1.3873,1.4743,1.541,1.541,1.541,1.541,1.541,1.541,1.5511,1.5779,0.0,0.0,0.0,0.0,0.0,0.0,0.0,0.0,0.0,0.0,0.0,0.0,0.0,0.0,0.0,0.0,0.0,0.0,0.0,0.0,0.0,0.0,0.0,0.0,0.0,0.0,0.0,0.0,0.0,0.0,0.0,0.0,0.0,0.0,0.0,0.0,0.0,0.0,0.0,0.0,0.0,0.0,0.0,0.0,0.0,0.0,0.0,0.0,0.0,0.0,0.0,0.0,0.0,0.0,0.0,0.0,0.0,0.0,0.0,0.0,0.6396,0.716,0.0,0.0,0.0,0.0,0.0,0.0,0.0,0.0,0.0,0.0,0.0,0.0,0.0,0.0,0.0,0.0,0.0,0.0,0.0,0.0,0.0,0.0,0.0,0.0,0.0,0.0,0.0,0.0,0.0,0.0,0.0,0.0,0.0,0.0,0.0,0.0,0.0,0.0,0.0,0.0,1.4324,1.4978,1.541,1.541,1.541,1.541,1.541,1.541,1.5719,1.6514,1.6074,0.0,0.0,0.0,0.0,0.0,0.0,0.0,0.0,0.0,0.0,0.0,0.0,0.0,0.0,0.0,0.0,0.0,0.0,0.0,0.0,0.0,0.0,0.0,0.0,0.0,0.0,0.0,0.0,0.0,0.0,0.0,0.0,0.0,0.0,0.0,0.0,0.0,0.0,0.0,0.0,0.0,0.0,0.0,0.0,0.0,0.0,0.0,0.0,0.0,0.0,0.0,0.0,0.0,0.0,0.0,0.0,0.0,0.0,0.0,0.6797,0.7023,0.0,0.0,0.0,0.0,0.0,0.0,0.0,0.0,0.0,0.0,0.0,0.0,0.0,0.0,0.0,0.0,0.0,0.0,0.0,0.0,0.0,0.0,0.0,0.0,0.0,0.0,0.0,0.0,0.0,0.0,0.0,0.0,0.0,0.0,0.0,0.0,0.0,0.0,0.0,0.0,1.468,1.5103,1.5526,1.5864,1.5584,1.5526,1.5921,1.5584,1.5591,1.6071,1.618,0.0,0.0,0.0,0.0,0.0,0.0,0.0,0.0,0.0,0.0,0.0,0.0,0.0,0.0,0.0,0.0,0.0,0.0,0.0,0.0,0.0,0.0,0.0,0.0,0.0,0.0,0.0,0.0,0.0,0.0,0.0,0.0,0.0,0.0,0.0,0.0,0.0,0.0,0.0,0.0,0.0,0.0,0.0,0.0,0.0,0.0,0.0,0.0,0.0,0.0,0.0,0.0,0.0,0.642,0.687,0.6884,0.8615,0.9128,0.8601,0.7472,0.7192,0.7521,0.7924,0.0,0.0,0.0,0.0,0.0,0.0,0.0,0.0,0.0,0.0,0.0,0.0,0.0,0.0,0.0,0.0,0.0,0.0,0.0,0.0,0.0,0.0,1.248,1.37,1.4246,1.4744,1.5568,0.0,0.0,0.0,0.0,0.0,0.0,0.0,0.0,0.0,0.0,0.0,1.5014,1.5259,1.5633,1.6255,1.5748,1.5642,1.6265,1.5864,1.5642,1.5796,1.6382,1.6622,0.0,0.0,0.0,0.0,0.0,0.0,0.0,0.0,0.0,0.0,0.0,0.0,0.0,0.0,0.0,0.0,0.0,0.0,0.0,0.0,0.0,0.0,0.0,0.0,0.0,0.0,0.0,0.0,0.0,0.0,0.0,0.0,0.1773,0.2627,0.0,0.0,0.0,0.0,0.0,0.0,0.0,0.0,0.0,0.0,0.0,0.0,0.0,0.502,0.5027,0.5236,0.5431,0.5632,0.6003,0.6129,0.6183,0.7604,0.8157,0.818,0.8955,0.0,0.9018,0.8746,0.0,0.0,0.0,0.0,0.0,0.0,0.0,0.0,0.0,0.0,0.0,0.0,0.0,0.0,0.0,0.0,0.0,0.0,0.0,0.0,0.0,0.0,1.4671,1.5525,1.6043,1.651,1.7027,1.6435,1.5917,1.6353,1.6166,1.5806,0.0,0.0,0.0,0.0,0.0,0.0,1.5293,1.5372,1.541,1.5517,1.5468,1.5468,1.5526,1.6036,1.6641,1.7246,1.6813,1.7136,1.8521,1.7891,0.0,0.0,0.0,0.0,0.0,0.0,0.0,0.0,0.0,0.0,0.0,0.0,0.0,0.0,0.0,0.0,0.0,0.0,0.0,0.0,0.0,0.0,0.0,0.0,0.0,0.0,0.0,0.0,0.0,0.1892,0.2154,0.2926,0.2807,0.2943,0.0,0.0,0.0,0.0,0.0,0.0,0.0,0.0,0.0,0.483,0.5168,0.5375,0.5571,0.639,0.6826,0.7005,0.8384,0.8959,0.8851,1.0275,1.0838,1.0701,1.1235,1.1354,1.1153,0.9862,0.9612,1.0013,0.0,0.0,0.0,0.0,1.0515,1.0344,1.0488,1.0558,1.0632,1.0797,0.0,0.0,0.0,0.0,0.0,0.0,0.0,1.3626,1.4867,1.5215,1.539,1.6257,1.6592,1.6855,1.7285,1.703,1.6769,1.6949,1.6424,1.5834,1.5477,1.5532,0.0,0.0,0.0,1.5834,1.6228,1.6008,1.6049,1.6698,1.6158,1.6049,1.6698,1.6678,1.6627,1.6763,1.7205,1.7677,1.8064,1.8159,1.8325,0.0,0.0,0.0,0.0,0.0,0.0,0.0,0.0,0.0,0.0,0.0,0.0,0.0,0.0,0.0,0.0,0.0,0.0,0.0,0.0,0.0,0.0,0.0,0.0,0.0,0.0,0.0,0.0,0.2123,0.2531,0.2865,0.2979,0.3275,0.0,0.0,0.0,0.0,0.0,0.0,0.4796,0.4877,0.5074,0.541,0.5866,0.6261,0.659,0.7832,0.8533,0.8613,1.0518,1.1288,1.0973,1.2401,1.2998,1.2784,1.3041,1.3046,1.2893,1.1068,1.0734,1.1229,1.0953,1.101,1.1276,1.1603,1.1725,1.184,1.1812,1.1796,1.1789,1.1959,1.2138,1.247,1.3037,0.0,0.0,0.0,0.0,1.4873,1.5957,1.6152,1.6211,1.6768,1.7061,1.7275,1.75,1.7373,1.7243,1.7456,1.6878,1.6236,1.5814,1.602,0.0,1.6182,1.6471,1.6931,1.7514,1.7171,1.7234,1.8116,1.7428,1.7245,1.8126,1.7863,1.7543,1.7241,1.8039,1.8389,1.8145,1.8657,1.9116,1.9523,0.0,0.0,0.0,0.0,0.0,0.0,0.0,0.0,0.0,0.0,0.0,0.0,0.0,0.0,0.0,0.0,0.0,0.0,0.0,0.0,0.0,0.0,0.0,0.0,0.0,0.0,0.0,0.0,0.0,0.1946,0.3601,0.0,0.0,0.0,0.0,0.4874,0.4894,0.5142,0.5705,0.5613,0.5749,0.619,0.7263,0.797,0.8107,0.9557,1.023,1.0095,1.0924,1.1112,1.0883,1.218,1.2826,1.2889,1.3698,1.3861,1.3527,1.2536,1.2071,1.179,1.1483,1.1369,1.1376,1.1383,1.1632,1.1915,1.2204,1.2238,1.2264,1.1989,1.2579,1.3537,1.4471,1.5055,0.0,0.0,1.5996,1.6084,1.6572,1.7285,1.7793,1.7432,1.7959,1.8437,1.8057,1.7334,1.7002,1.7793,1.7654,1.7184,1.6777,0.0,1.6486,1.7269,1.7434,1.7879,1.9025,1.9149,1.916,1.9242,1.916,1.916,1.9242,1.9831,2.0238,2.0214,1.9492,1.9363,2.0006,1.9915,1.9721,1.9412,2.0404,0.0,0.0,0.0,0.0,0.0,0.0,0.0,0.0,0.0,0.0,0.0,0.0,0.0,0.0,0.0,0.0,0.0,0.0,0.0,0.0,0.0,0.0,0.0,0.0,0.0,0.0,0.0,0.0,0.2889,0.4453,0.0,0.5018,0.5264,0.5389,0.5352,0.562,0.5874,0.6084,0.6135,0.6612,0.7485,0.7986,0.8693,0.963,1.0865,1.1487,1.1556,1.2613,1.3053,1.2954,1.3585,1.3886,1.3879,1.4229,1.4309,1.4182,1.3688,1.3167,1.2705,1.2398,1.2398,1.2572,1.2572,1.2639,1.2746,1.2852,1.2886,1.2866,1.2766,1.3465,1.4351,1.4704,1.5652,1.6689,1.7107,1.7512,1.7822,1.8262,1.8603,1.8799,1.8643,1.8623,1.8523,1.8447,1.8345,1.8465,1.8793,1.7825,1.7073,1.7552,1.7687,1.7963,1.8599,1.8884,1.9302,2.0048,1.9845,1.9778,2.0104,1.9845,1.9778,2.0104,2.0375,2.0423,2.009,2.0248,2.0248,2.0007,2.0421,2.0745,2.0973,2.1402,2.1055,0.0,0.0,0.0,0.0,0.0,0.0,0.0,0.0,0.0,0.0,0.0,0.0,0.0,0.0,0.0,0.0,0.0,0.0,0.0,0.0,0.0,0.0,0.0,0.0,0.0,0.3345,0.382,0.3874,0.5369,0.6162,0.562,0.5854,0.603,0.604,0.6318,0.6666,0.7116,0.7349,0.8014,0.917,0.9695,1.0424,1.1176,1.2564,1.3176,1.3077,1.408,1.4535,1.4442,1.4464,1.455,1.4543,1.4445,1.4405,1.4399,1.4112,1.3801,1.3526,1.3299,1.3446,1.3788,1.3687,1.3714,1.3788,1.3687,1.3756,1.3978,1.4209,1.497,1.5871,1.6168,1.6985,1.7961,1.8303,1.8629,1.8926,1.9209,1.9394,1.9463,1.9316,1.9072,1.8857,1.8857,1.9069,1.9341,1.9498,1.8726,1.8229,1.8808,1.9106,1.939,1.9631,2.0191,2.0657,2.0903,2.0965,2.1093,2.1381,2.1175,2.1105,2.1455,2.1101,2.0903,2.0965,2.0818,2.0663,2.0584,2.0686,2.0914,2.1342,2.1342,2.1151,2.0804,0.0,0.0,0.0,0.0,0.0,0.0,0.0,0.0,0.0,0.0,0.0,0.0,0.0,0.0,0.0,0.0,0.0,0.0,0.0,0.0,0.0,0.0,0.0,0.299,0.2657,0.3033,0.4856,0.6259,0.6835,0.6101,0.6332,0.6624,0.6919,0.6946,0.7527,0.8811,0.9165,0.9889,1.1133,1.244,1.3087,1.2821,1.4533,1.5097,1.4455,1.5114,1.5269,1.5002,1.4743,1.457,1.4558,1.428,1.416,1.4134,1.3938,1.3989,1.4218,1.4102,1.4432,1.493,1.4636,1.4716,1.5006,1.4629,1.4888,1.5488,1.6198,1.7124,1.8053,1.8739,1.919,1.9326,1.9326,1.9326,1.9326,1.9326,1.9629,1.9824,1.9424,1.9316,1.9307,1.9307,1.9381,1.9477,1.9907,2.0357,2.0688,2.0666,2.0655,2.058,2.0311,2.1211,0.0,2.1556,2.2472,2.3065,2.3053,2.3053,2.3053,2.3078,2.2159,2.2008,2.3027,2.1352,2.0819,2.1842,2.0879,2.0274,2.0274,2.0262,2.0499,2.1069,0.0,0.0,0.0,0.0,0.0,0.0,0.0,0.0,0.0,0.0,0.0,0.0,0.0,0.0,0.0,0.0,0.0,0.0,0.0,0.0,0.0,0.1801,0.186,0.2684,0.4698,0.5629,0.4441,0.6094,0.7193,0.701,0.7078,0.716,0.7244,0.7353,0.7971,0.9279,0.9246,1.0191,1.2281,1.2535,1.3091,1.3848,1.4275,1.4469,1.4314,1.4455,1.4526,1.4455,1.4568,1.457,1.4551,1.4352,1.4231,1.4224,1.3975,1.3988,1.4199,1.4007,1.4078,1.4417,1.434,1.4883,1.5725,1.5641,1.6107,1.6755,1.7004,1.7658,1.8485,1.8641,1.9427,2.0215,2.0215,2.0215,2.0215,2.0215,2.0303,2.0361,2.0244,1.9971,1.9746,1.9746,2.0563,2.127,2.1402,2.2628,2.318,2.182,2.1553,2.1708,2.2223,2.2565,2.2712,2.2664,2.2949,2.2975,2.2585,2.2535,2.2698,2.304,2.2862,2.2987,2.3715,2.3281,2.2616,2.1951,2.2152,2.2305,2.2305,2.191,2.1786,0.0,0.0,0.0,0.0,0.0,0.0,0.0,0.0,0.0,0.0,0.0,0.0,0.0,0.0,0.0,0.0,0.0,0.0,0.0,0.0,0.0,0.0,0.3399,0.4325,0.4861,0.6595,0.7238,0.5665,0.6673,0.7495,0.755,0.7463,0.749,0.7648,0.8016,0.8794,1.0117,1.0575,1.1713,1.3481,1.3582,1.3878,1.433,1.4542,1.4542,1.433,1.4352,1.4408,1.4415,1.4478,1.4452,1.4446,1.4272,1.4198,1.4192,1.4001,1.4019,1.4278,0.0,0.0,0.0,0.0,1.6487,1.6988,1.6988,1.7549,1.8194,1.811,1.8815,1.9697,1.9514,2.0038,2.0732,2.0615,2.0566,2.0566,2.0566,2.0566,2.0566,2.0566,2.0234,1.9961,2.0146,2.0845,2.1618,2.2176,2.3297,0.0,2.3238,2.2945,2.269,2.2489,2.305,2.3326,2.2849,2.3414,2.3715,2.3401,2.3364,2.3489,2.3816,2.3341,0.0,0.0,0.0,2.3232,2.2457,2.2823,0.0,0.0,0.0,2.3,2.369,2.3364,0.0,0.0,2.2799,2.2347,0.0,0.0,0.0,0.0,0.0,0.0,0.0,0.0,0.0,0.0,0.0,0.0,0.0,0.0,0.0,0.0,0.6062,0.7849,0.7935,0.7962,0.7879,0.7628,0.7662,0.7712,0.7727,0.7547,0.7504,0.7928,0.8726,0.973,1.081,1.2229,0.0,0.0,0.0,1.4867,1.4615,1.4861,1.4861,1.4521,1.4671,1.4688,1.4688,1.4394,1.4298,1.4292,1.4262,1.425,1.4238,1.4002,1.4151,1.458,1.4777,1.5717,1.7117,1.8326,1.8589,1.8498,1.8498,0.0,0.0,1.9453,2.021,2.1061,2.0756,2.0704,2.0841,2.0673,2.0605,2.0566,2.0566,2.0566,2.0566,2.0566,2.0273,2.0088,2.0478,2.068,2.115,2.2501,2.3144,2.379,2.4713,2.4456,2.359,2.2096,2.3138,2.3728,2.2723,2.3904,2.4795,2.4745,2.4732,0.0,2.4808,2.3904,2.3778,2.4845,2.3916,2.3265,2.3265,2.3265,2.3265,2.3265,2.3315,2.413,2.5598,2.5661,2.5963,2.6458,2.3427,2.2573,0.0,0.0,0.0,0.0,0.0,0.0,0.0,0.0,0.0,0.0,0.0,0.0,0.0,0.0,0.0,0.452,0.5984,0.7076,0.7571,0.757,0.7727,0.7878,0.7773,0.7575,0.7601,0.74,0.731,0.7335,0.8524,0.9292,0.9543,1.1628,1.2904,1.3052,1.3974,1.4465,1.4321,1.4465,1.4465,1.4321,1.437,0.0,1.4394,1.4298,1.4298,1.4286,1.4075,1.3978,1.3978,1.3924,1.4703,1.588,1.588,1.6727,1.7848,1.8033,1.8732,1.9595,1.9595,2.0076,2.0807,2.073,2.0769,2.0829,2.0745,2.075,0.0,2.0633,2.0445,2.0342,2.0342,2.0489,2.0566,2.0566,2.0498,2.0469,2.0547,2.1166,2.202,2.3139,2.4033,2.4843,2.5378,2.5008,2.4556,2.4217,2.4456,2.4582,2.4356,2.4619,2.4644,2.4205,2.4155,2.4343,2.4782,2.4619,2.477,2.541,2.4845,2.4494,2.4494,2.4494,2.4494,2.4494,2.4908,2.5272,2.5598,2.6063,2.642,2.6508,2.5799,2.5611,0.0,0.0,0.0,0.0,0.0,0.0,0.0,0.0,0.0,0.0,0.0,0.4494,0.4847,0.0,0.3251,0.4009,0.5804,0.7127,0.7233,0.731,0.745,0.7553,0.7447,0.7441,0.7441,0.7141,0.7338,0.8127,0.8619,0.9402,1.0863,1.1945,1.2829,1.3511,1.4004,1.4298,1.4298,1.4298,1.4298,1.4298,1.4298,1.4298,1.4298,1.4298,1.4298,1.4292,1.3975,1.401,1.4099,1.4653,1.5571,1.6814,1.7468,1.8211,1.9055,1.9604,2.0257,2.0817,2.0736,2.0962,2.142,2.1253,2.1291,2.1253,2.1135,2.1025,2.0987,2.0955,2.091,2.0909,2.0909,2.106,2.123,2.123,2.167,2.1985,2.1683,2.2461,2.3359,2.4093,2.4636,2.5216,2.594,2.5812,2.5448,2.4908,2.5046,2.5209,2.5209,2.546,2.5536,2.5259,2.5234,2.5347,2.5624,2.5636,2.5749,2.6013,2.5787,2.5636,2.5636,2.5636,2.5636,2.5636,2.5954,2.616,2.616,2.6519,2.6739,2.6739,2.6739,2.6671,0.0,0.0,0.0,0.0,0.0,0.0,0.0,0.0,0.4455,0.4735,0.4403,0.4481,0.6,0.5406,0.4663,0.4163,0.5927,0.7334,0.7045,0.7048,0.7138,0.7138,0.7138,0.7138,0.7138,0.6842,0.7238,0.852,0.8711,0.969,1.1745,1.2436,1.3022,1.3902,1.4196,1.4298,1.4298,1.4298,1.4298,1.4298,1.4298,1.4298,1.4298,1.4202,1.4202,1.4202,1.4208,1.4298,1.4573,1.5704,1.6727,1.7755,1.878,1.9613,2.0257,2.1186,2.1553,2.1553,2.1383,2.1472,2.1651,2.1383,2.1472,2.1676,2.1443,2.1364,2.1321,2.1175,2.1267,2.1451,2.1451,2.1709,2.1885,2.1885,2.2574,2.3088,2.2646,2.3401,2.4276,2.4865,2.5157,2.56,2.6627,2.6779,2.6402,2.531,2.5498,2.5762,2.5762,2.6176,2.6533,2.6533,2.6533,2.6533,2.6533,2.6533,2.6533,2.6533,2.6533,2.6533,2.6521,2.6521,2.6521,2.6577,2.6645,2.6726,2.6807,2.6956,2.7037,2.7024,2.7007,2.6926,0.408,0.408,0.4341,0.4844,0.5043,0.5264,0.0,0.0,0.5927,0.4794,0.466,0.5349,0.7379,0.7275,0.6853,0.7003,0.7051,0.7042,0.6845,0.6845,0.6842,0.6842,0.6842,0.6842,0.6842,0.6639,0.6537,0.6734,0.8898,0.978,0.8905,1.2134,1.3613,1.2533,1.3709,1.4298,1.4298,1.4298,1.4298,1.4298,1.4298,1.4298,1.4298,1.4022,1.3931,1.4027,1.4854,1.5216,1.5406,1.6633,1.7848,1.8964,1.9147,1.9886,2.0898,2.0997,2.1087,2.1087,2.1087,2.1195,2.1392,2.1096,2.1365,2.1642,2.1427,2.1244,2.1099,2.1148,2.1127,2.1265,2.1265,2.1534,2.1885,2.1885,2.1958,2.203,2.1981,2.2807,2.3874,2.4847,2.5745,2.6733,2.7763,2.7921,2.7544,2.644,2.6395,2.6433,2.6433,2.6483,2.6533,2.6533,2.6533,2.6533,2.6533,2.6533,2.6533,2.6533,2.6533,2.6521,2.6658,2.6658,2.6714,2.6744,2.6799,2.6918,2.7156,2.7169,2.7143,2.7024,2.7143,2.713,0.4677,0.4843,0.5108,0.0,0.5718,0.6034,0.6425,0.6599,0.6671,0.6551,0.6575,0.692,0.7791,0.7801,0.7596,0.7553,0.7415,0.725,0.6845,0.6942,0.6913,0.6741,0.6732,0.6761,0.6836,0.6742,0.6936,0.7524,0.8605,0.9686,1.0574,1.2237,1.3221,1.3414,1.3817,1.4118,1.4118,1.3925,1.3823,1.3823,1.3823,1.3823,1.3823,1.3732,1.4016,1.458,1.5127,1.5684,1.6156,1.7569,1.8403,1.8772,1.953,1.9966,2.026,2.0828,2.0997,2.0997,2.0916,2.1006,2.1105,2.0916,2.1105,2.1482,2.1392,2.1444,2.1475,2.1475,2.1618,2.1748,2.1825,2.2179,2.2446,2.2532,2.3098,2.3669,2.3977,2.4941,2.5945,2.6685,2.7162,2.7631,2.8024,2.8109,2.7946,2.7494,2.7143,2.6942,2.6942,2.6653,2.6533,2.6533,2.6533,2.6533,2.6533,2.6533,2.6533,2.6533,2.6533,2.6521,2.6589,2.6658,2.6701,2.665,2.7212,2.7396,2.7062,2.7988,2.8009,2.7284,2.7812,2.8273,0.5121,0.5389,0.0,0.5973,0.6386,0.6763,0.6837,0.7017,0.7252,0.7886,0.8032,0.8034,0.8045,0.7952,0.7842,0.7646,0.7543,0.7344,0.6942,0.7009,0.7051,0.6757,0.6716,0.6734,0.6729,0.6671,0.7081,0.8252,0.8682,0.9887,1.2145,1.2538,1.3125,1.401,1.3925,1.3835,1.3835,1.3642,1.3539,1.3539,1.3539,1.3539,1.3539,1.3443,1.3913,1.4854,1.5406,1.6062,1.6915,1.8409,1.8827,1.8728,1.9669,1.9817,1.9632,2.034,2.0499,2.0518,2.0454,2.0578,2.0775,2.0619,2.0934,2.1293,2.1293,2.1472,2.1651,2.1651,2.1919,2.2185,2.2696,2.2794,2.2969,2.3637,2.4049,2.4534,2.5431,2.6325,2.7172,2.7849,2.8338,2.8574,2.8574,2.8487,2.8474,2.8474,2.7938,2.7538,2.7532,2.7155,2.6936,2.681,2.6589,2.6639,2.6904,2.724,2.7145,2.6544,2.6771,2.6892,2.6829,2.6886,2.6918,2.6747,2.7538,2.7991,2.8074,2.9227,2.9125,2.7863,2.8176,2.8853,0.5257,0.5471,0.5766,0.6491,0.701,0.7383,0.7539,0.7797,0.8011,0.8024,0.8031,0.8035,0.8038,0.7746,0.7646,0.7646,0.7341,0.7238,0.7238,0.7131,0.7049,0.7033,0.6923,0.6753,0.6564,0.6395,0.6849,0.8086,0.9486,1.0863,1.1955,1.3141,1.3732,1.3539,1.3539,1.3539,1.3539,1.3539,1.3539,1.3539,1.3539,1.3539,1.3443,1.3249,1.3528,1.4388,1.5602,1.6734,1.7755,1.8897,1.939,1.9381,1.939,1.9338,1.9239,1.9431,1.9338,1.9264,1.9632,1.9937,2.0175,2.0262,2.0645,2.0997,2.0997,2.1195,2.1482,2.1651,2.1919,2.2353,2.3454,2.3299,2.3309,2.5231,2.4231,2.3387,2.5378,2.5942,2.6509,2.7591,2.8834,2.9741,2.9741,2.9549,2.9369,2.9369,2.8768,2.8237,2.8074,2.8059,2.7956,2.7574,2.6904,2.6944,2.7949,2.9061,2.88,2.6615,2.7457,2.7898,2.7553,2.7541,2.7526,2.7482,2.7494,2.864,3.0855,3.0953,3.0166,2.8647,2.7858,2.8195,0.5403,0.5986,0.661,0.716,0.7556,0.7855,0.8011,0.8123,0.8163,0.8062,0.7804,0.7597,0.7597,0.7419,0.7293,0.7486,0.7568,0.753,0.7428,0.7406,0.7309,0.693,0.6771,0.6485,0.6224,0.64,0.6936,0.8072,0.9477,1.0821,1.2139,1.3238,1.3835,1.3738,1.3443,1.3249,1.3249,1.3055,1.3055,1.3055,1.3055,1.3055,1.305,1.3357,1.4306,1.5589,1.6515,1.7666,1.9004,1.9348,1.9488,1.9488,1.9488,1.9196,1.8749,1.8787,1.8446,1.8096,1.9059,1.9521,1.9664,1.9881,2.0266,2.0826,2.0826,2.1105,2.1392,2.1482,2.1651,2.2008,2.252,2.253,2.2696,2.4296,2.4135,2.4221,2.6472,2.6964,2.7371,2.8462,2.9052,2.9378,2.9378,2.9287,2.9197,2.9197,2.8676,2.8135,2.773,2.7816,2.784,2.7763,2.7592,2.7728,2.8097,2.8467,2.848,2.7986,2.8084,2.8195,2.8306,2.835,2.821,2.7889,2.8792,2.9803,3.1029,3.1023,3.0705,3.0217,2.9915,3.0006,0.604,0.6647,0.7221,0.7777,0.8099,0.8279,0.8272,0.8309,0.8258,0.7946,0.7567,0.7255,0.7149,0.7051,0.6997,0.7044,0.7299,0.7473,0.7488,0.7468,0.7327,0.6914,0.6774,0.6491,0.6145,0.6273,0.7054,0.8744,0.9731,1.1023,1.2635,1.334,1.3642,1.3545,1.3152,1.2953,1.2856,1.2861,1.2764,1.2764,1.2662,1.2667,1.2657,1.336,1.444,1.5798,1.6634,1.7802,1.8913,1.9011,1.9019,1.8912,1.8912,1.8534,1.8102,1.8148,1.7811,1.7474,1.8499,1.9041,1.9205,1.9613,2.0081,2.0564,2.0654,2.0934,2.1114,2.1203,2.1374,2.1633,2.2255,2.2176,2.2422,2.4467,2.4382,2.4638,2.7232,2.7476,2.7637,2.8803,2.9052,2.9052,2.9052,2.8895,2.8907,2.8907,2.8602,2.8264,2.7802,2.8126,2.825,2.799,2.8338,2.855,2.8662,2.8625,2.865,2.9087,2.8837,2.8824,2.9087,2.9234,2.9206,2.8905,2.9663,3.0249,3.0725,3.0929,3.101,3.0985,3.0421,3.0145,0.7024,0.74,0.76,0.8316,0.8598,0.8625,0.8343,0.8367,0.8282,0.7695,0.7312,0.6993,0.0,0.6654,0.6624,0.6495,0.6749,0.7068,0.7363,0.7278,0.7067,0.7087,0.6926,0.6567,0.6181,0.6092,0.7214,0.9815,1.0245,1.1346,1.3437,1.3539,1.3346,1.2861,1.2861,1.2667,1.2467,1.2667,1.2764,1.2764,1.2467,1.237,1.236,1.3148,1.3957,1.4969,1.6246,1.7168,1.7771,1.804,1.7932,1.7624,1.7624,1.7489,1.7384,1.7554,1.7365,1.7188,1.7954,1.849,1.886,1.9414,1.9966,2.0257,2.0529,2.0628,2.0709,2.0854,2.0953,2.1311,2.2688,2.2366,2.2551,2.5648,2.5009,2.4436,2.7464,2.7476,2.7232,2.8554,2.8961,2.8961,2.8767,2.8554,2.851,2.851,2.851,2.8397,2.8353,2.8954,2.9077,2.8418,2.8941,2.9431,2.9724,2.9456,2.9406,2.9792,2.9792,2.9792,2.9792,3.0164,3.0381,3.0444,3.0077,2.9986,3.0204,3.0791,3.0985,3.0934,2.9444,2.8653,0.7244,0.7777,0.8272,0.8577,0.8598,0.852,0.8445,0.8197,0.7845,0.7356,0.692,0.6528,0.6002,0.6279,0.657,0.6524,0.701,0.7533,0.7828,0.7443,0.713,0.713,0.0,0.6379,0.6094,0.6168,0.7366,0.9923,1.0205,1.1384,1.3998,1.3925,1.3636,1.3346,1.3152,1.2958,1.2662,1.257,1.2467,1.2473,1.2273,1.2078,1.216,1.3519,1.4422,1.495,1.6507,1.7455,1.7771,1.7858,1.7723,1.7573,1.773,1.7352,1.6814,1.7239,1.704,1.6656,1.7245,1.7597,1.805,1.8765,1.9301,1.9694,1.9881,2.0058,2.0175,1.9957,2.0341,2.1025,2.1636,2.1959,2.2624,2.4686,2.5022,2.5447,2.7179,2.7735,2.7995,2.8498,2.8498,2.8287,2.7813,2.8076,2.8259,2.8259,2.8259,2.8291,2.8397,2.8718,2.89,2.8687,2.8954,2.9209,2.9234,2.9209,2.9275,2.9509,2.9496,2.9509,2.9792,2.9896,3.0126,3.0572,3.0605,3.0559,3.0364,3.0956,3.1216,3.0964,3.0583,2.9713,0.7929,0.8364,0.8716,0.8869,0.8791,0.8581,0.8184,0.7848,0.7414,0.6698,0.6342,0.6062,0.5613,0.5935,0.6252,0.6279,0.6798,0.7333,0.7695,0.7455,0.7205,0.0,0.6833,0.0,0.6246,0.635,0.7477,1.0123,1.0312,1.1428,1.4004,1.4027,1.3738,1.3346,1.3147,1.2953,1.2662,1.2276,1.2174,1.2268,1.2252,1.2114,1.1722,1.3907,1.4632,1.4315,1.629,1.7117,1.7079,1.7227,1.7126,1.6908,1.6986,1.6784,1.6377,1.6713,1.6581,1.6476,1.6722,1.694,1.7338,1.8203,1.8749,1.9138,1.9225,1.9495,1.9652,1.9601,1.9791,2.0155,2.1109,2.1457,2.209,2.3977,2.485,2.5605,2.6846,2.7664,2.8039,2.7882,2.7475,2.714,2.716,2.7408,2.7679,2.7995,2.7909,2.7755,2.7834,2.8342,2.856,2.824,2.8373,2.8626,2.8949,2.8378,2.8285,2.8839,2.8704,2.8907,2.9551,2.9071,2.9212,3.0203,2.9998,3.0103,3.0519,3.0082,2.9979,3.0158,3.0367,2.9969,0.8726,0.8954,0.8991,0.9096,0.8984,0.8625,0.7767,0.7404,0.6963,0.6026,0.5777,0.5721,0.5457,0.5739,0.604,0.6077,0.0,0.6987,0.739,0.7461,0.7416,0.7195,0.7138,0.6939,0.6437,0.6548,0.7582,1.0027,1.0332,1.1526,1.3887,1.3949,1.3653,1.3197,1.3066,1.2856,1.237,1.1864,1.1738,1.1884,1.2221,1.2047,1.1497,1.4008,1.4556,1.3605,1.5826,1.6514,1.611,1.6408,1.6354,1.6087,1.6087,1.6087,1.6004,1.6087,1.6162,1.6312,1.6312,1.6484,1.6786,1.7638,1.8228,1.8673,1.8673,1.8879,1.9222,1.9366,1.909,1.9222,2.072,2.0866,2.1104,2.3318,2.4272,2.5054,2.6109,2.6955,2.737,2.6823,2.6259,2.5942,2.6488,2.6686,2.6997,2.7542,2.727,2.6941,2.6792,2.7703,2.804,2.7347,2.749,2.7837,2.8391,2.7275,2.6876,2.7815,2.7648,2.7885,2.8845,2.7666,2.7782,2.9404,2.8762,2.9048,3.0431,2.8667,2.8358,2.9522,2.967,2.9714,0.8896,0.9025,0.9093,0.8998,0.8679,0.8214,0.756,0.7004,0.0,0.0,0.5773,0.5683,0.5385,0.594,0.6427,0.6563,0.6965,0.7394,0.7824,0.773,0.7461,0.0,0.7042,0.6742,0.6437,0.6548,0.722,0.8813,1.0149,1.2001,1.4457,1.4146,1.3734,1.3441,1.2861,1.2467,1.237,1.1667,1.1298,1.1145,1.1066,1.1231,1.1815,1.3135,1.3954,1.4549,1.569,1.6223,1.6095,1.6156,1.605,1.5824,1.5997,1.5839,1.5597,1.5922,1.5997,1.5816,1.6079,1.6245,1.6621,1.7387,1.7717,1.7858,1.8103,1.8498,1.8717,1.7996,1.8406,1.9288,2.0145,2.0245,2.0514,2.2374,2.2884,2.3145,2.3763,2.4826,2.5411,2.4924,2.5667,2.6083,2.539,2.6132,2.6662,2.6147,2.6174,2.5965,2.5408,2.6635,2.7323,2.6571,2.6889,2.7084,2.6742,2.6093,2.5958,2.6412,2.5766,2.5766,2.6635,2.5269,2.5722,2.8174,2.7776,2.8208,2.9384,2.7987,2.8804,3.1668,3.0239,2.9643,0.9127,0.9218,0.9235,0.9086,0.8655,0.8031,0.7112,0.0,0.0,0.0,0.5424,0.5547,0.5542,0.6087,0.6521,0.6702,0.6917,0.7321,0.7766,0.7709,0.7576,0.7425,0.7141,0.6939,0.6639,0.6708,0.7202,0.8456,1.0107,1.17,1.3214,1.3475,1.3459,1.3297,1.2687,1.2216,1.1814,1.1402,1.1047,1.0755,1.106,1.1105,1.1126,1.3076,1.39,1.3722,1.5209,1.5831,1.5763,1.5763,1.5673,1.5582,1.5673,1.5506,1.5257,1.5506,1.5499,1.5409,1.5658,1.5989,1.6268,1.6687,1.7068,1.7391,1.7474,1.7771,1.8054,1.7796,1.7863,1.8362,1.938,1.9705,2.0086,2.1471,2.204,2.2401,2.2838,2.3366,2.3716,2.357,2.4249,2.4743,2.4529,2.5043,2.5515,2.5372,2.5222,2.5047,2.4593,2.536,2.5949,2.5791,2.5902,2.6053,2.6165,2.5059,2.4638,2.5192,2.4033,2.3988,2.5401,2.4181,2.495,2.817,2.6394,2.5472,2.5535,2.5775,2.7429,3.0277,2.818,2.7201,0.9242,0.9334,0.9296,0.9144,0.8635,0.7865,0.6695,0.6078,0.0,0.5037,0.5117,0.5395,0.5736,0.6169,0.6453,0.0,0.6744,0.7038,0.7407,0.7587,0.7709,0.7611,0.7494,0.0,0.6989,0.7009,0.7428,0.825,0.9987,1.1444,1.2509,1.2974,1.3265,1.3098,1.2485,1.1971,1.1282,1.0959,1.0711,1.0346,1.0968,1.0983,1.0464,1.2857,1.3432,1.2674,1.4461,1.5151,1.5082,1.5257,1.5347,1.534,1.5257,1.5173,1.4999,1.4999,1.4999,1.5082,1.5235,1.5575,1.5997,1.6004,1.6484,1.6976,1.6968,1.7196,1.7466,1.758,1.7408,1.7475,1.8733,1.898,1.9172,2.0167,2.0904,2.152,2.1902,2.207,2.2251,2.2564,2.308,2.3477,2.3775,2.4125,2.4422,2.4559,2.4346,2.41,2.3862,2.41,2.4476,2.4786,2.4803,2.4986,2.5512,2.3877,2.3161,2.3771,2.2472,2.2375,2.3929,2.3329,2.4342,2.7272,2.4401,2.2719,2.2197,2.3494,2.5243,2.718,2.544,2.439,0.8943,0.9174,0.9137,0.8994,0.8401,0.7577,0.6522,0.0,0.5456,0.5015,0.5117,0.5395,0.5736,0.606,0.6222,0.6238,0.0,0.7048,0.7173,0.7678,0.79,0.7614,0.0,0.0,0.744,0.7666,0.7711,0.7484,0.9282,1.1508,1.3922,1.3898,1.3606,1.3109,1.219,1.1584,1.1282,1.059,1.0113,0.9657,0.9795,1.0043,1.0579,1.1073,1.1574,1.2157,1.3353,1.3873,1.388,1.4741,1.509,1.509,1.4824,1.4741,1.4734,1.4734,1.4734,1.4741,1.4999,1.5242,1.5477,1.565,1.6154,1.673,1.6558,1.6953,1.7395,1.6767,1.6893,1.7451,1.8404,1.7838,1.7179,1.8087,1.871,1.9239,1.9894,2.0566,2.1172,2.1888,2.2963,2.3601,2.3218,2.3654,2.3884,2.3037,2.3163,2.329,2.2917,2.2992,2.3141,2.3216,2.3762,2.4089,2.3846,2.2295,2.1587,2.1996,2.1156,2.0782,2.1243,2.2051,2.2809,2.3514,2.1487,2.1042,2.2185,2.2351,2.2539,2.2776,2.3103,2.2502,0.8766,0.9086,0.9096,0.8859,0.8099,0.7207,0.6437,0.0,0.5109,0.4952,0.5007,0.523,0.5681,0.5905,0.6003,0.6199,0.0,0.0,0.65,0.6884,0.7186,0.7486,0.7687,0.7824,0.7747,0.7611,0.7718,0.8348,0.9653,1.1344,1.3217,1.3236,1.306,1.2615,1.1678,1.1106,1.0894,1.0214,0.9791,0.9602,0.9519,0.9519,0.9864,1.0371,1.0794,1.1225,1.198,1.2747,1.3535,1.3789,1.4223,1.4824,1.4734,1.465,1.4482,1.4482,1.4405,1.4328,1.4573,1.4908,1.5242,1.5151,1.5567,1.6072,1.6154,1.642,1.6627,1.653,1.6814,1.7209,1.7766,1.7792,1.7802,1.8287,1.8792,1.9174,1.9359,2.0246,2.1182,2.1581,2.2387,2.2918,2.266,2.2854,2.2918,2.2585,2.2628,2.2628,2.2176,2.2478,2.2553,2.2327,2.28,2.2939,2.267,2.1997,2.1345,2.0876,2.0365,2.0209,2.0277,1.997,2.0227,2.1257,1.9394,1.9497,2.1625,2.1602,2.1618,2.1632,2.227,2.238,0.8128,0.8669,0.8903,0.8696,0.7851,0.6936,0.0,0.0,0.4889,0.4804,0.4842,0.5011,0.5458,0.5681,0.5845,0.0,0.0,0.6026,0.6098,0.6467,0.6792,0.7109,0.7343,0.756,0.7746,0.7495,0.783,0.9024,0.9688,1.0832,1.2526,1.2437,1.2444,1.2414,1.14,1.0792,1.0575,1.0003,0.9625,0.9519,0.9345,0.9262,0.9087,0.9589,0.9845,0.9937,1.0514,1.1375,1.2334,1.276,1.336,1.4132,1.4398,1.446,1.4436,1.4264,1.4213,1.4117,1.4271,1.4496,1.4755,1.4741,1.4985,1.5401,1.5665,1.5816,1.611,1.6445,1.69,1.7243,1.7311,1.7687,1.819,1.8087,1.8411,1.8833,1.8956,1.9989,2.0983,2.15,2.2004,2.2327,2.2327,2.2327,2.2252,2.2176,2.2176,2.1973,2.147,2.1676,2.1774,2.1264,2.1468,2.1681,2.1857,2.1282,2.0648,1.9961,1.9277,1.8937,1.8924,1.8721,1.8742,1.9009,1.7688,1.8323,2.0897,2.0684,2.0472,2.0332,2.1281,2.2048,0.7092,0.7948,0.8489,0.8486,0.7702,0.6814,0.0,0.0,0.4833,0.458,0.4736,0.4897,0.4897,0.5399,0.5681,0.5336,0.5996,0.0,0.6041,0.6565,0.6889,0.0,0.697,0.7268,0.7577,0.7639,0.8105,0.9271,0.8995,0.9836,1.2294,1.1788,1.1793,1.2704,1.1492,1.0792,1.0575,1.0104,0.9723,0.9262,0.9262,0.9087,0.8568,0.864,0.846,0.8285,0.9235,0.9666,0.984,1.1901,1.2674,1.2845,1.373,1.4262,1.4396,1.3926,1.3919,1.4209,1.4103,1.4088,1.4166,1.4573,1.4734,1.4734,1.4734,1.5191,1.587,1.6242,1.7144,1.7842,1.7171,1.7428,1.7686,1.6898,1.7087,1.7589,1.8305,1.9288,2.0467,2.1573,2.1959,2.2101,2.2101,2.2101,2.1959,2.1578,2.1655,2.1415,2.0442,2.0606,2.0581,1.998,1.9723,2.0183,2.1585,1.9869,1.8883,1.9283,1.7523,1.6579,1.6728,1.8906,1.8934,1.6515,1.6406,1.7634,2.0134,1.9365,1.8714,1.8152,1.9934,2.0994,0.5927,0.6555,0.6972,0.6782,0.6397,0.5949,0.5701,0.5108,0.4579,0.4536,0.457,0.468,0.4846,0.523,0.5491,0.5502,0.5743,0.0,0.0,0.0,0.0,0.6803,0.7567,0.7955,0.7852,0.7525,0.7345,0.7397,0.7817,0.8385,0.9041,0.9965,1.129,1.3004,1.1874,1.1233,1.1358,1.0438,0.9961,0.9995,0.9323,0.9087,0.9087,0.8552,0.8464,0.8644,0.8552,0.9327,1.0799,1.1305,1.2254,1.3385,1.373,1.3999,1.4222,1.3671,1.3919,1.4302,1.3835,1.3828,1.4082,1.3899,1.3899,1.3984,1.3984,1.4642,1.5488,1.6372,1.7049,1.752,1.7529,1.7398,1.7265,1.7147,1.7568,1.8257,1.875,1.9187,1.9793,2.1111,2.0184,1.9709,2.1185,2.0847,2.042,2.0631,2.0742,2.0422,1.9531,1.9766,1.9872,1.9515,1.9167,1.9333,2.0112,1.9024,1.8233,1.8004,1.6928,1.6494,1.7031,1.8564,1.8781,1.74,1.7141,1.739,1.8167,1.8126,1.8622,1.9549,1.9554,2.0152,0.0,0.5471,0.5947,0.5778,0.5577,0.0,0.0,0.4833,0.4519,0.4519,0.4519,0.4574,0.4736,0.4952,0.5207,0.5321,0.5393,0.5525,0.0,0.0,0.0,0.6776,0.7614,0.8089,0.7743,0.7298,0.6939,0.6539,0.6847,0.722,0.7722,0.854,0.9932,1.2277,1.1456,1.1046,1.115,1.0262,0.9789,0.9798,0.9143,0.8911,0.8907,0.8288,0.8204,0.8384,0.7852,0.8368,0.0,1.0443,1.1391,1.2522,1.3307,1.3741,1.3954,1.35,1.3655,1.4035,1.3493,1.3483,1.3659,1.3398,1.3392,1.3652,1.3828,1.4576,1.544,1.6008,1.6668,1.7124,1.7001,1.6879,1.6878,1.6871,1.7426,1.794,1.8232,1.8483,1.9049,2.0218,1.9407,1.9047,2.0535,2.0226,1.9832,1.9746,1.9752,1.9438,1.8493,1.8807,1.8975,1.8605,1.8279,1.8301,1.901,1.8135,1.7456,1.7327,1.634,1.6119,1.6821,1.7802,1.7994,1.7317,1.7053,1.704,1.7269,1.7641,1.8452,1.9586,1.9317,1.967,0.0,0.4656,0.5214,0.5214,0.5,0.0,0.0,0.4626,0.0,0.4463,0.4463,0.4522,0.4532,0.4743,0.4904,0.4875,0.5156,0.5393,0.0,0.6007,0.6293,0.6685,0.7305,0.76,0.7407,0.7115,0.6853,0.6845,0.6246,0.6403,0.7808,0.731,0.8062,1.0493,1.0513,1.0496,1.0297,0.9817,0.945,0.9016,0.8915,0.8644,0.8201,0.8028,0.7768,0.7507,0.7231,0.7228,0.7401,0.9401,1.0269,1.0529,1.2528,1.3477,1.3598,1.3236,1.3225,1.3417,1.3145,1.3052,1.3052,1.3052,1.3228,1.3483,1.3913,1.4736,1.5548,1.5109,1.5888,1.6657,1.6005,1.6151,1.6466,1.6218,1.6602,1.698,1.7007,1.7447,1.8121,1.9134,1.9334,1.9451,1.984,1.9968,1.9717,1.8794,1.8791,1.8474,1.7279,1.7726,1.7938,1.7342,1.6996,1.7187,1.8162,1.7149,1.6618,1.7042,1.5813,1.5442,1.6201,1.6677,1.6758,1.6426,1.6303,1.6623,1.7322,1.7833,1.8247,1.8572,1.9168,1.9503,0.2949,0.0,0.3668,0.3668,0.3773,0.3929,0.0,0.0,0.0,0.0,0.0,0.4553,0.4616,0.4762,0.4927,0.489,0.5166,0.545,0.5752,0.6695,0.7403,0.738,0.8014,0.8211,0.7604,0.7458,0.7152,0.6851,0.6353,0.6169,0.6176,0.6661,0.7265,0.7723,0.92,1.0166,1.0852,1.0224,0.9826,0.9741,0.9155,0.8823,0.8736,0.8288,0.8113,0.8025,0.7764,0.8109,0.8711,0.9231,0.9753,1.0443,1.1666,1.2256,1.2533,1.2715,1.3133,1.3417,1.2973,1.2705,1.2534,1.2534,1.2881,1.3137,1.3052,1.3898,1.4798,1.4697,1.4966,1.5295,1.5443,1.5444,1.5558,1.6069,1.6319,1.648,1.6671,1.619,1.6248,1.7911,1.6877,1.6349,1.8647,1.8355,1.7784,1.7697,1.7777,1.7252,1.5686,1.6016,1.6342,1.6149,1.5806,1.622,1.7736,1.6281,1.5705,1.659,1.5638,1.5473,1.6466,1.6517,1.6483,1.6409,1.614,1.6488,1.7434,1.7723,1.7998,1.8247,1.867,1.888,0.2642,0.28,0.2912,0.2912,0.3135,0.3357,0.3357,0.0,0.0,0.0,0.0,0.412,0.4195,0.4556,0.474,0.4412,0.5078,0.5709,0.6034,0.66,0.7102,0.7672,0.7852,0.7991,0.773,0.7359,0.7018,0.6645,0.6199,0.5802,0.5441,0.579,0.6173,0.6451,0.7255,0.8523,1.0233,1.0136,1.0083,0.9984,0.935,0.8999,0.8911,0.8552,0.8285,0.8201,0.8028,0.8116,0.8456,0.889,0.9235,0.9579,1.0534,1.1223,1.1761,1.1974,1.2531,1.3071,1.2667,1.2369,1.2118,1.254,1.2619,1.2619,1.2705,1.3151,1.362,1.3521,1.4084,1.4702,1.4721,1.5015,1.5538,1.5798,1.5732,1.5725,1.5718,1.4982,1.4791,1.6186,1.5191,1.4634,1.6259,1.6196,1.579,1.5195,1.574,1.5641,1.43,1.5211,1.592,1.5756,1.507,1.5195,1.6619,1.4418,1.3945,1.6227,1.5425,1.5243,1.6128,1.6127,1.6181,1.6513,1.6196,1.6531,1.7423,1.7601,1.7822,1.8084,1.807,1.8295,0.2644,0.2711,0.2725,0.2699,0.2856,0.3021,0.3021,0.0,0.0,0.0,0.0,0.0,0.3749,0.4221,0.0,0.0,0.0,0.6029,0.6576,0.6423,0.66,0.7694,0.7514,0.7518,0.787,0.7214,0.6762,0.6539,0.6037,0.5636,0.524,0.5037,0.5196,0.5796,0.5579,0.6534,0.8749,0.9543,0.9889,0.9848,0.9513,0.9174,0.8823,0.864,0.846,0.8113,0.794,0.768,0.7591,0.8281,0.8452,0.8368,0.9492,1.0361,1.1063,1.1408,1.1929,1.2534,1.2283,1.1923,1.1724,1.248,1.2366,1.19,1.2246,1.2246,1.2161,1.2076,1.3157,1.427,1.3808,1.4603,1.5416,1.5315,1.5039,1.4864,1.4574,1.3962,1.369,1.4578,1.409,1.3546,1.3896,1.4179,1.394,1.2638,1.3532,1.401,1.289,1.451,1.5701,1.5488,1.4463,1.428,1.5475,1.2618,1.217,1.5451,1.4873,1.4824,1.5682,1.5601,1.5877,1.657,1.6244,1.6437,1.7169,1.7258,1.7489,1.779,1.7368,1.7612,0.2662,0.2687,0.2703,0.2673,0.2747,0.2745,0.2745,0.0,0.0,0.0,0.0,0.0,0.0,0.4014,0.4221,0.0,0.0,0.6347,0.7343,0.7798,0.8083,0.8024,0.8033,0.8082,0.7828,0.7394,0.7065,0.7048,0.6537,0.6034,0.5536,0.5238,0.5033,0.4718,0.5417,0.6042,0.6426,0.7681,0.8739,0.9389,0.9358,0.9082,0.8636,0.8636,0.8376,0.794,0.768,0.7507,0.7507,0.7408,0.7312,0.7489,0.9226,0.9927,1.0101,1.1837,1.2198,1.1785,1.1348,1.1299,1.1288,1.112,1.1073,1.1067,1.0816,1.0816,1.0909,1.0664,1.177,1.3093,1.299,1.3413,1.4006,1.4079,1.395,1.3835,1.401,1.3145,1.2825,1.4296,1.3072,1.2188,1.3358,1.34,1.3018,1.2158,1.2774,1.276,1.1089,1.276,1.4063,1.404,1.3424,1.3672,1.5475,1.277,1.16,1.306,1.3207,1.4007,1.5614,1.5114,1.5338,1.656,1.5706,1.5605,1.6439,1.658,1.6532,1.6332,1.6531,1.6632,0.2666,0.2695,0.2702,0.2716,0.2728,0.2673,0.0,0.0,0.0,0.0,0.0,0.0,0.0,0.0,0.4426,0.5655,0.5814,0.6196,0.7309,0.7195,0.7228,0.7794,0.7733,0.7598,0.7659,0.7305,0.7006,0.6742,0.6537,0.6237,0.5839,0.5388,0.4986,0.4636,0.4743,0.5054,0.5477,0.6695,0.7763,0.886,0.913,0.9082,0.8732,0.8636,0.8372,0.8028,0.7856,0.7595,0.7507,0.7326,0.7231,0.7139,0.7925,0.8536,0.9148,1.0534,1.1332,1.1578,1.0889,1.0653,1.0816,1.0939,1.0912,1.0826,1.0656,1.0656,1.0614,1.0113,1.1122,1.2406,1.2149,1.2551,1.3022,1.3106,1.2904,1.2668,1.2993,1.2267,1.177,1.2383,1.1489,1.0715,1.1135,1.1313,1.1006,0.9884,1.071,1.1009,0.959,1.1397,1.2714,1.2642,1.1888,1.1957,1.3323,1.0605,0.985,1.244,1.3184,1.4078,1.5315,1.4974,1.5164,1.6092,1.5114,1.4985,1.5722,1.5817,1.5741,1.5412,1.5442,1.5545,0.2561,0.2723,0.2673,0.2686,0.2721,0.0,0.0,0.0,0.0,0.0,0.0,0.0,0.0,0.3457,0.0,0.5891,0.596,0.6195,0.7376,0.685,0.6691,0.7661,0.7378,0.7107,0.7517,0.722,0.6836,0.6539,0.6437,0.6237,0.5942,0.5464,0.5051,0.4602,0.4128,0.4144,0.4718,0.5626,0.6857,0.8368,0.8966,0.9174,0.8819,0.864,0.846,0.8113,0.794,0.768,0.7507,0.7415,0.7323,0.7139,0.7143,0.7845,0.8798,0.9183,0.9961,1.0784,0.9912,0.9698,0.9927,1.0419,1.0491,1.0341,1.0393,1.029,1.0101,0.9731,1.0508,1.1383,1.12,1.1595,1.2029,1.1967,1.1688,1.1477,1.175,1.1192,1.0679,1.07,1.0043,0.9418,0.909,0.9433,0.9218,0.7694,0.8808,0.932,0.8298,1.0166,1.1598,1.154,1.081,1.0372,1.0545,0.8534,0.8557,1.1493,1.2804,1.3694,1.4308,1.4091,1.4307,1.5071,1.4243,1.4116,1.4613,1.484,1.4726,1.4327,1.4139,1.4235,0.2247,0.2706,0.2709,0.2722,0.2671,0.0,0.1612,0.2097,0.0,0.1592,0.0,0.0,0.0,0.3057,0.3759,0.5385,0.6126,0.6879,0.7808,0.7856,0.7769,0.7855,0.7458,0.7214,0.7443,0.6914,0.6537,0.6742,0.6539,0.6137,0.5636,0.5629,0.5088,0.4027,0.395,0.3685,0.315,0.3997,0.5646,0.7848,0.8819,0.9082,0.8636,0.8636,0.8376,0.7944,0.768,0.7507,0.7507,0.7231,0.7139,0.7228,0.8017,0.8886,0.947,0.8781,0.8472,0.8376,0.7632,0.7843,0.8414,0.8518,0.8848,0.9207,0.9404,0.916,0.888,0.9208,0.9291,0.9409,0.9937,1.0345,1.0548,1.0341,1.0196,1.0174,1.0174,0.9834,0.9712,1.0277,0.9197,0.833,0.8484,0.8871,0.8513,0.6848,0.7625,0.8015,0.7196,0.8979,1.0503,1.0985,1.0704,0.9672,0.7683,0.8083,0.8521,0.8851,1.0944,1.2095,1.1921,1.1654,1.2011,1.3159,1.2694,1.2591,1.2892,1.3387,1.3312,1.2659,1.2659,1.2604,0.0224,0.0999,0.148,0.111,0.1453,0.0,0.0,0.206,0.1905,0.1531,0.1688,0.0,0.0,0.0,0.3683,0.5359,0.5571,0.557,0.5928,0.6116,0.622,0.6203,0.6763,0.7119,0.7119,0.677,0.6639,0.6539,0.6437,0.6237,0.5839,0.5478,0.5057,0.4485,0.3969,0.3512,0.3299,0.3965,0.48,0.5625,0.7041,0.7661,0.7485,0.776,0.794,0.7852,0.7411,0.7323,0.7507,0.7231,0.7231,0.7411,0.7764,0.8017,0.8165,0.7414,0.7476,0.7835,0.7469,0.7696,0.8238,0.8922,0.934,0.9617,0.939,0.9282,0.9048,0.8841,0.8594,0.8627,0.9223,0.9373,0.9389,0.9308,0.911,0.9127,0.9417,0.9215,0.9041,0.9108,0.8799,0.829,0.7772,0.8229,0.803,0.623,0.6807,0.7057,0.5983,0.7407,0.8675,0.8832,0.9507,0.9093,0.6915,0.7712,0.7967,0.7087,0.9482,1.1095,1.1485,1.1472,1.1826,1.257,1.201,1.1867,1.2141,1.2564,1.2393,1.1623,1.1727,1.1597,-0.1503,-0.0894,-0.0186,-0.0063,0.0,0.0,0.2409,0.2335,0.1947,0.208,0.1451,0.1121,0.1939,0.0,0.0,0.4158,0.3586,0.3219,0.3747,0.4131,0.4427,0.4351,0.5546,0.6234,0.6037,0.6439,0.6639,0.6437,0.6337,0.6239,0.6139,0.5541,0.5123,0.4891,0.4166,0.3706,0.3493,0.3907,0.4008,0.3815,0.5255,0.5977,0.6242,0.6962,0.7319,0.7316,0.7319,0.7411,0.7507,0.7411,0.7411,0.7507,0.7326,0.7228,0.7031,0.6292,0.6328,0.6822,0.6619,0.6792,0.7348,0.8248,0.8711,0.8779,0.852,0.8462,0.8434,0.8198,0.7987,0.8069,0.8575,0.8575,0.8369,0.8369,0.8181,0.8087,0.8239,0.8248,0.8095,0.7996,0.7967,0.7813,0.7138,0.7715,0.7565,0.5719,0.6179,0.6317,0.5179,0.6395,0.7415,0.7633,0.866,0.8498,0.6523,0.7323,0.7391,0.617,0.8174,0.9687,1.0262,1.0471,1.0876,1.1398,1.0922,1.0746,1.1004,1.1425,1.1268,1.0696,1.0685,1.0628,-0.2722,-0.2664,-0.2262,0.0,0.0,0.0,0.2277,0.2688,0.2821,0.3136,0.1495,0.0,0.0,0.15,0.0,0.174,0.0291,-0.0202,0.1339,0.2236,0.2732,0.2577,0.3662,0.4429,0.4429,0.5632,0.6337,0.6334,0.6139,0.6139,0.6334,0.5834,0.5389,0.5092,0.4808,0.4244,0.3422,0.3421,0.3171,0.2783,0.3546,0.4289,0.4996,0.6242,0.6511,0.6157,0.7316,0.7768,0.7503,0.7768,0.7768,0.7418,0.6972,0.6612,0.6325,0.5502,0.5119,0.4849,0.4568,0.4782,0.5388,0.6096,0.6376,0.6411,0.6624,0.6631,0.6747,0.7284,0.745,0.7598,0.7936,0.777,0.748,0.748,0.7305,0.7066,0.6669,0.6626,0.6743,0.6828,0.6738,0.656,0.656,0.7242,0.718,0.5431,0.5796,0.594,0.515,0.6083,0.7086,0.7806,0.8372,0.7988,0.6308,0.6806,0.6854,0.6152,0.7076,0.777,0.7925,0.8193,0.8748,0.9448,0.9168,0.9101,0.9274,0.9803,1.0001,0.9792,0.9501,0.9499,-0.2717,-0.2219,0.0,-0.1897,0.0,0.0,0.0,0.0832,0.0,0.0,0.1669,0.1789,0.0274,-0.0187,0.0377,0.2411,0.0389,-0.1213,-0.0711,0.0404,0.111,0.1014,0.2222,0.302,0.302,0.4227,0.5003,0.4837,0.5723,0.6087,0.5615,0.5681,0.5379,0.4801,0.4522,0.4276,0.388,0.3413,0.3164,0.3039,0.3013,0.3538,0.4463,0.5237,0.5539,0.5625,0.5625,0.598,0.6776,0.7757,0.776,0.7231,0.7499,0.6969,0.6166,0.5951,0.5447,0.4942,0.5414,0.5768,0.6099,0.661,0.6771,0.6846,0.719,0.6624,0.5931,0.6213,0.6276,0.6245,0.6211,0.6186,0.625,0.6663,0.6421,0.607,0.5952,0.5792,0.5725,0.577,0.5815,0.5785,0.5488,0.636,0.6417,0.4567,0.516,0.5796,0.5868,0.6222,0.6722,0.7375,0.8231,0.7988,0.6113,0.6613,0.6664,0.5773,0.6888,0.759,0.7737,0.7984,0.8452,0.9139,0.8685,0.8747,0.9274,0.9501,0.9598,0.9494,0.9215,0.9151,-0.2727,-0.2275,0.0,-0.2117,-0.166,-0.1301,-0.2105,0.0,0.0,0.0,0.0571,0.1217,-0.0096,-0.0874,-0.0684,0.1057,-0.0296,-0.1617,-0.1617,-0.0908,-0.0404,-0.0404,0.0806,0.1611,0.1611,0.2819,0.3595,0.3526,0.4206,0.4657,0.4759,0.4628,0.4628,0.4759,0.4481,0.4158,0.3974,0.3427,0.318,0.2953,0.2856,0.3115,0.3648,0.4395,0.4703,0.4648,0.4648,0.5359,0.6688,0.7044,0.7312,0.7492,0.7499,0.7058,0.6428,0.6113,0.5664,0.5304,0.5642,0.5725,0.5615,0.5906,0.5612,0.5314,0.5726,0.5271,0.4681,0.5002,0.5177,0.5182,0.5208,0.502,0.5015,0.5765,0.5504,0.5144,0.5095,0.4867,0.472,0.4793,0.4905,0.4937,0.4792,0.5751,0.5939,0.4364,0.4561,0.5142,0.592,0.5983,0.612,0.669,0.7608,0.7413,0.5638,0.6148,0.6242,0.5428,0.6527,0.72,0.721,0.7603,0.8201,0.8759,0.8143,0.8153,0.8799,0.8895,0.8949,0.9029,0.8703,0.8576,-0.2665,-0.2734,-0.253,-0.1742,-0.2052,0.0,-0.1743,-0.1555,-0.1612,-0.1609,0.0,-0.0891,-0.0906,-0.0897,-0.099,-0.1511,-0.1617,-0.1617,-0.1617,-0.1617,-0.1617,-0.1617,-0.0504,0.0202,0.0202,0.1408,0.2192,0.2248,0.2143,0.2508,0.3591,0.3161,0.3436,0.4727,0.4276,0.3867,0.368,0.3495,0.3247,0.2862,0.2831,0.2831,0.287,0.3653,0.3868,0.3578,0.4202,0.5359,0.6694,0.5985,0.6517,0.7845,0.7041,0.6868,0.7034,0.6183,0.5803,0.5713,0.5368,0.4966,0.4572,0.4408,0.363,0.2837,0.3076,0.3109,0.321,0.3756,0.4057,0.4257,0.447,0.4054,0.3752,0.464,0.4629,0.4301,0.4206,0.3904,0.3765,0.3916,0.3987,0.4126,0.4357,0.5352,0.573,0.4605,0.3973,0.4109,0.5434,0.5503,0.5493,0.5823,0.6736,0.6591,0.486,0.5588,0.5857,0.5111,0.6054,0.6531,0.6366,0.7135,0.7845,0.8415,0.753,0.7417,0.8046,0.8025,0.8149,0.8352,0.8034,0.7919,-0.2675,-0.2691,0.0,-0.2487,-0.2087,-0.1685,-0.157,-0.1584,-0.1575,-0.1648,-0.148,-0.1408,-0.1414,-0.141,-0.1508,-0.1615,-0.1617,-0.1617,-0.1617,-0.1617,-0.1617,-0.1617,-0.1313,-0.1212,-0.1212,-0.0099,0.0586,0.0479,0.1225,0.1665,0.1721,0.1713,0.2074,0.2811,0.3069,0.3307,0.3524,0.3522,0.3304,0.2966,0.281,0.2749,0.2785,0.3098,0.3038,0.2781,0.3491,0.3937,0.4117,0.4823,0.5447,0.5888,0.5959,0.643,0.7044,0.6254,0.6042,0.6008,0.5485,0.5352,0.524,0.394,0.3747,0.3716,0.2699,0.2599,0.2746,0.235,0.2392,0.2351,0.1811,0.2041,0.2264,0.1734,0.2884,0.3956,0.3529,0.3459,0.3551,0.3559,0.3459,0.3399,0.3543,0.4619,0.5292,0.4795,0.3563,0.3279,0.5008,0.5161,0.5323,0.561,0.6751,0.6584,0.435,0.5061,0.5371,0.4803,0.5578,0.6075,0.6177,0.6513,0.7064,0.7855,0.6861,0.6743,0.7571,0.7448,0.7449,0.751,0.7445,0.7449,-0.2164,0.0,0.0,-0.2084,0.0,-0.1421,-0.1563,-0.1573,-0.1567,-0.1648,-0.1585,-0.1612,-0.1598,-0.1595,-0.159,-0.1576,-0.1585,-0.1595,-0.1595,-0.1608,-0.1617,-0.1617,-0.1704,-0.1695,-0.1695,-0.1273,-0.1055,-0.1128,-0.0557,-0.0091,0.0179,0.0357,0.0715,0.1432,0.152,0.169,0.2025,0.2202,0.2279,0.2257,0.2605,0.2796,0.2828,0.2769,0.2694,0.2694,0.2689,0.3045,0.3583,0.3846,0.465,0.563,0.5205,0.5577,0.6157,0.5349,0.5323,0.5526,0.5012,0.5208,0.5443,0.4261,0.3589,0.3185,0.2989,0.241,0.1849,0.1772,0.1209,0.0517,0.0438,0.05,0.0489,0.021,0.1781,0.3046,0.2082,0.2213,0.2548,0.2445,0.2518,0.2657,0.2807,0.3504,0.4214,0.4621,0.3447,0.3038,0.4509,0.4722,0.4554,0.4278,0.5765,0.5554,0.2326,0.3369,0.3778,0.294,0.4119,0.4931,0.5026,0.5715,0.6484,0.7313,0.6276,0.6174,0.6983,0.6927,0.6987,0.7157,0.7035,0.709,-0.1779,0.0,-0.1721,-0.1821,-0.1908,0.0,-0.1613,-0.1538,-0.1551,-0.1562,-0.1588,-0.1601,-0.1576,-0.1567,-0.1555,-0.153,-0.1547,-0.1564,-0.1661,-0.1685,-0.1701,-0.1701,-0.1777,-0.1857,-0.1857,-0.2113,-0.2263,-0.2225,-0.2307,-0.1919,-0.1165,-0.1074,-0.0626,0.0268,-0.0,-0.0,0.0267,0.0717,0.0987,0.116,0.2151,0.2608,0.2617,0.2517,0.2604,0.2784,0.2154,0.251,0.3492,0.2867,0.376,0.5275,0.4362,0.4457,0.4999,0.4439,0.4497,0.4832,0.4369,0.4794,0.5517,0.4582,0.3524,0.2663,0.3196,0.2302,0.1056,0.1353,0.0222,-0.094,-0.0567,-0.0982,-0.1391,-0.0887,0.0473,0.1429,0.0426,0.0779,0.1262,0.1057,0.1367,0.1734,0.2146,0.2179,0.2523,0.3709,0.2874,0.248,0.368,0.3816,0.3531,0.2766,0.4394,0.4009,0.0188,0.1199,0.1734,0.087,0.238,0.3447,0.3738,0.475,0.5607,0.6236,0.5644,0.569,0.6478,0.6478,0.6685,0.7044,0.6824,0.6858,-0.2573,0.0,-0.3334,0.0,-0.3776,-0.3459,0.0,0.0,-0.1468,0.0,-0.1556,-0.1577,-0.1572,-0.155,-0.1531,-0.1527,-0.153,-0.1628,-0.1819,-0.1824,-0.1827,-0.1827,-0.1919,-0.1915,-0.1915,-0.207,-0.2322,-0.2501,-0.2734,-0.2792,-0.2603,-0.2603,-0.2154,-0.1166,-0.1094,-0.0723,-0.0,0.0271,0.0271,0.0087,0.1156,0.1539,0.1563,0.2171,0.2513,0.2513,0.2244,0.2154,0.2062,0.1704,0.1793,0.2057,0.2633,0.3172,0.3657,0.428,0.4697,0.4746,0.3628,0.4382,0.5583,0.4265,0.4075,0.4055,0.2287,0.1891,0.1654,-0.0147,-0.0874,-0.1235,-0.2029,-0.2635,-0.2956,-0.2797,-0.2085,-0.1344,-0.0744,-0.0069,0.0281,0.0072,-0.0074,0.03,0.1338,0.0429,-0.007,0.1077,0.0346,0.0201,0.1604,0.1804,0.2033,0.2618,0.2994,0.212,-0.0401,-0.0478,-0.018,0.0449,0.1327,0.2173,0.3098,0.329,0.3414,0.3526,0.4498,0.5398,0.631,0.631,0.6504,0.683,0.683,0.6847,-0.3245,-0.419,-0.4941,0.0,-0.4411,-0.4185,-0.3145,-0.2969,-0.2977,-0.3251,-0.2733,-0.2185,-0.1616,-0.151,-0.1495,-0.1478,-0.1489,-0.15,-0.1688,-0.1705,-0.1717,-0.1717,-0.1794,-0.1876,-0.1876,-0.2118,-0.2457,-0.2548,-0.2798,-0.2875,-0.2875,-0.2875,-0.2694,-0.2243,-0.2287,-0.2199,-0.1709,-0.119,-0.0637,-0.0,0.0446,0.054,0.0363,0.1439,0.2152,0.2694,0.2154,0.1974,0.1974,0.1615,0.1436,0.1434,0.1775,0.2045,0.2322,0.2686,0.2151,0.129,0.1648,0.2837,0.4279,0.4427,0.4039,0.3366,0.2344,0.133,0.0289,-0.0428,-0.1338,-0.2087,-0.23,-0.2694,-0.2951,-0.3057,-0.2872,-0.2684,-0.2547,-0.1663,-0.0936,-0.0887,-0.0732,-0.0218,0.0956,0.0,-0.055,0.0423,-0.0343,-0.0602,0.0736,0.0802,0.0789,0.0693,0.0979,0.0129,-0.2429,-0.2334,-0.2031,-0.184,-0.0874,0.0118,0.1138,0.0825,0.143,0.3161,0.3686,0.4314,0.5085,0.5663,0.6173,0.6551,0.6515,0.6585,0.0,0.0,-0.5596,-0.5148,-0.5102,-0.4999,0.0,0.0,-0.4459,-0.4641,-0.3934,-0.3116,-0.2474,-0.1927,-0.1462,-0.1439,-0.1455,-0.1469,-0.1561,-0.1582,-0.1597,-0.1597,-0.1669,-0.1837,-0.1837,-0.2174,-0.2424,-0.2513,-0.2784,-0.2875,-0.2875,-0.2875,-0.2875,-0.2875,-0.3112,-0.3137,-0.2937,-0.2385,-0.1739,-0.0819,-0.054,-0.0538,-0.0721,0.0269,0.1254,0.1973,0.1884,0.1974,0.2064,0.1615,0.1436,0.1525,0.1436,0.1431,0.1333,0.0962,0.0087,-0.0863,-0.0996,0.0327,0.2355,0.3398,0.3001,0.2028,0.1705,0.0359,-0.1045,-0.1041,-0.1775,-0.2554,-0.249,-0.2622,-0.2889,-0.3092,-0.3293,-0.3507,-0.3689,-0.2954,-0.2181,-0.1877,-0.153,-0.1065,-0.0072,-0.0838,-0.1362,-0.0555,-0.1428,-0.1737,-0.0737,-0.0468,-0.0725,-0.1525,-0.0983,-0.1549,-0.4094,-0.3575,-0.326,-0.3644,-0.293,-0.1873,-0.0509,-0.1135,-0.0365,0.2075,0.2245,0.3082,0.4561,0.5062,0.5358,0.5434,0.5474,0.5603,0.0,-0.3743,0.0,-0.5802,-0.6447,-0.6354,0.0,0.0,-0.5075,-0.4639,-0.4565,-0.4565,-0.4739,-0.2957,-0.1437,-0.1436,-0.1437,-0.1527,-0.1708,-0.1799,-0.18,-0.18,-0.1798,-0.1798,-0.1798,-0.2065,-0.2334,-0.2513,-0.2784,-0.2875,-0.2875,-0.2875,-0.2875,-0.2875,-0.3021,-0.3023,-0.2879,-0.2877,-0.284,-0.2943,-0.2098,-0.1718,-0.1843,-0.1264,-0.0805,-0.0447,0.1434,0.2064,0.1794,0.1525,0.1525,0.1794,0.1525,0.1418,0.122,-0.0347,-0.0,0.052,-0.4238,-0.3522,-0.0332,0.0079,0.0383,0.0446,-0.0778,-0.1324,-0.1664,-0.2575,-0.2557,-0.2356,-0.2958,-0.3159,-0.3226,-0.3431,-0.3899,-0.4089,-0.3511,-0.3486,-0.3416,-0.2998,-0.3036,-0.2838,-0.226,-0.3061,-0.3628,-0.3142,-0.3888,-0.4225,-0.3766,-0.2889,-0.2694,-0.348,-0.2471,-0.2501,-0.4528,-0.3777,-0.3392,-0.3764,-0.4166,-0.3384,-0.1234,-0.1816,-0.1787,-0.1047,-0.0367,0.1917,0.578,0.4794,0.3848,0.2985,0.3213,0.3418,0.0,0.0,0.0,-0.5102,-0.5659,-0.5826,-0.5671,-0.5924,-0.6232,-0.6276,-0.5926,-0.5622,-0.5883,-0.473,-0.3753,-0.3753,-0.3753,-0.3486,-0.2774,-0.2685,-0.2418,-0.1614,-0.1525,-0.1525,-0.1525,-0.1974,-0.2154,-0.2064,-0.2603,-0.2784,-0.2694,-0.2784,-0.2875,-0.2875,-0.2929,-0.2948,-0.2928,-0.2781,-0.2855,-0.3054,-0.2869,-0.2858,-0.3109,-0.2233,-0.1879,-0.2059,-0.0537,0.0448,0.1164,0.1704,0.1884,0.1794,0.1705,0.1062,0.0174,0.0434,-0.0172,-0.1184,-0.224,-0.195,-0.0954,-0.0924,-0.1035,-0.135,-0.2233,-0.2951,-0.3518,-0.4028,-0.4018,-0.3954,-0.4154,-0.3889,-0.3627,-0.3694,-0.3828,-0.4001,-0.4007,-0.4012,-0.389,-0.3591,-0.3615,-0.3499,-0.2907,-0.365,-0.411,-0.3554,-0.4295,-0.4558,-0.3563,-0.3291,-0.3216,-0.3402,-0.2598,-0.2779,-0.4657,-0.4133,-0.3804,-0.4056,-0.3837,-0.3194,-0.1944,-0.2184,-0.218,-0.1908,-0.1555,-0.0062,0.2631,0.2654,0.2673,0.2689,0.1912,0.1978,-0.3191,0.0,0.0,0.0,-0.4898,-0.5323,-0.5952,-0.6373,-0.6764,-0.7303,-0.7034,-0.6779,-0.7044,-0.6599,-0.5977,-0.5176,-0.4999,-0.473,-0.3931,-0.3842,-0.3486,-0.2685,-0.2596,-0.2417,-0.206,-0.2419,-0.242,-0.1884,-0.2334,-0.2604,-0.2513,-0.2694,-0.2784,-0.2784,-0.2928,-0.2959,-0.2867,-0.2792,-0.2837,-0.3074,-0.3247,-0.3498,-0.3649,-0.2995,-0.2936,-0.3314,-0.2058,-0.0895,0.0179,0.0627,0.1076,0.1255,0.0711,0.0263,0.0,0.0086,-0.0425,-0.117,-0.1555,-0.1835,-0.217,-0.2778,-0.3097,-0.3324,-0.3776,-0.44,-0.4942,-0.4945,-0.4878,-0.4815,-0.5014,-0.4815,-0.4616,-0.4683,-0.4785,-0.4907,-0.5133,-0.4643,-0.4107,-0.393,-0.3937,-0.3818,-0.3323,-0.4056,-0.4453,-0.3849,-0.4607,-0.4888,-0.3692,-0.3689,-0.3738,-0.3643,-0.2855,-0.3113,-0.4962,-0.4385,-0.4056,-0.4364,-0.3705,-0.3101,-0.2536,-0.2607,-0.2442,-0.2067,-0.2129,-0.1506,-0.0,0.0526,0.0991,0.125,0.0253,0.0061,0.0,0.0,0.0,0.0,0.0,0.0,-0.6054,-0.6424,-0.6711,-0.7429,-0.7726,-0.8032,-0.848,-0.8568,-0.7848,-0.5442,-0.5087,-0.5087,-0.5085,-0.5085,-0.4999,-0.4999,-0.4999,-0.4552,-0.3396,-0.3487,-0.3133,-0.1973,-0.2064,-0.2334,-0.2513,-0.2513,-0.2513,-0.2513,-0.2837,-0.2866,-0.2589,-0.299,-0.3047,-0.2953,-0.3432,-0.3654,-0.3471,-0.3734,-0.3953,-0.421,-0.2865,-0.1879,-0.1253,-0.1611,-0.0985,0.0179,-0.1572,-0.0954,0.0607,-0.1606,-0.0839,0.0838,-0.2529,-0.3746,-0.4112,-0.5828,-0.598,-0.5467,-0.5593,-0.5811,-0.5804,-0.5338,-0.5011,-0.5014,-0.5481,-0.587,-0.6191,-0.6396,-0.6731,-0.6929,-0.6716,-0.5309,-0.4128,-0.4245,-0.4107,-0.3894,-0.3553,-0.4225,-0.4694,-0.4356,-0.5084,-0.5282,-0.442,-0.4287,-0.4259,-0.4198,-0.3303,-0.3492,-0.542,-0.452,-0.4073,-0.4666,-0.3842,-0.3236,-0.3014,-0.3036,-0.2691,-0.1803,-0.231,-0.2277,-0.161,-0.1305,-0.1288,-0.1543,-0.1634,-0.2252,-0.336,0.0,0.0,0.0,0.0,0.0,-0.5499,-0.6039,-0.6499,-0.69,-0.7323,-0.7683,-0.7771,-0.7948,-0.7852,-0.7228,-0.7404,-0.7312,-0.6422,-0.6334,-0.5977,-0.5087,-0.4999,-0.4907,-0.4552,-0.4734,-0.4289,-0.2953,-0.3224,-0.3047,-0.2063,-0.2154,-0.2424,-0.2784,-0.2565,-0.2555,-0.2745,-0.268,-0.2807,-0.3096,-0.3191,-0.3374,-0.3648,-0.3621,-0.369,-0.3765,-0.3496,-0.3405,-0.331,-0.1877,-0.1327,-0.1483,-0.1145,-0.1388,-0.1945,-0.214,-0.1852,-0.1466,-0.207,-0.3146,-0.4486,-0.5412,-0.6014,-0.6406,-0.6688,-0.6802,-0.6868,-0.6933,-0.6933,-0.6868,-0.6601,-0.6724,-0.685,-0.6654,-0.6692,-0.673,-0.68,-0.656,-0.6051,-0.5208,-0.4787,-0.4495,-0.4161,-0.4824,-0.5223,-0.4761,-0.5418,-0.5613,-0.442,-0.4422,-0.4457,-0.4198,-0.3434,-0.3731,-0.5698,-0.4934,-0.4652,-0.5284,-0.4268,-0.3554,-0.3203,-0.2975,-0.2561,-0.1933,-0.2692,-0.2853,-0.2524,-0.1984,-0.1804,-0.1866,-0.2238,-0.2861,0.0,0.0,0.0,0.0,0.0,0.0,-0.5519,-0.5949,-0.6293,-0.677,-0.7188,-0.7425,-0.7669,-0.7768,-0.7944,-0.7944,-0.812,-0.8032,-0.7316,-0.7312,-0.7132,-0.6416,-0.6419,-0.6334,-0.5797,-0.5891,-0.5445,-0.402,-0.42,-0.3846,-0.2598,-0.2778,-0.278,-0.2604,-0.2453,-0.244,-0.2644,-0.2718,-0.2831,-0.3136,-0.3035,-0.3205,-0.3564,-0.3394,-0.3469,-0.3719,-0.3753,-0.4123,-0.4476,-0.3129,-0.2571,-0.2626,-0.2954,-0.2851,-0.2579,-0.3246,-0.3265,-0.3008,-0.3919,-0.5439,-0.7068,-0.6737,-0.7063,-0.7503,-0.7292,-0.7269,-0.7466,-0.7666,-0.7862,-0.7927,-0.7517,-0.7767,-0.8086,-0.7767,-0.7831,-0.8027,-0.7844,-0.7773,-0.7451,-0.6352,-0.6074,-0.5873,-0.5547,-0.6133,-0.6523,-0.6067,-0.64,-0.6282,-0.5243,-0.4874,-0.4697,-0.4534,-0.3779,-0.4075,-0.6147,-0.5317,-0.4972,-0.5715,-0.4593,-0.3832,-0.3532,-0.3227,-0.282,-0.2277,-0.3131,-0.3492,-0.3375,-0.2739,-0.2513,-0.2789,-0.3166,-0.3727,0.0,0.0,0.0,0.0,-0.5103,0.0,-0.5896,-0.6003,-0.6239,-0.6863,-0.718,-0.7374,-0.7692,-0.782,-0.7831,-0.7831,-0.7861,-0.7815,-0.7937,-0.8113,-0.8201,-0.8201,-0.8384,-0.812,-0.7048,-0.6956,-0.6511,-0.5176,-0.4996,-0.4554,-0.3846,-0.3937,-0.3582,-0.269,-0.2691,-0.2686,-0.2763,-0.2918,-0.2943,-0.3017,-0.3049,-0.3104,-0.3262,-0.3084,-0.3321,-0.3828,-0.3732,-0.4121,-0.4921,-0.4912,-0.437,-0.3726,-0.5724,-0.473,-0.2472,-0.4814,-0.4964,-0.441,-0.7153,-0.9168,-1.0401,-0.9028,-0.8737,-0.871,-0.7844,-0.771,-0.7887,-0.7802,-0.8187,-0.8511,-0.8366,-0.8941,-0.946,-0.9145,-0.9581,-0.9886,-0.9281,-0.8941,-0.8471,-0.7606,-0.7562,-0.7623,-0.7307,-0.7822,-0.814,-0.7812,-0.7716,-0.7336,-0.6513,-0.5763,-0.5314,-0.5385,-0.454,-0.4793,-0.685,-0.5901,-0.5524,-0.6312,-0.5083,-0.4324,-0.4346,-0.3776,-0.3344,-0.303,-0.3876,-0.4259,-0.4189,-0.343,-0.337,-0.4024,-0.4201,-0.4592,0.0,0.0,0.0,0.0,-0.5787,0.0,-0.6062,-0.6156,-0.6344,-0.658,-0.6861,-0.7053,-0.7165,-0.7282,-0.7446,-0.7446,-0.7364,-0.7466,-0.7819,-0.8113,-0.8113,-0.794,-0.83,-0.8388,-0.7764,-0.8028,-0.7584,-0.598,-0.4999,-0.4645,-0.5003,-0.4648,-0.4736,-0.5359,-0.4204,-0.3785,-0.4077,-0.3207,-0.2836,-0.2947,-0.2864,-0.289,-0.3093,-0.3023,-0.3065,-0.3303,-0.3905,-0.4297,-0.4559,-0.5616,-0.5832,-0.5572,-0.5632,-0.5292,-0.4974,-0.6943,-0.7144,-0.6769,-0.949,-1.0289,-1.0108,-0.9909,-0.9869,-0.9931,-1.0083,-0.9524,-0.8799,-0.8429,-0.8635,-0.8958,-0.9075,-0.9408,-0.9734,-0.967,-0.9835,-0.993,-0.9532,-0.9602,-0.959,-0.9139,-0.835,-0.7632,-0.7367,-0.8081,-0.8474,-0.814,-0.8676,-0.8706,-0.7673,-0.7708,-0.7787,-0.7735,-0.6889,-0.7077,-0.8875,-0.8138,-0.7955,-0.8704,-0.6898,-0.6162,-0.6904,-0.5033,-0.4439,-0.549,-0.5569,-0.5349,-0.4723,-0.4128,-0.4183,-0.4723,-0.4727,-0.5096,0.0,0.0,-0.6314,-0.6314,-0.6314,0.0,0.0,-0.6472,-0.6639,-0.6668,-0.6836,-0.7096,-0.7104,-0.7263,-0.7322,-0.7322,-0.7221,-0.7278,-0.7525,-0.7729,-0.7852,-0.768,-0.8032,-0.812,-0.7944,-0.812,-0.794,-0.7048,-0.6511,-0.6154,-0.5888,-0.5885,-0.58,-0.5714,-0.5212,-0.5068,-0.5274,-0.4739,-0.4274,-0.3861,-0.3689,-0.343,-0.2981,-0.3014,-0.3214,-0.3587,-0.3886,-0.4365,-0.4932,-0.531,-0.559,-0.5963,-0.6282,-0.6175,-0.6176,-0.8089,-0.8839,-0.8995,-1.1015,-1.165,-1.154,-1.1179,-1.1128,-1.1026,-1.0886,-1.0245,-0.9458,-0.8896,-0.9017,-0.9268,-0.9472,-0.9798,-0.9989,-0.9926,-1.018,-1.0238,-0.9786,-0.9856,-0.9919,-0.9588,-0.9075,-0.8748,-0.8672,-0.925,-0.9703,-0.9633,-0.9888,-0.9792,-0.8834,-0.8606,-0.8436,-0.8352,-0.7665,-0.7892,-0.957,-0.8957,-0.8836,-0.9582,-0.8023,-0.735,-0.7947,-0.6578,-0.6289,-0.7372,-0.7105,-0.7004,-0.6951,-0.6649,-0.6094,-0.523,-0.523,-0.5559,-0.6426,-0.6552,-0.6763,-0.6763,-0.6763,-0.6755,0.0,0.0,0.0,-0.6825,-0.6958,-0.713,-0.727,-0.7319,-0.7331,-0.7298,-0.7243,-0.7224,-0.7291,-0.7345,-0.7494,-0.7494,-0.769,-0.783,-0.7767,-0.7759,-0.7785,-0.7852,-0.7967,-0.7599,-0.677,-0.7037,-0.6861,-0.6068,-0.6219,-0.6291,-0.6383,-0.6244,-0.5852,-0.5107,-0.4905,-0.4396,-0.3596,-0.358,-0.3934,-0.4497,-0.427,-0.4662,-0.5518,-0.4935,-0.5059,-0.5733,-0.6722,-0.6927,-0.6874,-0.8706,-0.9896,-1.0693,-1.1932,-1.2673,-1.3004,-1.2377,-1.2182,-1.2009,-1.1214,-1.0657,-1.0186,-0.9596,-0.9582,-0.9907,-0.9983,-1.0238,-1.0428,-1.0238,-1.0491,-1.0661,-1.0046,-1.0009,-0.9964,-0.9642,-0.9691,-0.9862,-1.0047,-1.0548,-1.0989,-1.1185,-1.1142,-1.0781,-1.0093,-0.9522,-0.9149,-0.9034,-0.8562,-0.8798,-1.0159,-0.9749,-0.9653,-1.0254,-0.9182,-0.8628,-0.8804,-0.8473,-0.8438,-0.8841,-0.8664,-0.8751,-0.9176,-0.9176,-0.82,-0.6327,-0.6327,-0.6579,-0.7049,-0.7222,-0.7423,-0.7423,-0.7423,-0.7376,-0.7133,0.0,-0.7091,-0.6837,0.0,-0.7177,-0.72,0.0,0.0,-0.7233,-0.7289,-0.7288,-0.7142,-0.7244,-0.7285,-0.7285,-0.7663,-0.774,-0.7279,-0.725,-0.7455,-0.7834,-0.7499,-0.7539,-0.8006,-0.7848,-0.8028,-0.8468,-0.7735,-0.7313,-0.7279,-0.6636,-0.6114,-0.5875,-0.5993,-0.6001,-0.5906,-0.5921,-0.6028,-0.6083,-0.58,-0.5613,-0.5558,-0.5243,-0.5279,-0.5529,-0.5863,-0.6729,-0.786,-0.908,-1.011,-1.1148,-1.2238,-1.2599,-1.2666,-1.2785,-1.2877,-1.2733,-1.1861,-1.1611,-1.1488,-1.0918,-1.0905,-1.1052,-1.0926,-1.1052,-1.1122,-1.08,-1.0744,-1.0732,-1.0451,-1.0367,-1.0229,-0.9962,-0.9875,-0.9932,-1.0238,-1.0807,-1.1365,-1.1677,-1.2089,-1.2181,-1.1618,-1.165,-1.1616,-1.1498,-1.1109,-1.1165,-1.1972,-1.1953,-1.1848,-1.1664,-1.0792,-1.0545,-1.1108,-1.1049,-1.0656,-0.9781,-1.0328,-1.038,-0.9812,-0.9812,-0.9542,-0.8946,-0.8946,-0.9147,-0.7307,-0.7442,-0.7423,-0.7518,-0.744,-0.7369,-0.7258,-0.7312,-0.734,-0.7073,0.0,0.0,0.0,0.0,0.0,0.0,-0.7419,-0.7412,-0.7368,-0.7287,-0.7322,-0.7322,-0.7426,-0.7464,-0.7191,-0.7193,-0.7267,-0.7401,-0.7552,-0.7707,-0.8021,-0.8292,-0.8648,-0.8911,-0.8644,-0.8515,-0.8525,-0.817,-0.7733,-0.7031,-0.7139,-0.6925,-0.6503,-0.6341,-0.6508,-0.6925,-0.6427,-0.6548,-0.6965,-0.704,-0.7296,-0.771,-0.7571,-0.7525,-0.77,-0.8673,-0.9453,-1.0126,-1.0645,-1.1168,-1.162,-1.1929,-1.2145,-1.2064,-1.1275,-1.1242,-1.1354,-1.0654,-1.0717,-1.1062,-1.1056,-1.1059,-1.1125,-1.106,-1.0668,-1.0319,-1.0388,-1.0021,-0.9691,-0.9442,-0.9394,-0.9472,-0.9913,-1.0581,-1.1199,-1.1684,-1.2118,-1.2297,-1.1902,-1.2054,-1.2107,-1.1864,-1.1669,-1.1786,-1.2254,-1.2337,-1.2348,-1.2286,-1.1914,-1.1776,-1.2036,-1.1621,-1.1414,-1.1464,-1.1327,-1.1238,-1.1318,-1.1318,-1.1302,-1.1327,-1.0066,-0.9583,-0.7446,-0.744,-0.7425,-0.7494,-0.7486,-0.7386,-0.7278,-0.7416,-0.7478,-0.7335,-0.7421,0.0,0.0,0.0,0.0,0.0,0.0,-0.765,-0.7618,-0.7729,-0.769,-0.74,-0.7343,-0.7318,-0.7273,-0.7148,-0.7144,-0.7097,-0.7415,-0.7711,-0.7937,-0.8384,-0.8648,-0.8828,-0.9087,-0.9174,-0.9087,-0.9257,-0.899,-0.8189,-0.8313,-0.8064,-0.7477,-0.7353,-0.757,-0.7957,-0.7407,-0.7626,-0.8308,-0.8436,-0.8846,-0.9404,-0.9064,-0.8647,-0.8185,-0.8558,-0.8927,-0.9382,-0.9755,-1.0271,-1.0944,-1.1254,-1.1508,-1.1481,-1.1075,-1.1171,-1.1326,-1.0767,-1.0963,-1.1289,-1.127,-1.1293,-1.1323,-1.1323,-1.0951,-1.0634,-1.0753,-1.0299,-0.9824,-0.968,-0.9412,-0.9466,-1.0091,-1.054,-1.1005,-1.1616,-1.2107,-1.2324,-1.2063,-1.2214,-1.223,-1.1945,-1.2012,-1.2089,-1.2314,-1.2514,-1.2615,-1.2565,-1.2444,-1.2332,-1.2382,-1.1841,-1.1914,-1.2767,-1.2138,-1.2064,-1.2572,-1.2572,-1.2677,-1.2824,-1.1192,-1.0493,-0.7364,-0.7371,-0.7425,-0.7494,-0.7466,-0.747,-0.7517,-0.7517,-0.7521,-0.7517,-0.7517,-0.7521,-0.7521,0.0,0.0,0.0,0.0,0.0,0.0,-0.851,-0.8609,-0.763,-0.7445,-0.7398,-0.7306,-0.7203,-0.7096,-0.7177,-0.7064,-0.7263,-0.783,-0.7944,-0.812,-0.8568,-0.8828,-0.8828,-0.8656,-0.9257,-0.9519,-0.9257,-0.9662,-0.9812,-0.9788,-0.9751,-0.9697,-0.9493,-0.9128,-0.8988,-0.898,-0.8768,-0.905,-0.9634,-0.9683,-0.9927,-1.0186,-0.9077,-0.8937,-0.9397,-1.0218,-1.0738,-1.1111,-1.1335,-1.1303,-1.1299,-1.1864,-1.1943,-1.1913,-1.2065,-1.2303,-1.23,-1.1733,-1.1839,-1.1949,-1.1637,-1.1817,-1.2028,-1.1988,-1.157,-1.121,-1.1203,-1.054,-1.0231,-1.1115,-1.0856,-1.0787,-1.1663,-1.2336,-1.265,-1.2351,-1.2597,-1.2642,-1.2324,-1.2443,-1.2572,-1.2523,-1.2969,-1.3068,-1.2546,-1.2298,-1.2254,-1.2402,-1.2146,-1.2382,-1.3179,-1.2896,-1.2885,-1.3168,-1.3168,-1.312,-1.2992,-1.2797,-1.286,-0.7346,-0.7322,-0.7285,-0.7412,-0.7367,-0.7418,-0.7451,-0.7521,-0.7521,-0.7521,-0.7521,-0.7521,-0.7521,0.0,0.0,0.0,0.0,0.0,0.0,-0.8639,-0.8888,-0.856,-0.7829,-0.7499,-0.7843,-0.7992,-0.7869,-0.766,-0.7996,-0.8006,-0.7677,-0.7793,-0.8208,-0.874,-0.8556,-0.8556,-0.8823,-0.8999,-0.9196,-0.924,-0.9556,-0.987,-1.0095,-0.9861,-0.9782,-0.9948,-0.972,-0.9903,-1.0402,-1.0743,-1.1335,-1.1926,-1.1441,-1.1455,-1.1546,-1.0252,-0.9823,-0.9956,-0.9954,-1.0051,-1.0276,-1.0067,-1.0088,-1.0239,-1.0683,-1.0912,-1.1039,-1.1377,-1.1708,-1.1925,-1.1634,-1.1748,-1.181,-1.1603,-1.1256,-1.1128,-1.1283,-1.1023,-1.0746,-1.0767,-1.0892,-1.0961,-1.0968,-1.1219,-1.1515,-1.1924,-1.24,-1.2612,-1.2512,-1.266,-1.2737,-1.2645,-1.2679,-1.2694,-1.2752,-1.3051,-1.3124,-1.2846,-1.2666,-1.2748,-1.3067,-1.2219,-1.2254,-1.3303,-1.26,-1.2479,-1.2998,-1.2998,-1.3063,-1.3145,-1.3093,-1.3084,-0.7307,-0.7196,-0.723,-0.736,-0.7305,-0.7397,-0.7697,-0.775,-0.775,-0.775,-0.789,-0.7941,-0.7495,0.0,0.0,0.0,0.0,0.0,0.0,-0.9204,-0.9268,-0.9268,-0.8497,-0.8196,-0.8769,-0.8661,-0.8604,-0.8658,-0.8923,-0.8967,-0.8683,-0.8875,-0.9244,-0.9772,-0.9161,-0.899,-0.9432,-0.9174,-0.9109,-0.9244,-0.947,-0.9705,-0.9853,-0.9702,-0.9782,-1.0105,-1.0288,-1.0744,-1.131,-1.1944,-1.2638,-1.3065,-1.2674,-1.2689,-1.2692,-1.109,-1.0584,-1.0636,-1.0402,-1.0496,-1.0651,-1.0513,-1.0368,-1.0293,-1.0812,-1.0812,-1.0887,-1.1626,-1.1777,-1.1781,-1.2052,-1.1963,-1.1731,-1.1553,-1.1383,-1.1288,-1.1553,-1.1469,-1.1329,-1.1392,-1.1737,-1.1969,-1.1834,-1.2328,-1.2585,-1.2097,-1.2251,-1.2486,-1.2496,-1.2642,-1.2777,-1.2797,-1.2694,-1.2793,-1.3074,-1.3329,-1.329,-1.2862,-1.278,-1.284,-1.3051,-1.2041,-1.2121,-1.3467,-1.2598,-1.2461,-1.3162,-1.3162,-1.3238,-1.3467,-1.3467,-1.36]}]]